<?xml version="1.0" encoding="UTF-8" standalone="no" ?>
<gpx xmlns="http://www.topografix.com/GPX/1/1" xmlns:xsi="http://www.w3.org/2001/XMLSchema-instance" xsi:schemaLocation="http://www.topografix.com/GPX/1/1 http://www.topografix.com/GPX/1/1/gpx.xsd" version="1.1" creator="VisuGPX - https://www.visugpx.com">
  <metadata>
    <name>Circuit La Trappe-Pitelet 38km</name>
    <desc><![CDATA[Circuit au départ de La Trappe ou de Pitelet, 37 # 38 km, D 1365m : option (1) dessinée lors de la réunion d'octobre 2015.]]></desc>
  </metadata>
  <trk>
    <name><![CDATA[Tracé 22 févr. 2017 13:06:02]]></name>
    <trkseg>
      <trkpt lat="45.93894" lon="3.63133">
        <ele>726.65574666667</ele>
        <time>2017-02-22T12:06:02Z</time>
      </trkpt>
      <trkpt lat="45.939" lon="3.63135">
        <ele>728.45598</ele>
        <time>2017-02-22T12:06:14Z</time>
      </trkpt>
      <trkpt lat="45.93902" lon="3.63143">
        <ele>727.95606</ele>
        <time>2017-02-22T12:06:17Z</time>
      </trkpt>
      <trkpt lat="45.93903" lon="3.63153">
        <ele>727.25612666667</ele>
        <time>2017-02-22T12:06:21Z</time>
      </trkpt>
      <trkpt lat="45.93909" lon="3.63164">
        <ele>726.75635333333</ele>
        <time>2017-02-22T12:06:26Z</time>
      </trkpt>
      <trkpt lat="45.93912" lon="3.6317">
        <ele>726.95649333333</ele>
        <time>2017-02-22T12:06:28Z</time>
      </trkpt>
      <trkpt lat="45.9392" lon="3.63187">
        <ele>727.15678666667</ele>
        <time>2017-02-22T12:06:32Z</time>
      </trkpt>
      <trkpt lat="45.93924" lon="3.63197">
        <ele>727.35696666667</ele>
        <time>2017-02-22T12:06:33Z</time>
      </trkpt>
      <trkpt lat="45.93944" lon="3.63249">
        <ele>726.75776</ele>
        <time>2017-02-22T12:06:44Z</time>
      </trkpt>
      <trkpt lat="45.93953" lon="3.63274">
        <ele>726.0581</ele>
        <time>2017-02-22T12:06:49Z</time>
      </trkpt>
      <trkpt lat="45.93958" lon="3.63285">
        <ele>725.85830666667</ele>
        <time>2017-02-22T12:06:51Z</time>
      </trkpt>
      <trkpt lat="45.93975" lon="3.63309">
        <ele>726.05900666667</ele>
        <time>2017-02-22T12:06:56Z</time>
      </trkpt>
      <trkpt lat="45.93987" lon="3.63317">
        <ele>726.15946666667</ele>
        <time>2017-02-22T12:06:59Z</time>
      </trkpt>
      <trkpt lat="45.94005" lon="3.63318">
        <ele>726.3602</ele>
        <time>2017-02-22T12:07:03Z</time>
      </trkpt>
      <trkpt lat="45.94029" lon="3.6331">
        <ele>726.96114</ele>
        <time>2017-02-22T12:07:08Z</time>
      </trkpt>
      <trkpt lat="45.94052" lon="3.63297">
        <ele>727.26206</ele>
        <time>2017-02-22T12:07:12Z</time>
      </trkpt>
      <trkpt lat="45.94068" lon="3.63283">
        <ele>727.16272666667</ele>
        <time>2017-02-22T12:07:16Z</time>
      </trkpt>
      <trkpt lat="45.94086" lon="3.63267">
        <ele>727.56345333333</ele>
        <time>2017-02-22T12:07:21Z</time>
      </trkpt>
      <trkpt lat="45.94106" lon="3.63259">
        <ele>728.06423333333</ele>
        <time>2017-02-22T12:07:25Z</time>
      </trkpt>
      <trkpt lat="45.94125" lon="3.63251">
        <ele>728.86500666667</ele>
        <time>2017-02-22T12:07:29Z</time>
      </trkpt>
      <trkpt lat="45.94144" lon="3.63244">
        <ele>729.76574</ele>
        <time>2017-02-22T12:07:33Z</time>
      </trkpt>
      <trkpt lat="45.9416" lon="3.63235">
        <ele>730.7664</ele>
        <time>2017-02-22T12:07:37Z</time>
      </trkpt>
      <trkpt lat="45.94166" lon="3.63233">
        <ele>730.96664</ele>
        <time>2017-02-22T12:07:39Z</time>
      </trkpt>
      <trkpt lat="45.94181" lon="3.63235">
        <ele>732.86725333333</ele>
        <time>2017-02-22T12:07:46Z</time>
      </trkpt>
      <trkpt lat="45.94187" lon="3.63234">
        <ele>733.86746</ele>
        <time>2017-02-22T12:07:53Z</time>
      </trkpt>
      <trkpt lat="45.94205" lon="3.63239">
        <ele>736.26821333333</ele>
        <time>2017-02-22T12:07:58Z</time>
      </trkpt>
      <trkpt lat="45.94212" lon="3.63241">
        <ele>737.26849333333</ele>
        <time>2017-02-22T12:08:03Z</time>
      </trkpt>
      <trkpt lat="45.94219" lon="3.63244">
        <ele>738.66876</ele>
        <time>2017-02-22T12:08:06Z</time>
      </trkpt>
      <trkpt lat="45.94229" lon="3.63245">
        <ele>742.36916666667</ele>
        <time>2017-02-22T12:08:16Z</time>
      </trkpt>
      <trkpt lat="45.94235" lon="3.63248">
        <ele>743.56939333333</ele>
        <time>2017-02-22T12:08:23Z</time>
      </trkpt>
      <trkpt lat="45.94245" lon="3.63251">
        <ele>745.06978666667</ele>
        <time>2017-02-22T12:08:27Z</time>
      </trkpt>
      <trkpt lat="45.94253" lon="3.63254">
        <ele>747.37010666667</ele>
        <time>2017-02-22T12:08:33Z</time>
      </trkpt>
      <trkpt lat="45.94256" lon="3.63257">
        <ele>748.57024666667</ele>
        <time>2017-02-22T12:08:34Z</time>
      </trkpt>
      <trkpt lat="45.94274" lon="3.6327">
        <ele>751.77095333333</ele>
        <time>2017-02-22T12:08:46Z</time>
      </trkpt>
      <trkpt lat="45.94281" lon="3.63274">
        <ele>753.47123333333</ele>
        <time>2017-02-22T12:08:51Z</time>
      </trkpt>
      <trkpt lat="45.94284" lon="3.63276">
        <ele>754.27135333333</ele>
        <time>2017-02-22T12:09:00Z</time>
      </trkpt>
      <trkpt lat="45.94299" lon="3.6329">
        <ele>758.67195333333</ele>
        <time>2017-02-22T12:09:04Z</time>
      </trkpt>
      <trkpt lat="45.94306" lon="3.63298">
        <ele>760.87222</ele>
        <time>2017-02-22T12:09:15Z</time>
      </trkpt>
      <trkpt lat="45.94312" lon="3.63307">
        <ele>761.77249333333</ele>
        <time>2017-02-22T12:09:19Z</time>
      </trkpt>
      <trkpt lat="45.94318" lon="3.63316">
        <ele>762.4727</ele>
        <time>2017-02-22T12:09:23Z</time>
      </trkpt>
      <trkpt lat="45.94322" lon="3.63325">
        <ele>762.17288666667</ele>
        <time>2017-02-22T12:09:26Z</time>
      </trkpt>
      <trkpt lat="45.94327" lon="3.6334">
        <ele>760.97309333333</ele>
        <time>2017-02-22T12:09:31Z</time>
      </trkpt>
      <trkpt lat="45.94333" lon="3.63349">
        <ele>760.97330666667</ele>
        <time>2017-02-22T12:09:34Z</time>
      </trkpt>
      <trkpt lat="45.9434" lon="3.63366">
        <ele>761.07360666667</ele>
        <time>2017-02-22T12:09:43Z</time>
      </trkpt>
      <trkpt lat="45.94337" lon="3.63376">
        <ele>760.27347333333</ele>
        <time>2017-02-22T12:09:48Z</time>
      </trkpt>
      <trkpt lat="45.9433" lon="3.63385">
        <ele>760.07320666667</ele>
        <time>2017-02-22T12:09:51Z</time>
      </trkpt>
      <trkpt lat="45.94322" lon="3.63394">
        <ele>759.57288666667</ele>
        <time>2017-02-22T12:09:56Z</time>
      </trkpt>
      <trkpt lat="45.94317" lon="3.63401">
        <ele>759.47266</ele>
        <time>2017-02-22T12:10:02Z</time>
      </trkpt>
      <trkpt lat="45.94314" lon="3.63406">
        <ele>758.97254</ele>
        <time>2017-02-22T12:10:05Z</time>
      </trkpt>
      <trkpt lat="45.94307" lon="3.63423">
        <ele>757.97229333333</ele>
        <time>2017-02-22T12:10:09Z</time>
      </trkpt>
      <trkpt lat="45.94306" lon="3.63436">
        <ele>757.27224666667</ele>
        <time>2017-02-22T12:10:14Z</time>
      </trkpt>
      <trkpt lat="45.94301" lon="3.63456">
        <ele>755.97202</ele>
        <time>2017-02-22T12:10:18Z</time>
      </trkpt>
      <trkpt lat="45.943" lon="3.63466">
        <ele>755.67199333333</ele>
        <time>2017-02-22T12:10:31Z</time>
      </trkpt>
      <trkpt lat="45.94304" lon="3.63517">
        <ele>752.67216</ele>
        <time>2017-02-22T12:10:35Z</time>
      </trkpt>
      <trkpt lat="45.94306" lon="3.6354">
        <ele>750.87223333333</ele>
        <time>2017-02-22T12:10:40Z</time>
      </trkpt>
      <trkpt lat="45.94305" lon="3.63555">
        <ele>750.47220666667</ele>
        <time>2017-02-22T12:10:49Z</time>
      </trkpt>
      <trkpt lat="45.94305" lon="3.63601">
        <ele>749.47220666667</ele>
        <time>2017-02-22T12:10:53Z</time>
      </trkpt>
      <trkpt lat="45.94308" lon="3.6361">
        <ele>748.87232</ele>
        <time>2017-02-22T12:10:56Z</time>
      </trkpt>
      <trkpt lat="45.9431" lon="3.63626">
        <ele>748.8724</ele>
        <time>2017-02-22T12:11:00Z</time>
      </trkpt>
      <trkpt lat="45.94312" lon="3.63638">
        <ele>748.47248666667</ele>
        <time>2017-02-22T12:11:04Z</time>
      </trkpt>
      <trkpt lat="45.94315" lon="3.63649">
        <ele>747.67258666667</ele>
        <time>2017-02-22T12:11:08Z</time>
      </trkpt>
      <trkpt lat="45.94321" lon="3.63666">
        <ele>746.77284666667</ele>
        <time>2017-02-22T12:11:13Z</time>
      </trkpt>
      <trkpt lat="45.94324" lon="3.63668">
        <ele>746.77294</ele>
        <time>2017-02-22T12:11:14Z</time>
      </trkpt>
      <trkpt lat="45.94335" lon="3.63705">
        <ele>746.8734</ele>
        <time>2017-02-22T12:11:28Z</time>
      </trkpt>
      <trkpt lat="45.9434" lon="3.63722">
        <ele>747.2736</ele>
        <time>2017-02-22T12:11:33Z</time>
      </trkpt>
      <trkpt lat="45.94343" lon="3.63731">
        <ele>747.47372666667</ele>
        <time>2017-02-22T12:11:37Z</time>
      </trkpt>
      <trkpt lat="45.94351" lon="3.63751">
        <ele>748.47403333333</ele>
        <time>2017-02-22T12:11:50Z</time>
      </trkpt>
      <trkpt lat="45.94352" lon="3.63761">
        <ele>748.67408666667</ele>
        <time>2017-02-22T12:11:55Z</time>
      </trkpt>
      <trkpt lat="45.94356" lon="3.63775">
        <ele>749.67425333333</ele>
        <time>2017-02-22T12:11:59Z</time>
      </trkpt>
      <trkpt lat="45.94359" lon="3.63783">
        <ele>750.07436666667</ele>
        <time>2017-02-22T12:12:03Z</time>
      </trkpt>
      <trkpt lat="45.94362" lon="3.63796">
        <ele>750.87446666667</ele>
        <time>2017-02-22T12:12:12Z</time>
      </trkpt>
      <trkpt lat="45.94371" lon="3.63811">
        <ele>750.67484666667</ele>
        <time>2017-02-22T12:12:16Z</time>
      </trkpt>
      <trkpt lat="45.94383" lon="3.63839">
        <ele>750.37531333333</ele>
        <time>2017-02-22T12:12:24Z</time>
      </trkpt>
      <trkpt lat="45.94376" lon="3.63852">
        <ele>749.27505333333</ele>
        <time>2017-02-22T12:12:33Z</time>
      </trkpt>
      <trkpt lat="45.94362" lon="3.63865">
        <ele>746.87448</ele>
        <time>2017-02-22T12:12:35Z</time>
      </trkpt>
      <trkpt lat="45.9435" lon="3.63871">
        <ele>744.27401333333</ele>
        <time>2017-02-22T12:12:43Z</time>
      </trkpt>
      <trkpt lat="45.94345" lon="3.63879">
        <ele>742.87379333333</ele>
        <time>2017-02-22T12:12:46Z</time>
      </trkpt>
      <trkpt lat="45.94339" lon="3.63883">
        <ele>741.97354</ele>
        <time>2017-02-22T12:12:51Z</time>
      </trkpt>
      <trkpt lat="45.9432" lon="3.63897">
        <ele>739.67280666667</ele>
        <time>2017-02-22T12:12:55Z</time>
      </trkpt>
      <trkpt lat="45.94317" lon="3.63901">
        <ele>739.07267333333</ele>
        <time>2017-02-22T12:12:56Z</time>
      </trkpt>
      <trkpt lat="45.9431" lon="3.63906">
        <ele>737.97240666667</ele>
        <time>2017-02-22T12:13:00Z</time>
      </trkpt>
      <trkpt lat="45.94304" lon="3.63914">
        <ele>737.07216666667</ele>
        <time>2017-02-22T12:13:04Z</time>
      </trkpt>
      <trkpt lat="45.94301" lon="3.63932">
        <ele>736.87202666667</ele>
        <time>2017-02-22T12:13:09Z</time>
      </trkpt>
      <trkpt lat="45.94291" lon="3.6394">
        <ele>736.97165333333</ele>
        <time>2017-02-22T12:13:13Z</time>
      </trkpt>
      <trkpt lat="45.94288" lon="3.63952">
        <ele>737.07151333333</ele>
        <time>2017-02-22T12:13:17Z</time>
      </trkpt>
      <trkpt lat="45.94288" lon="3.63965">
        <ele>737.77151333333</ele>
        <time>2017-02-22T12:13:21Z</time>
      </trkpt>
      <trkpt lat="45.94287" lon="3.63976">
        <ele>739.07148</ele>
        <time>2017-02-22T12:13:28Z</time>
      </trkpt>
      <trkpt lat="45.94286" lon="3.63989">
        <ele>739.07142666667</ele>
        <time>2017-02-22T12:13:34Z</time>
      </trkpt>
      <trkpt lat="45.94286" lon="3.6399">
        <ele>738.97142</ele>
        <time>2017-02-22T12:13:37Z</time>
      </trkpt>
      <trkpt lat="45.94283" lon="3.64007">
        <ele>739.07132</ele>
        <time>2017-02-22T12:13:43Z</time>
      </trkpt>
      <trkpt lat="45.94287" lon="3.64017">
        <ele>738.97146</ele>
        <time>2017-02-22T12:13:51Z</time>
      </trkpt>
      <trkpt lat="45.94288" lon="3.64029">
        <ele>739.97150666667</ele>
        <time>2017-02-22T12:13:58Z</time>
      </trkpt>
      <trkpt lat="45.94281" lon="3.64031">
        <ele>740.27122666667</ele>
        <time>2017-02-22T12:14:04Z</time>
      </trkpt>
      <trkpt lat="45.94277" lon="3.64034">
        <ele>740.57108</ele>
        <time>2017-02-22T12:14:15Z</time>
      </trkpt>
      <trkpt lat="45.94261" lon="3.64039">
        <ele>741.87044666667</ele>
        <time>2017-02-22T12:14:20Z</time>
      </trkpt>
      <trkpt lat="45.94253" lon="3.64036">
        <ele>741.97012</ele>
        <time>2017-02-22T12:14:28Z</time>
      </trkpt>
      <trkpt lat="45.94245" lon="3.64035">
        <ele>741.96979333333</ele>
        <time>2017-02-22T12:14:36Z</time>
      </trkpt>
      <trkpt lat="45.94237" lon="3.6404">
        <ele>744.76949333333</ele>
        <time>2017-02-22T12:14:55Z</time>
      </trkpt>
      <trkpt lat="45.94235" lon="3.64044">
        <ele>746.36939333333</ele>
        <time>2017-02-22T12:15:18Z</time>
      </trkpt>
      <trkpt lat="45.94225" lon="3.6405">
        <ele>751.66901333333</ele>
        <time>2017-02-22T12:15:20Z</time>
      </trkpt>
      <trkpt lat="45.94225" lon="3.6405">
        <ele>751.76901333333</ele>
        <time>2017-02-22T12:15:49Z</time>
      </trkpt>
      <trkpt lat="45.94214" lon="3.64058">
        <ele>755.36856666667</ele>
        <time>2017-02-22T12:15:57Z</time>
      </trkpt>
      <trkpt lat="45.94208" lon="3.64062">
        <ele>755.86832</ele>
        <time>2017-02-22T12:16:03Z</time>
      </trkpt>
      <trkpt lat="45.94199" lon="3.64063">
        <ele>755.96796666667</ele>
        <time>2017-02-22T12:16:08Z</time>
      </trkpt>
      <trkpt lat="45.94192" lon="3.64067">
        <ele>756.86768666667</ele>
        <time>2017-02-22T12:16:15Z</time>
      </trkpt>
      <trkpt lat="45.94184" lon="3.64072">
        <ele>756.96737333333</ele>
        <time>2017-02-22T12:16:22Z</time>
      </trkpt>
      <trkpt lat="45.9418" lon="3.64073">
        <ele>757.06721333333</ele>
        <time>2017-02-22T12:16:22Z</time>
      </trkpt>
      <trkpt lat="45.94168" lon="3.64079">
        <ele>757.26671333333</ele>
        <time>2017-02-22T12:16:33Z</time>
      </trkpt>
      <trkpt lat="45.9416" lon="3.64084">
        <ele>758.06638666667</ele>
        <time>2017-02-22T12:16:39Z</time>
      </trkpt>
      <trkpt lat="45.94155" lon="3.64089">
        <ele>758.16618</ele>
        <time>2017-02-22T12:16:41Z</time>
      </trkpt>
      <trkpt lat="45.94149" lon="3.64094">
        <ele>758.16595333333</ele>
        <time>2017-02-22T12:16:45Z</time>
      </trkpt>
      <trkpt lat="45.9414" lon="3.64104">
        <ele>758.06561333333</ele>
        <time>2017-02-22T12:16:49Z</time>
      </trkpt>
      <trkpt lat="45.94117" lon="3.64115">
        <ele>759.66466</ele>
        <time>2017-02-22T12:17:00Z</time>
      </trkpt>
      <trkpt lat="45.94108" lon="3.64114">
        <ele>760.06432666667</ele>
        <time>2017-02-22T12:17:04Z</time>
      </trkpt>
      <trkpt lat="45.94086" lon="3.6412">
        <ele>761.56344</ele>
        <time>2017-02-22T12:17:09Z</time>
      </trkpt>
      <trkpt lat="45.94078" lon="3.64135">
        <ele>760.86310666667</ele>
        <time>2017-02-22T12:17:14Z</time>
      </trkpt>
      <trkpt lat="45.94066" lon="3.64181">
        <ele>767.56265333333</ele>
        <time>2017-02-22T12:17:27Z</time>
      </trkpt>
      <trkpt lat="45.94061" lon="3.64199">
        <ele>771.36244</ele>
        <time>2017-02-22T12:17:32Z</time>
      </trkpt>
      <trkpt lat="45.94061" lon="3.64208">
        <ele>772.96245333333</ele>
        <time>2017-02-22T12:17:37Z</time>
      </trkpt>
      <trkpt lat="45.94059" lon="3.64219">
        <ele>774.16235333333</ele>
        <time>2017-02-22T12:17:40Z</time>
      </trkpt>
      <trkpt lat="45.94057" lon="3.64229">
        <ele>775.06226666667</ele>
        <time>2017-02-22T12:17:45Z</time>
      </trkpt>
      <trkpt lat="45.94054" lon="3.64282">
        <ele>777.06216</ele>
        <time>2017-02-22T12:17:58Z</time>
      </trkpt>
      <trkpt lat="45.94054" lon="3.64311">
        <ele>777.46216</ele>
        <time>2017-02-22T12:18:03Z</time>
      </trkpt>
      <trkpt lat="45.94053" lon="3.6433">
        <ele>776.46213333333</ele>
        <time>2017-02-22T12:18:07Z</time>
      </trkpt>
      <trkpt lat="45.94049" lon="3.64342">
        <ele>776.16196666667</ele>
        <time>2017-02-22T12:18:10Z</time>
      </trkpt>
      <trkpt lat="45.94045" lon="3.64359">
        <ele>776.06180666667</ele>
        <time>2017-02-22T12:18:15Z</time>
      </trkpt>
      <trkpt lat="45.94041" lon="3.64373">
        <ele>775.96162666667</ele>
        <time>2017-02-22T12:18:20Z</time>
      </trkpt>
      <trkpt lat="45.94037" lon="3.64381">
        <ele>776.36148666667</ele>
        <time>2017-02-22T12:18:24Z</time>
      </trkpt>
      <trkpt lat="45.94035" lon="3.6439">
        <ele>776.96140666667</ele>
        <time>2017-02-22T12:18:27Z</time>
      </trkpt>
      <trkpt lat="45.94027" lon="3.64404">
        <ele>777.06108</ele>
        <time>2017-02-22T12:18:32Z</time>
      </trkpt>
      <trkpt lat="45.94018" lon="3.64415">
        <ele>778.3607</ele>
        <time>2017-02-22T12:18:37Z</time>
      </trkpt>
      <trkpt lat="45.94012" lon="3.64418">
        <ele>778.56046666667</ele>
        <time>2017-02-22T12:18:44Z</time>
      </trkpt>
      <trkpt lat="45.93994" lon="3.64431">
        <ele>778.75974</ele>
        <time>2017-02-22T12:18:47Z</time>
      </trkpt>
      <trkpt lat="45.9399" lon="3.64435">
        <ele>779.25958666667</ele>
        <time>2017-02-22T12:18:56Z</time>
      </trkpt>
      <trkpt lat="45.93965" lon="3.6445">
        <ele>782.05860666667</ele>
        <time>2017-02-22T12:19:01Z</time>
      </trkpt>
      <trkpt lat="45.93957" lon="3.64459">
        <ele>782.35827333333</ele>
        <time>2017-02-22T12:19:04Z</time>
      </trkpt>
      <trkpt lat="45.93951" lon="3.64464">
        <ele>782.55804</ele>
        <time>2017-02-22T12:19:08Z</time>
      </trkpt>
      <trkpt lat="45.93947" lon="3.64469">
        <ele>782.65787333333</ele>
        <time>2017-02-22T12:19:12Z</time>
      </trkpt>
      <trkpt lat="45.9394" lon="3.64478">
        <ele>782.6576</ele>
        <time>2017-02-22T12:19:17Z</time>
      </trkpt>
      <trkpt lat="45.93938" lon="3.6448">
        <ele>782.65752666667</ele>
        <time>2017-02-22T12:19:23Z</time>
      </trkpt>
      <trkpt lat="45.93924" lon="3.64495">
        <ele>783.05694666667</ele>
        <time>2017-02-22T12:19:27Z</time>
      </trkpt>
      <trkpt lat="45.93918" lon="3.645">
        <ele>783.35672666667</ele>
        <time>2017-02-22T12:19:31Z</time>
      </trkpt>
      <trkpt lat="45.93913" lon="3.64505">
        <ele>783.7565</ele>
        <time>2017-02-22T12:19:37Z</time>
      </trkpt>
      <trkpt lat="45.93907" lon="3.64513">
        <ele>785.45628</ele>
        <time>2017-02-22T12:19:44Z</time>
      </trkpt>
      <trkpt lat="45.93903" lon="3.6452">
        <ele>786.15612666667</ele>
        <time>2017-02-22T12:19:48Z</time>
      </trkpt>
      <trkpt lat="45.93894" lon="3.64546">
        <ele>789.05575333333</ele>
        <time>2017-02-22T12:19:56Z</time>
      </trkpt>
      <trkpt lat="45.93891" lon="3.6455">
        <ele>789.15562666667</ele>
        <time>2017-02-22T12:20:00Z</time>
      </trkpt>
      <trkpt lat="45.93882" lon="3.64565">
        <ele>790.95527333333</ele>
        <time>2017-02-22T12:20:04Z</time>
      </trkpt>
      <trkpt lat="45.93876" lon="3.64573">
        <ele>792.85505333333</ele>
        <time>2017-02-22T12:20:12Z</time>
      </trkpt>
      <trkpt lat="45.93873" lon="3.6458">
        <ele>793.85490666667</ele>
        <time>2017-02-22T12:20:20Z</time>
      </trkpt>
      <trkpt lat="45.93867" lon="3.64596">
        <ele>795.25467333333</ele>
        <time>2017-02-22T12:20:24Z</time>
      </trkpt>
      <trkpt lat="45.93864" lon="3.64608">
        <ele>796.95457333333</ele>
        <time>2017-02-22T12:20:29Z</time>
      </trkpt>
      <trkpt lat="45.93858" lon="3.64625">
        <ele>798.6543</ele>
        <time>2017-02-22T12:20:33Z</time>
      </trkpt>
      <trkpt lat="45.93859" lon="3.64655">
        <ele>801.75435333333</ele>
        <time>2017-02-22T12:20:47Z</time>
      </trkpt>
      <trkpt lat="45.93859" lon="3.64668">
        <ele>804.25436</ele>
        <time>2017-02-22T12:20:53Z</time>
      </trkpt>
      <trkpt lat="45.93863" lon="3.64678">
        <ele>806.75452666667</ele>
        <time>2017-02-22T12:21:00Z</time>
      </trkpt>
      <trkpt lat="45.93866" lon="3.6469">
        <ele>809.25462</ele>
        <time>2017-02-22T12:21:08Z</time>
      </trkpt>
      <trkpt lat="45.93864" lon="3.64702">
        <ele>811.45456666667</ele>
        <time>2017-02-22T12:21:17Z</time>
      </trkpt>
      <trkpt lat="45.93869" lon="3.64712">
        <ele>813.45474</ele>
        <time>2017-02-22T12:21:23Z</time>
      </trkpt>
      <trkpt lat="45.93866" lon="3.64719">
        <ele>814.95463333333</ele>
        <time>2017-02-22T12:21:28Z</time>
      </trkpt>
      <trkpt lat="45.93862" lon="3.6473">
        <ele>818.25449333333</ele>
        <time>2017-02-22T12:21:36Z</time>
      </trkpt>
      <trkpt lat="45.93856" lon="3.64737">
        <ele>821.15422</ele>
        <time>2017-02-22T12:21:45Z</time>
      </trkpt>
      <trkpt lat="45.93856" lon="3.64742">
        <ele>822.35424</ele>
        <time>2017-02-22T12:21:59Z</time>
      </trkpt>
      <trkpt lat="45.9384" lon="3.64751">
        <ele>826.5536</ele>
        <time>2017-02-22T12:22:03Z</time>
      </trkpt>
      <trkpt lat="45.93833" lon="3.64749">
        <ele>827.05332</ele>
        <time>2017-02-22T12:22:06Z</time>
      </trkpt>
      <trkpt lat="45.93826" lon="3.64753">
        <ele>829.05304</ele>
        <time>2017-02-22T12:22:13Z</time>
      </trkpt>
      <trkpt lat="45.93819" lon="3.64757">
        <ele>831.45274</ele>
        <time>2017-02-22T12:22:21Z</time>
      </trkpt>
      <trkpt lat="45.93812" lon="3.64749">
        <ele>833.15246</ele>
        <time>2017-02-22T12:22:32Z</time>
      </trkpt>
      <trkpt lat="45.93806" lon="3.64739">
        <ele>834.65224666667</ele>
        <time>2017-02-22T12:22:37Z</time>
      </trkpt>
      <trkpt lat="45.93801" lon="3.64731">
        <ele>835.45204</ele>
        <time>2017-02-22T12:22:48Z</time>
      </trkpt>
      <trkpt lat="45.93789" lon="3.64723">
        <ele>836.35154666667</ele>
        <time>2017-02-22T12:22:48Z</time>
      </trkpt>
      <trkpt lat="45.93784" lon="3.64718">
        <ele>836.45136</ele>
        <time>2017-02-22T12:22:56Z</time>
      </trkpt>
      <trkpt lat="45.93766" lon="3.64708">
        <ele>838.15064666667</ele>
        <time>2017-02-22T12:23:00Z</time>
      </trkpt>
      <trkpt lat="45.93762" lon="3.64706">
        <ele>838.95047333333</ele>
        <time>2017-02-22T12:23:04Z</time>
      </trkpt>
      <trkpt lat="45.93738" lon="3.64688">
        <ele>840.64952666667</ele>
        <time>2017-02-22T12:23:16Z</time>
      </trkpt>
      <trkpt lat="45.93735" lon="3.64725">
        <ele>844.34938</ele>
        <time>2017-02-22T12:23:29Z</time>
      </trkpt>
      <trkpt lat="45.93738" lon="3.64743">
        <ele>844.14953333333</ele>
        <time>2017-02-22T12:23:33Z</time>
      </trkpt>
      <trkpt lat="45.93739" lon="3.64751">
        <ele>843.84954</ele>
        <time>2017-02-22T12:23:36Z</time>
      </trkpt>
      <trkpt lat="45.93748" lon="3.64797">
        <ele>840.64992666667</ele>
        <time>2017-02-22T12:23:49Z</time>
      </trkpt>
      <trkpt lat="45.93756" lon="3.64816">
        <ele>839.55025333333</ele>
        <time>2017-02-22T12:24:00Z</time>
      </trkpt>
      <trkpt lat="45.93767" lon="3.64869">
        <ele>839.35068666667</ele>
        <time>2017-02-22T12:24:04Z</time>
      </trkpt>
      <trkpt lat="45.93764" lon="3.64889">
        <ele>839.45054</ele>
        <time>2017-02-22T12:24:09Z</time>
      </trkpt>
      <trkpt lat="45.93743" lon="3.64948">
        <ele>840.7497</ele>
        <time>2017-02-22T12:24:22Z</time>
      </trkpt>
      <trkpt lat="45.9374" lon="3.64969">
        <ele>841.34958666667</ele>
        <time>2017-02-22T12:24:25Z</time>
      </trkpt>
      <trkpt lat="45.93733" lon="3.64996">
        <ele>841.3493</ele>
        <time>2017-02-22T12:24:30Z</time>
      </trkpt>
      <trkpt lat="45.93729" lon="3.65024">
        <ele>841.84915333333</ele>
        <time>2017-02-22T12:24:34Z</time>
      </trkpt>
      <trkpt lat="45.93731" lon="3.65038">
        <ele>842.14925333333</ele>
        <time>2017-02-22T12:24:37Z</time>
      </trkpt>
      <trkpt lat="45.93735" lon="3.65049">
        <ele>842.54938666667</ele>
        <time>2017-02-22T12:24:39Z</time>
      </trkpt>
      <trkpt lat="45.9375" lon="3.65079">
        <ele>843.24998666667</ele>
        <time>2017-02-22T12:24:47Z</time>
      </trkpt>
      <trkpt lat="45.93759" lon="3.6509">
        <ele>843.45037333333</ele>
        <time>2017-02-22T12:25:00Z</time>
      </trkpt>
      <trkpt lat="45.93803" lon="3.65129">
        <ele>844.75210666667</ele>
        <time>2017-02-22T12:25:05Z</time>
      </trkpt>
      <trkpt lat="45.93811" lon="3.65133">
        <ele>844.95242666667</ele>
        <time>2017-02-22T12:25:08Z</time>
      </trkpt>
      <trkpt lat="45.93827" lon="3.65139">
        <ele>845.75309333333</ele>
        <time>2017-02-22T12:25:13Z</time>
      </trkpt>
      <trkpt lat="45.93837" lon="3.65141">
        <ele>845.95348</ele>
        <time>2017-02-22T12:25:16Z</time>
      </trkpt>
      <trkpt lat="45.93862" lon="3.65147">
        <ele>847.55448</ele>
        <time>2017-02-22T12:25:21Z</time>
      </trkpt>
      <trkpt lat="45.93877" lon="3.65149">
        <ele>847.95508</ele>
        <time>2017-02-22T12:25:26Z</time>
      </trkpt>
      <trkpt lat="45.93892" lon="3.65156">
        <ele>848.55566</ele>
        <time>2017-02-22T12:25:30Z</time>
      </trkpt>
      <trkpt lat="45.93905" lon="3.65161">
        <ele>850.05620666667</ele>
        <time>2017-02-22T12:25:34Z</time>
      </trkpt>
      <trkpt lat="45.93922" lon="3.65164">
        <ele>852.05686</ele>
        <time>2017-02-22T12:25:38Z</time>
      </trkpt>
      <trkpt lat="45.93929" lon="3.65164">
        <ele>852.45717333333</ele>
        <time>2017-02-22T12:25:44Z</time>
      </trkpt>
      <trkpt lat="45.93945" lon="3.65164">
        <ele>851.35781333333</ele>
        <time>2017-02-22T12:25:48Z</time>
      </trkpt>
      <trkpt lat="45.93952" lon="3.65164">
        <ele>851.05806</ele>
        <time>2017-02-22T12:25:50Z</time>
      </trkpt>
      <trkpt lat="45.93988" lon="3.65158">
        <ele>851.75950666667</ele>
        <time>2017-02-22T12:26:00Z</time>
      </trkpt>
      <trkpt lat="45.94" lon="3.65157">
        <ele>852.56</ele>
        <time>2017-02-22T12:26:04Z</time>
      </trkpt>
      <trkpt lat="45.94019" lon="3.65153">
        <ele>854.26077333333</ele>
        <time>2017-02-22T12:26:08Z</time>
      </trkpt>
      <trkpt lat="45.94041" lon="3.65149">
        <ele>856.26163333333</ele>
        <time>2017-02-22T12:26:14Z</time>
      </trkpt>
      <trkpt lat="45.94055" lon="3.65146">
        <ele>856.36220666667</ele>
        <time>2017-02-22T12:26:19Z</time>
      </trkpt>
      <trkpt lat="45.9407" lon="3.6515">
        <ele>855.56280666667</ele>
        <time>2017-02-22T12:26:22Z</time>
      </trkpt>
      <trkpt lat="45.94078" lon="3.65152">
        <ele>855.86312666667</ele>
        <time>2017-02-22T12:26:24Z</time>
      </trkpt>
      <trkpt lat="45.94087" lon="3.65149">
        <ele>855.86346666667</ele>
        <time>2017-02-22T12:26:29Z</time>
      </trkpt>
      <trkpt lat="45.94093" lon="3.65147">
        <ele>856.06372</ele>
        <time>2017-02-22T12:26:34Z</time>
      </trkpt>
      <trkpt lat="45.94114" lon="3.65134">
        <ele>855.66454</ele>
        <time>2017-02-22T12:26:38Z</time>
      </trkpt>
      <trkpt lat="45.94124" lon="3.65126">
        <ele>855.06495333333</ele>
        <time>2017-02-22T12:26:43Z</time>
      </trkpt>
      <trkpt lat="45.94135" lon="3.65117">
        <ele>853.76540666667</ele>
        <time>2017-02-22T12:26:50Z</time>
      </trkpt>
      <trkpt lat="45.94154" lon="3.651">
        <ele>852.76614666667</ele>
        <time>2017-02-22T12:26:50Z</time>
      </trkpt>
      <trkpt lat="45.94178" lon="3.6507">
        <ele>852.46711333333</ele>
        <time>2017-02-22T12:27:00Z</time>
      </trkpt>
      <trkpt lat="45.94187" lon="3.65067">
        <ele>853.06746666667</ele>
        <time>2017-02-22T12:27:04Z</time>
      </trkpt>
      <trkpt lat="45.94195" lon="3.65066">
        <ele>852.86781333333</ele>
        <time>2017-02-22T12:27:09Z</time>
      </trkpt>
      <trkpt lat="45.9422" lon="3.65068">
        <ele>852.7688</ele>
        <time>2017-02-22T12:27:18Z</time>
      </trkpt>
      <trkpt lat="45.94258" lon="3.65074">
        <ele>848.27031333333</ele>
        <time>2017-02-22T12:27:31Z</time>
      </trkpt>
      <trkpt lat="45.94266" lon="3.65077">
        <ele>845.87062</ele>
        <time>2017-02-22T12:27:35Z</time>
      </trkpt>
      <trkpt lat="45.9427" lon="3.65077">
        <ele>844.77080666667</ele>
        <time>2017-02-22T12:27:38Z</time>
      </trkpt>
      <trkpt lat="45.94317" lon="3.65076">
        <ele>843.57268</ele>
        <time>2017-02-22T12:27:51Z</time>
      </trkpt>
      <trkpt lat="45.94357" lon="3.65068">
        <ele>841.67426666667</ele>
        <time>2017-02-22T12:28:00Z</time>
      </trkpt>
      <trkpt lat="45.94375" lon="3.65055">
        <ele>839.97498</ele>
        <time>2017-02-22T12:28:04Z</time>
      </trkpt>
      <trkpt lat="45.94388" lon="3.65045">
        <ele>838.77552</ele>
        <time>2017-02-22T12:28:09Z</time>
      </trkpt>
      <trkpt lat="45.94391" lon="3.65042">
        <ele>838.37562666667</ele>
        <time>2017-02-22T12:28:15Z</time>
      </trkpt>
      <trkpt lat="45.94412" lon="3.65017">
        <ele>833.97648666667</ele>
        <time>2017-02-22T12:28:19Z</time>
      </trkpt>
      <trkpt lat="45.94417" lon="3.6501">
        <ele>832.97669333333</ele>
        <time>2017-02-22T12:28:21Z</time>
      </trkpt>
      <trkpt lat="45.94427" lon="3.65001">
        <ele>831.37709333333</ele>
        <time>2017-02-22T12:28:24Z</time>
      </trkpt>
      <trkpt lat="45.94431" lon="3.64996">
        <ele>830.07724666667</ele>
        <time>2017-02-22T12:28:34Z</time>
      </trkpt>
      <trkpt lat="45.94455" lon="3.64984">
        <ele>824.57819333333</ele>
        <time>2017-02-22T12:28:37Z</time>
      </trkpt>
      <trkpt lat="45.94464" lon="3.64983">
        <ele>822.87857333333</ele>
        <time>2017-02-22T12:28:41Z</time>
      </trkpt>
      <trkpt lat="45.9447" lon="3.64983">
        <ele>820.67881333333</ele>
        <time>2017-02-22T12:28:51Z</time>
      </trkpt>
      <trkpt lat="45.94487" lon="3.64986">
        <ele>815.57947333333</ele>
        <time>2017-02-22T12:28:56Z</time>
      </trkpt>
      <trkpt lat="45.94495" lon="3.64987">
        <ele>813.67981333333</ele>
        <time>2017-02-22T12:29:00Z</time>
      </trkpt>
      <trkpt lat="45.94504" lon="3.64987">
        <ele>812.38015333333</ele>
        <time>2017-02-22T12:29:07Z</time>
      </trkpt>
      <trkpt lat="45.94509" lon="3.64991">
        <ele>810.28034</ele>
        <time>2017-02-22T12:29:24Z</time>
      </trkpt>
      <trkpt lat="45.94519" lon="3.64989">
        <ele>809.88075333333</ele>
        <time>2017-02-22T12:29:27Z</time>
      </trkpt>
      <trkpt lat="45.94525" lon="3.64988">
        <ele>810.381</ele>
        <time>2017-02-22T12:29:34Z</time>
      </trkpt>
      <trkpt lat="45.94546" lon="3.64995">
        <ele>810.78182</ele>
        <time>2017-02-22T12:29:47Z</time>
      </trkpt>
      <trkpt lat="45.94578" lon="3.65">
        <ele>809.8831</ele>
        <time>2017-02-22T12:29:59Z</time>
      </trkpt>
      <trkpt lat="45.94594" lon="3.65006">
        <ele>809.98376</ele>
        <time>2017-02-22T12:30:04Z</time>
      </trkpt>
      <trkpt lat="45.94601" lon="3.65008">
        <ele>809.78404</ele>
        <time>2017-02-22T12:30:06Z</time>
      </trkpt>
      <trkpt lat="45.94625" lon="3.65022">
        <ele>809.38498</ele>
        <time>2017-02-22T12:30:18Z</time>
      </trkpt>
      <trkpt lat="45.94631" lon="3.65025">
        <ele>809.18524</ele>
        <time>2017-02-22T12:30:27Z</time>
      </trkpt>
      <trkpt lat="45.94679" lon="3.65017">
        <ele>808.08716</ele>
        <time>2017-02-22T12:30:31Z</time>
      </trkpt>
      <trkpt lat="45.94684" lon="3.65012">
        <ele>807.98735333333</ele>
        <time>2017-02-22T12:30:35Z</time>
      </trkpt>
      <trkpt lat="45.94687" lon="3.65008">
        <ele>807.88747333333</ele>
        <time>2017-02-22T12:30:43Z</time>
      </trkpt>
      <trkpt lat="45.94716" lon="3.64992">
        <ele>809.88864666667</ele>
        <time>2017-02-22T12:30:48Z</time>
      </trkpt>
      <trkpt lat="45.94722" lon="3.64985">
        <ele>809.98886666667</ele>
        <time>2017-02-22T12:30:57Z</time>
      </trkpt>
      <trkpt lat="45.94721" lon="3.64973">
        <ele>809.68885333333</ele>
        <time>2017-02-22T12:31:04Z</time>
      </trkpt>
      <trkpt lat="45.94718" lon="3.64963">
        <ele>809.38871333333</ele>
        <time>2017-02-22T12:31:14Z</time>
      </trkpt>
      <trkpt lat="45.9471" lon="3.64942">
        <ele>808.3884</ele>
        <time>2017-02-22T12:31:19Z</time>
      </trkpt>
      <trkpt lat="45.94704" lon="3.64934">
        <ele>808.18817333333</ele>
        <time>2017-02-22T12:31:24Z</time>
      </trkpt>
      <trkpt lat="45.947" lon="3.64926">
        <ele>807.78799333333</ele>
        <time>2017-02-22T12:31:30Z</time>
      </trkpt>
      <trkpt lat="45.94697" lon="3.64914">
        <ele>807.28787333333</ele>
        <time>2017-02-22T12:31:34Z</time>
      </trkpt>
      <trkpt lat="45.94694" lon="3.64904">
        <ele>806.58775333333</ele>
        <time>2017-02-22T12:31:40Z</time>
      </trkpt>
      <trkpt lat="45.9469" lon="3.64892">
        <ele>805.18760666667</ele>
        <time>2017-02-22T12:31:45Z</time>
      </trkpt>
      <trkpt lat="45.94689" lon="3.64882">
        <ele>804.38754</ele>
        <time>2017-02-22T12:31:52Z</time>
      </trkpt>
      <trkpt lat="45.94687" lon="3.64872">
        <ele>803.38747333333</ele>
        <time>2017-02-22T12:32:02Z</time>
      </trkpt>
      <trkpt lat="45.94686" lon="3.6486">
        <ele>802.38742</ele>
        <time>2017-02-22T12:32:08Z</time>
      </trkpt>
      <trkpt lat="45.94684" lon="3.64827">
        <ele>801.88734</ele>
        <time>2017-02-22T12:32:21Z</time>
      </trkpt>
      <trkpt lat="45.94684" lon="3.64804">
        <ele>803.88736</ele>
        <time>2017-02-22T12:32:28Z</time>
      </trkpt>
      <trkpt lat="45.94684" lon="3.64802">
        <ele>804.18734666667</ele>
        <time>2017-02-22T12:32:30Z</time>
      </trkpt>
      <trkpt lat="45.94681" lon="3.64791">
        <ele>804.38722</ele>
        <time>2017-02-22T12:32:34Z</time>
      </trkpt>
      <trkpt lat="45.94679" lon="3.6478">
        <ele>804.78717333333</ele>
        <time>2017-02-22T12:32:39Z</time>
      </trkpt>
      <trkpt lat="45.94679" lon="3.64776">
        <ele>804.78716</ele>
        <time>2017-02-22T12:32:40Z</time>
      </trkpt>
      <trkpt lat="45.94679" lon="3.64765">
        <ele>805.18717333333</ele>
        <time>2017-02-22T12:32:45Z</time>
      </trkpt>
      <trkpt lat="45.94679" lon="3.64756">
        <ele>805.18716666667</ele>
        <time>2017-02-22T12:32:49Z</time>
      </trkpt>
      <trkpt lat="45.9468" lon="3.64748">
        <ele>805.28718</ele>
        <time>2017-02-22T12:32:51Z</time>
      </trkpt>
      <trkpt lat="45.94678" lon="3.64726">
        <ele>805.68710666667</ele>
        <time>2017-02-22T12:33:00Z</time>
      </trkpt>
      <trkpt lat="45.94677" lon="3.64712">
        <ele>805.88707333333</ele>
        <time>2017-02-22T12:33:04Z</time>
      </trkpt>
      <trkpt lat="45.94676" lon="3.647">
        <ele>805.78705333333</ele>
        <time>2017-02-22T12:33:13Z</time>
      </trkpt>
      <trkpt lat="45.94675" lon="3.64685">
        <ele>805.58699333333</ele>
        <time>2017-02-22T12:33:13Z</time>
      </trkpt>
      <trkpt lat="45.94671" lon="3.6466">
        <ele>805.28684</ele>
        <time>2017-02-22T12:33:26Z</time>
      </trkpt>
      <trkpt lat="45.94665" lon="3.64648">
        <ele>805.0866</ele>
        <time>2017-02-22T12:33:34Z</time>
      </trkpt>
      <trkpt lat="45.94666" lon="3.6464">
        <ele>804.68665333333</ele>
        <time>2017-02-22T12:33:46Z</time>
      </trkpt>
      <trkpt lat="45.94669" lon="3.64602">
        <ele>803.88677333333</ele>
        <time>2017-02-22T12:33:51Z</time>
      </trkpt>
      <trkpt lat="45.9467" lon="3.64597">
        <ele>803.78678</ele>
        <time>2017-02-22T12:33:52Z</time>
      </trkpt>
      <trkpt lat="45.94671" lon="3.6458">
        <ele>803.88684666667</ele>
        <time>2017-02-22T12:33:57Z</time>
      </trkpt>
      <trkpt lat="45.94686" lon="3.64515">
        <ele>806.18744666667</ele>
        <time>2017-02-22T12:34:01Z</time>
      </trkpt>
      <trkpt lat="45.9469" lon="3.6446">
        <ele>802.68759333333</ele>
        <time>2017-02-22T12:34:05Z</time>
      </trkpt>
      <trkpt lat="45.94701" lon="3.64437">
        <ele>801.68804</ele>
        <time>2017-02-22T12:34:10Z</time>
      </trkpt>
      <trkpt lat="45.94708" lon="3.64421">
        <ele>801.0883</ele>
        <time>2017-02-22T12:34:13Z</time>
      </trkpt>
      <trkpt lat="45.94719" lon="3.64402">
        <ele>800.58874666667</ele>
        <time>2017-02-22T12:34:17Z</time>
      </trkpt>
      <trkpt lat="45.94721" lon="3.64399">
        <ele>800.38884</ele>
        <time>2017-02-22T12:34:18Z</time>
      </trkpt>
      <trkpt lat="45.94758" lon="3.64399">
        <ele>792.2903</ele>
        <time>2017-02-22T12:34:31Z</time>
      </trkpt>
      <trkpt lat="45.94764" lon="3.64405">
        <ele>791.49056666667</ele>
        <time>2017-02-22T12:34:36Z</time>
      </trkpt>
      <trkpt lat="45.94767" lon="3.64409">
        <ele>791.39066</ele>
        <time>2017-02-22T12:34:39Z</time>
      </trkpt>
      <trkpt lat="45.94775" lon="3.64413">
        <ele>791.19098</ele>
        <time>2017-02-22T12:34:46Z</time>
      </trkpt>
      <trkpt lat="45.9478" lon="3.64425">
        <ele>791.0912</ele>
        <time>2017-02-22T12:34:51Z</time>
      </trkpt>
      <trkpt lat="45.94783" lon="3.64432">
        <ele>790.99132</ele>
        <time>2017-02-22T12:34:54Z</time>
      </trkpt>
      <trkpt lat="45.94794" lon="3.64446">
        <ele>791.59174</ele>
        <time>2017-02-22T12:35:00Z</time>
      </trkpt>
      <trkpt lat="45.94802" lon="3.64458">
        <ele>792.49207333333</ele>
        <time>2017-02-22T12:35:05Z</time>
      </trkpt>
      <trkpt lat="45.94804" lon="3.64462">
        <ele>792.59214666667</ele>
        <time>2017-02-22T12:35:07Z</time>
      </trkpt>
      <trkpt lat="45.94809" lon="3.6447">
        <ele>793.09236</ele>
        <time>2017-02-22T12:35:14Z</time>
      </trkpt>
      <trkpt lat="45.94814" lon="3.6448">
        <ele>793.19256</ele>
        <time>2017-02-22T12:35:27Z</time>
      </trkpt>
      <trkpt lat="45.94824" lon="3.64502">
        <ele>794.19296666667</ele>
        <time>2017-02-22T12:35:30Z</time>
      </trkpt>
      <trkpt lat="45.9483" lon="3.64511">
        <ele>794.69321333333</ele>
        <time>2017-02-22T12:35:35Z</time>
      </trkpt>
      <trkpt lat="45.94832" lon="3.64513">
        <ele>794.79327333333</ele>
        <time>2017-02-22T12:35:46Z</time>
      </trkpt>
      <trkpt lat="45.94856" lon="3.64539">
        <ele>797.49424</ele>
        <time>2017-02-22T12:35:51Z</time>
      </trkpt>
      <trkpt lat="45.94863" lon="3.64545">
        <ele>798.59452</ele>
        <time>2017-02-22T12:35:55Z</time>
      </trkpt>
      <trkpt lat="45.9487" lon="3.64549">
        <ele>799.5948</ele>
        <time>2017-02-22T12:36:00Z</time>
      </trkpt>
      <trkpt lat="45.94876" lon="3.64556">
        <ele>800.29502666667</ele>
        <time>2017-02-22T12:36:04Z</time>
      </trkpt>
      <trkpt lat="45.9488" lon="3.64566">
        <ele>801.39520666667</ele>
        <time>2017-02-22T12:36:11Z</time>
      </trkpt>
      <trkpt lat="45.94881" lon="3.64567">
        <ele>801.39523333333</ele>
        <time>2017-02-22T12:36:11Z</time>
      </trkpt>
      <trkpt lat="45.949" lon="3.64588">
        <ele>803.09599333333</ele>
        <time>2017-02-22T12:36:22Z</time>
      </trkpt>
      <trkpt lat="45.94903" lon="3.64591">
        <ele>803.29610666667</ele>
        <time>2017-02-22T12:36:34Z</time>
      </trkpt>
      <trkpt lat="45.94931" lon="3.6461">
        <ele>806.89723333333</ele>
        <time>2017-02-22T12:36:37Z</time>
      </trkpt>
      <trkpt lat="45.94941" lon="3.64615">
        <ele>807.69762666667</ele>
        <time>2017-02-22T12:36:40Z</time>
      </trkpt>
      <trkpt lat="45.94946" lon="3.64621">
        <ele>808.09783333333</ele>
        <time>2017-02-22T12:36:46Z</time>
      </trkpt>
      <trkpt lat="45.94958" lon="3.64635">
        <ele>808.49831333333</ele>
        <time>2017-02-22T12:36:50Z</time>
      </trkpt>
      <trkpt lat="45.94964" lon="3.64642">
        <ele>808.29854666667</ele>
        <time>2017-02-22T12:36:54Z</time>
      </trkpt>
      <trkpt lat="45.94969" lon="3.64645">
        <ele>808.19876</ele>
        <time>2017-02-22T12:36:57Z</time>
      </trkpt>
      <trkpt lat="45.94977" lon="3.64648">
        <ele>807.59909333333</ele>
        <time>2017-02-22T12:37:01Z</time>
      </trkpt>
      <trkpt lat="45.94992" lon="3.64652">
        <ele>807.29969333333</ele>
        <time>2017-02-22T12:37:04Z</time>
      </trkpt>
      <trkpt lat="45.94995" lon="3.64653">
        <ele>807.39980666667</ele>
        <time>2017-02-22T12:37:12Z</time>
      </trkpt>
      <trkpt lat="45.95019" lon="3.64658">
        <ele>808.20076</ele>
        <time>2017-02-22T12:37:12Z</time>
      </trkpt>
      <trkpt lat="45.95061" lon="3.64663">
        <ele>813.10244666667</ele>
        <time>2017-02-22T12:37:25Z</time>
      </trkpt>
      <trkpt lat="45.9507" lon="3.64663">
        <ele>813.70280666667</ele>
        <time>2017-02-22T12:37:28Z</time>
      </trkpt>
      <trkpt lat="45.9508" lon="3.64659">
        <ele>815.1032</ele>
        <time>2017-02-22T12:37:31Z</time>
      </trkpt>
      <trkpt lat="45.95091" lon="3.64659">
        <ele>814.70362666667</ele>
        <time>2017-02-22T12:37:34Z</time>
      </trkpt>
      <trkpt lat="45.95095" lon="3.64658">
        <ele>816.20380666667</ele>
        <time>2017-02-22T12:37:46Z</time>
      </trkpt>
      <trkpt lat="45.95128" lon="3.64659">
        <ele>819.50511333333</ele>
        <time>2017-02-22T12:37:50Z</time>
      </trkpt>
      <trkpt lat="45.95146" lon="3.6466">
        <ele>819.00582</ele>
        <time>2017-02-22T12:37:54Z</time>
      </trkpt>
      <trkpt lat="45.95161" lon="3.64657">
        <ele>819.30644</ele>
        <time>2017-02-22T12:37:58Z</time>
      </trkpt>
      <trkpt lat="45.95174" lon="3.64653">
        <ele>822.30697333333</ele>
        <time>2017-02-22T12:38:02Z</time>
      </trkpt>
      <trkpt lat="45.95182" lon="3.64652">
        <ele>825.00729333333</ele>
        <time>2017-02-22T12:38:04Z</time>
      </trkpt>
      <trkpt lat="45.95188" lon="3.64652">
        <ele>824.9075</ele>
        <time>2017-02-22T12:38:19Z</time>
      </trkpt>
      <trkpt lat="45.95229" lon="3.64669">
        <ele>826.60916666667</ele>
        <time>2017-02-22T12:38:24Z</time>
      </trkpt>
      <trkpt lat="45.95233" lon="3.6467">
        <ele>826.80932666667</ele>
        <time>2017-02-22T12:38:28Z</time>
      </trkpt>
      <trkpt lat="45.95244" lon="3.64672">
        <ele>827.60975333333</ele>
        <time>2017-02-22T12:38:31Z</time>
      </trkpt>
      <trkpt lat="45.95253" lon="3.64673">
        <ele>829.31013333333</ele>
        <time>2017-02-22T12:38:34Z</time>
      </trkpt>
      <trkpt lat="45.95262" lon="3.64673">
        <ele>830.61048</ele>
        <time>2017-02-22T12:38:39Z</time>
      </trkpt>
      <trkpt lat="45.95273" lon="3.64672">
        <ele>831.71093333333</ele>
        <time>2017-02-22T12:38:44Z</time>
      </trkpt>
      <trkpt lat="45.95288" lon="3.6467">
        <ele>831.6115</ele>
        <time>2017-02-22T12:38:48Z</time>
      </trkpt>
      <trkpt lat="45.95297" lon="3.6467">
        <ele>832.01186</ele>
        <time>2017-02-22T12:38:52Z</time>
      </trkpt>
      <trkpt lat="45.95301" lon="3.64676">
        <ele>831.21204666667</ele>
        <time>2017-02-22T12:38:56Z</time>
      </trkpt>
      <trkpt lat="45.95307" lon="3.64682">
        <ele>831.11226</ele>
        <time>2017-02-22T12:39:00Z</time>
      </trkpt>
      <trkpt lat="45.95312" lon="3.6469">
        <ele>831.71248666667</ele>
        <time>2017-02-22T12:39:08Z</time>
      </trkpt>
      <trkpt lat="45.95326" lon="3.64706">
        <ele>833.31304</ele>
        <time>2017-02-22T12:39:21Z</time>
      </trkpt>
      <trkpt lat="45.95329" lon="3.64708">
        <ele>833.21314</ele>
        <time>2017-02-22T12:39:34Z</time>
      </trkpt>
      <trkpt lat="45.95345" lon="3.64721">
        <ele>835.51380666667</ele>
        <time>2017-02-22T12:39:39Z</time>
      </trkpt>
      <trkpt lat="45.95351" lon="3.64725">
        <ele>836.01402666667</ele>
        <time>2017-02-22T12:39:45Z</time>
      </trkpt>
      <trkpt lat="45.95354" lon="3.64728">
        <ele>836.51417333333</ele>
        <time>2017-02-22T12:39:54Z</time>
      </trkpt>
      <trkpt lat="45.9537" lon="3.64738">
        <ele>837.71481333333</ele>
        <time>2017-02-22T12:39:57Z</time>
      </trkpt>
      <trkpt lat="45.95378" lon="3.64741">
        <ele>838.81512666667</ele>
        <time>2017-02-22T12:40:05Z</time>
      </trkpt>
      <trkpt lat="45.95387" lon="3.64747">
        <ele>840.51548</ele>
        <time>2017-02-22T12:40:14Z</time>
      </trkpt>
      <trkpt lat="45.95392" lon="3.64755">
        <ele>841.51568666667</ele>
        <time>2017-02-22T12:40:21Z</time>
      </trkpt>
      <trkpt lat="45.95399" lon="3.6476">
        <ele>841.71595333333</ele>
        <time>2017-02-22T12:40:26Z</time>
      </trkpt>
      <trkpt lat="45.95409" lon="3.64765">
        <ele>842.41637333333</ele>
        <time>2017-02-22T12:40:34Z</time>
      </trkpt>
      <trkpt lat="45.95414" lon="3.64767">
        <ele>842.71654</ele>
        <time>2017-02-22T12:40:37Z</time>
      </trkpt>
      <trkpt lat="45.95426" lon="3.64781">
        <ele>844.61702</ele>
        <time>2017-02-22T12:40:50Z</time>
      </trkpt>
      <trkpt lat="45.95429" lon="3.64791">
        <ele>846.01714</ele>
        <time>2017-02-22T12:40:57Z</time>
      </trkpt>
      <trkpt lat="45.95433" lon="3.64802">
        <ele>846.9173</ele>
        <time>2017-02-22T12:41:04Z</time>
      </trkpt>
      <trkpt lat="45.95436" lon="3.64806">
        <ele>847.71744666667</ele>
        <time>2017-02-22T12:41:09Z</time>
      </trkpt>
      <trkpt lat="45.95455" lon="3.64815">
        <ele>850.4182</ele>
        <time>2017-02-22T12:41:22Z</time>
      </trkpt>
      <trkpt lat="45.95472" lon="3.6482">
        <ele>852.91888666667</ele>
        <time>2017-02-22T12:41:35Z</time>
      </trkpt>
      <trkpt lat="45.95479" lon="3.64825">
        <ele>854.21915333333</ele>
        <time>2017-02-22T12:41:43Z</time>
      </trkpt>
      <trkpt lat="45.95485" lon="3.64832">
        <ele>856.2194</ele>
        <time>2017-02-22T12:42:04Z</time>
      </trkpt>
      <trkpt lat="45.95486" lon="3.6484">
        <ele>857.51942666667</ele>
        <time>2017-02-22T12:42:09Z</time>
      </trkpt>
      <trkpt lat="45.95492" lon="3.6486">
        <ele>859.21967333333</ele>
        <time>2017-02-22T12:42:22Z</time>
      </trkpt>
      <trkpt lat="45.95503" lon="3.64878">
        <ele>860.82012</ele>
        <time>2017-02-22T12:42:35Z</time>
      </trkpt>
      <trkpt lat="45.95509" lon="3.64884">
        <ele>861.62035333333</ele>
        <time>2017-02-22T12:42:46Z</time>
      </trkpt>
      <trkpt lat="45.95517" lon="3.64891">
        <ele>864.12068</ele>
        <time>2017-02-22T12:42:50Z</time>
      </trkpt>
      <trkpt lat="45.95521" lon="3.64892">
        <ele>865.32083333333</ele>
        <time>2017-02-22T12:43:11Z</time>
      </trkpt>
      <trkpt lat="45.95533" lon="3.64894">
        <ele>871.22130666667</ele>
        <time>2017-02-22T12:43:15Z</time>
      </trkpt>
      <trkpt lat="45.95536" lon="3.64902">
        <ele>871.62145333333</ele>
        <time>2017-02-22T12:43:33Z</time>
      </trkpt>
      <trkpt lat="45.95541" lon="3.64912">
        <ele>872.02162666667</ele>
        <time>2017-02-22T12:43:42Z</time>
      </trkpt>
      <trkpt lat="45.95547" lon="3.64917">
        <ele>872.52189333333</ele>
        <time>2017-02-22T12:43:50Z</time>
      </trkpt>
      <trkpt lat="45.95555" lon="3.64921">
        <ele>872.82218</ele>
        <time>2017-02-22T12:43:57Z</time>
      </trkpt>
      <trkpt lat="45.95561" lon="3.64928">
        <ele>873.62244666667</ele>
        <time>2017-02-22T12:44:04Z</time>
      </trkpt>
      <trkpt lat="45.95563" lon="3.6493">
        <ele>873.62252</ele>
        <time>2017-02-22T12:44:07Z</time>
      </trkpt>
      <trkpt lat="45.95576" lon="3.64946">
        <ele>874.62303333333</ele>
        <time>2017-02-22T12:44:18Z</time>
      </trkpt>
      <trkpt lat="45.95589" lon="3.64957">
        <ele>875.52357333333</ele>
        <time>2017-02-22T12:44:31Z</time>
      </trkpt>
      <trkpt lat="45.95595" lon="3.64965">
        <ele>876.22378</ele>
        <time>2017-02-22T12:44:37Z</time>
      </trkpt>
      <trkpt lat="45.95597" lon="3.64967">
        <ele>876.52388</ele>
        <time>2017-02-22T12:44:39Z</time>
      </trkpt>
      <trkpt lat="45.95603" lon="3.64976">
        <ele>877.82411333333</ele>
        <time>2017-02-22T12:44:48Z</time>
      </trkpt>
      <trkpt lat="45.95607" lon="3.64985">
        <ele>878.32428</ele>
        <time>2017-02-22T12:44:59Z</time>
      </trkpt>
      <trkpt lat="45.95609" lon="3.64991">
        <ele>878.32434666667</ele>
        <time>2017-02-22T12:45:05Z</time>
      </trkpt>
      <trkpt lat="45.9562" lon="3.65008">
        <ele>878.72478</ele>
        <time>2017-02-22T12:45:17Z</time>
      </trkpt>
      <trkpt lat="45.95627" lon="3.65016">
        <ele>878.82507333333</ele>
        <time>2017-02-22T12:45:21Z</time>
      </trkpt>
      <trkpt lat="45.95632" lon="3.65023">
        <ele>879.12528666667</ele>
        <time>2017-02-22T12:45:29Z</time>
      </trkpt>
      <trkpt lat="45.95639" lon="3.65031">
        <ele>879.52554666667</ele>
        <time>2017-02-22T12:45:37Z</time>
      </trkpt>
      <trkpt lat="45.95645" lon="3.65043">
        <ele>880.42580666667</ele>
        <time>2017-02-22T12:45:50Z</time>
      </trkpt>
      <trkpt lat="45.95666" lon="3.65051">
        <ele>881.02665333333</ele>
        <time>2017-02-22T12:46:00Z</time>
      </trkpt>
      <trkpt lat="45.95673" lon="3.65057">
        <ele>881.32691333333</ele>
        <time>2017-02-22T12:46:04Z</time>
      </trkpt>
      <trkpt lat="45.95677" lon="3.65066">
        <ele>881.62706666667</ele>
        <time>2017-02-22T12:46:08Z</time>
      </trkpt>
      <trkpt lat="45.95683" lon="3.65078">
        <ele>883.12731333333</ele>
        <time>2017-02-22T12:46:17Z</time>
      </trkpt>
      <trkpt lat="45.95688" lon="3.65088">
        <ele>884.42753333333</ele>
        <time>2017-02-22T12:46:25Z</time>
      </trkpt>
      <trkpt lat="45.95691" lon="3.651">
        <ele>885.12765333333</ele>
        <time>2017-02-22T12:46:34Z</time>
      </trkpt>
      <trkpt lat="45.95693" lon="3.65107">
        <ele>885.3277</ele>
        <time>2017-02-22T12:46:50Z</time>
      </trkpt>
      <trkpt lat="45.95705" lon="3.65129">
        <ele>886.42818</ele>
        <time>2017-02-22T12:46:55Z</time>
      </trkpt>
      <trkpt lat="45.95705" lon="3.65141">
        <ele>887.2282</ele>
        <time>2017-02-22T12:47:04Z</time>
      </trkpt>
      <trkpt lat="45.95709" lon="3.65152">
        <ele>887.92834666667</ele>
        <time>2017-02-22T12:47:22Z</time>
      </trkpt>
      <trkpt lat="45.95713" lon="3.65172">
        <ele>888.72853333333</ele>
        <time>2017-02-22T12:47:27Z</time>
      </trkpt>
      <trkpt lat="45.95716" lon="3.65175">
        <ele>889.02865333333</ele>
        <time>2017-02-22T12:47:36Z</time>
      </trkpt>
      <trkpt lat="45.95725" lon="3.65182">
        <ele>889.82900666667</ele>
        <time>2017-02-22T12:47:43Z</time>
      </trkpt>
      <trkpt lat="45.95732" lon="3.65189">
        <ele>892.42928666667</ele>
        <time>2017-02-22T12:48:10Z</time>
      </trkpt>
      <trkpt lat="45.95729" lon="3.65177">
        <ele>893.52916666667</ele>
        <time>2017-02-22T12:48:33Z</time>
      </trkpt>
      <trkpt lat="45.95725" lon="3.65167">
        <ele>893.32898666667</ele>
        <time>2017-02-22T12:48:41Z</time>
      </trkpt>
      <trkpt lat="45.95719" lon="3.65148">
        <ele>893.32876666667</ele>
        <time>2017-02-22T12:48:44Z</time>
      </trkpt>
      <trkpt lat="45.95716" lon="3.65139">
        <ele>893.42865333333</ele>
        <time>2017-02-22T12:48:47Z</time>
      </trkpt>
      <trkpt lat="45.9571" lon="3.65141">
        <ele>895.0284</ele>
        <time>2017-02-22T12:49:18Z</time>
      </trkpt>
      <trkpt lat="45.95718" lon="3.65134">
        <ele>897.72872666667</ele>
        <time>2017-02-22T12:49:21Z</time>
      </trkpt>
      <trkpt lat="45.95719" lon="3.65133">
        <ele>897.72875333333</ele>
        <time>2017-02-22T12:50:14Z</time>
      </trkpt>
      <trkpt lat="45.95727" lon="3.65125">
        <ele>904.42906666667</ele>
        <time>2017-02-22T12:50:18Z</time>
      </trkpt>
      <trkpt lat="45.95727" lon="3.65126">
        <ele>904.52908</ele>
        <time>2017-02-22T12:50:43Z</time>
      </trkpt>
      <trkpt lat="45.95717" lon="3.6513">
        <ele>907.12868666667</ele>
        <time>2017-02-22T12:50:46Z</time>
      </trkpt>
      <trkpt lat="45.95717" lon="3.65131">
        <ele>907.12866</ele>
        <time>2017-02-22T12:51:41Z</time>
      </trkpt>
      <trkpt lat="45.95708" lon="3.65127">
        <ele>913.12832</ele>
        <time>2017-02-22T12:51:45Z</time>
      </trkpt>
      <trkpt lat="45.95706" lon="3.65116">
        <ele>913.12825333333</ele>
        <time>2017-02-22T12:51:58Z</time>
      </trkpt>
      <trkpt lat="45.95675" lon="3.65061">
        <ele>911.92698</ele>
        <time>2017-02-22T12:52:03Z</time>
      </trkpt>
      <trkpt lat="45.95663" lon="3.65044">
        <ele>911.42650666667</ele>
        <time>2017-02-22T12:52:08Z</time>
      </trkpt>
      <trkpt lat="45.95648" lon="3.65028">
        <ele>910.82591333333</ele>
        <time>2017-02-22T12:52:13Z</time>
      </trkpt>
      <trkpt lat="45.95634" lon="3.65015">
        <ele>910.32534</ele>
        <time>2017-02-22T12:52:16Z</time>
      </trkpt>
      <trkpt lat="45.95624" lon="3.6501">
        <ele>909.82496666667</ele>
        <time>2017-02-22T12:52:20Z</time>
      </trkpt>
      <trkpt lat="45.95623" lon="3.65002">
        <ele>908.92490666667</ele>
        <time>2017-02-22T12:52:26Z</time>
      </trkpt>
      <trkpt lat="45.95627" lon="3.64992">
        <ele>907.52506666667</ele>
        <time>2017-02-22T12:52:33Z</time>
      </trkpt>
      <trkpt lat="45.95633" lon="3.64991">
        <ele>906.52531333333</ele>
        <time>2017-02-22T12:52:37Z</time>
      </trkpt>
      <trkpt lat="45.95642" lon="3.64993">
        <ele>905.42566</ele>
        <time>2017-02-22T12:52:41Z</time>
      </trkpt>
      <trkpt lat="45.95648" lon="3.64995">
        <ele>904.92591333333</ele>
        <time>2017-02-22T12:52:46Z</time>
      </trkpt>
      <trkpt lat="45.95652" lon="3.64997">
        <ele>904.32607333333</ele>
        <time>2017-02-22T12:52:46Z</time>
      </trkpt>
      <trkpt lat="45.95665" lon="3.65003">
        <ele>898.42661333333</ele>
        <time>2017-02-22T12:52:59Z</time>
      </trkpt>
      <trkpt lat="45.95679" lon="3.65005">
        <ele>895.62717333333</ele>
        <time>2017-02-22T12:53:04Z</time>
      </trkpt>
      <trkpt lat="45.95688" lon="3.65006">
        <ele>893.22750666667</ele>
        <time>2017-02-22T12:53:07Z</time>
      </trkpt>
      <trkpt lat="45.9569" lon="3.65007">
        <ele>892.7276</ele>
        <time>2017-02-22T12:53:20Z</time>
      </trkpt>
      <trkpt lat="45.95729" lon="3.65027">
        <ele>884.02916</ele>
        <time>2017-02-22T12:53:25Z</time>
      </trkpt>
      <trkpt lat="45.9574" lon="3.65036">
        <ele>882.72958666667</ele>
        <time>2017-02-22T12:53:29Z</time>
      </trkpt>
      <trkpt lat="45.95754" lon="3.65039">
        <ele>882.33014</ele>
        <time>2017-02-22T12:53:34Z</time>
      </trkpt>
      <trkpt lat="45.95762" lon="3.65039">
        <ele>881.03046</ele>
        <time>2017-02-22T12:53:37Z</time>
      </trkpt>
      <trkpt lat="45.95777" lon="3.65056">
        <ele>875.13109333333</ele>
        <time>2017-02-22T12:53:49Z</time>
      </trkpt>
      <trkpt lat="45.95779" lon="3.6506">
        <ele>873.83114</ele>
        <time>2017-02-22T12:53:53Z</time>
      </trkpt>
      <trkpt lat="45.9578" lon="3.65069">
        <ele>871.13118666667</ele>
        <time>2017-02-22T12:54:00Z</time>
      </trkpt>
      <trkpt lat="45.95785" lon="3.65077">
        <ele>868.93138666667</ele>
        <time>2017-02-22T12:54:07Z</time>
      </trkpt>
      <trkpt lat="45.95792" lon="3.65075">
        <ele>867.73168666667</ele>
        <time>2017-02-22T12:54:20Z</time>
      </trkpt>
      <trkpt lat="45.95803" lon="3.65079">
        <ele>866.7321</ele>
        <time>2017-02-22T12:54:33Z</time>
      </trkpt>
      <trkpt lat="45.95811" lon="3.65083">
        <ele>868.33244666667</ele>
        <time>2017-02-22T12:54:37Z</time>
      </trkpt>
      <trkpt lat="45.95836" lon="3.65094">
        <ele>873.33343333333</ele>
        <time>2017-02-22T12:54:41Z</time>
      </trkpt>
      <trkpt lat="45.95836" lon="3.65094">
        <ele>873.33343333333</ele>
        <time>2017-02-22T12:54:45Z</time>
      </trkpt>
      <trkpt lat="45.9585" lon="3.65092">
        <ele>877.23398666667</ele>
        <time>2017-02-22T12:54:49Z</time>
      </trkpt>
      <trkpt lat="45.95854" lon="3.65103">
        <ele>878.73414</ele>
        <time>2017-02-22T12:55:06Z</time>
      </trkpt>
      <trkpt lat="45.95854" lon="3.65112">
        <ele>878.53414666667</ele>
        <time>2017-02-22T12:55:21Z</time>
      </trkpt>
      <trkpt lat="45.95865" lon="3.65137">
        <ele>877.73458666667</ele>
        <time>2017-02-22T12:55:26Z</time>
      </trkpt>
      <trkpt lat="45.95871" lon="3.65145">
        <ele>877.63482666667</ele>
        <time>2017-02-22T12:55:33Z</time>
      </trkpt>
      <trkpt lat="45.95876" lon="3.65154">
        <ele>878.03504666667</ele>
        <time>2017-02-22T12:55:41Z</time>
      </trkpt>
      <trkpt lat="45.95882" lon="3.65164">
        <ele>878.33526</ele>
        <time>2017-02-22T12:55:48Z</time>
      </trkpt>
      <trkpt lat="45.95883" lon="3.65167">
        <ele>878.3353</ele>
        <time>2017-02-22T12:55:52Z</time>
      </trkpt>
      <trkpt lat="45.95887" lon="3.65176">
        <ele>878.33547333333</ele>
        <time>2017-02-22T12:56:00Z</time>
      </trkpt>
      <trkpt lat="45.95892" lon="3.65183">
        <ele>878.73567333333</ele>
        <time>2017-02-22T12:56:07Z</time>
      </trkpt>
      <trkpt lat="45.95896" lon="3.65189">
        <ele>878.63585333333</ele>
        <time>2017-02-22T12:56:12Z</time>
      </trkpt>
      <trkpt lat="45.95901" lon="3.65199">
        <ele>878.53605333333</ele>
        <time>2017-02-22T12:56:20Z</time>
      </trkpt>
      <trkpt lat="45.95906" lon="3.65202">
        <ele>878.53622666667</ele>
        <time>2017-02-22T12:56:26Z</time>
      </trkpt>
      <trkpt lat="45.95914" lon="3.65205">
        <ele>878.73655333333</ele>
        <time>2017-02-22T12:56:34Z</time>
      </trkpt>
      <trkpt lat="45.95921" lon="3.6521">
        <ele>878.53684666667</ele>
        <time>2017-02-22T12:56:40Z</time>
      </trkpt>
      <trkpt lat="45.95926" lon="3.65214">
        <ele>878.43704</ele>
        <time>2017-02-22T12:56:42Z</time>
      </trkpt>
      <trkpt lat="45.9593" lon="3.65217">
        <ele>878.43719333333</ele>
        <time>2017-02-22T12:56:55Z</time>
      </trkpt>
      <trkpt lat="45.95938" lon="3.65224">
        <ele>878.1375</ele>
        <time>2017-02-22T12:56:55Z</time>
      </trkpt>
      <trkpt lat="45.95983" lon="3.65231">
        <ele>883.83930666667</ele>
        <time>2017-02-22T12:57:00Z</time>
      </trkpt>
      <trkpt lat="45.95992" lon="3.65234">
        <ele>885.83969333333</ele>
        <time>2017-02-22T12:57:03Z</time>
      </trkpt>
      <trkpt lat="45.95999" lon="3.65237">
        <ele>887.93996666667</ele>
        <time>2017-02-22T12:57:15Z</time>
      </trkpt>
      <trkpt lat="45.9601" lon="3.65246">
        <ele>893.4404</ele>
        <time>2017-02-22T12:57:28Z</time>
      </trkpt>
      <trkpt lat="45.96016" lon="3.65255">
        <ele>894.74062666667</ele>
        <time>2017-02-22T12:57:37Z</time>
      </trkpt>
      <trkpt lat="45.96034" lon="3.65266">
        <ele>897.34136666667</ele>
        <time>2017-02-22T12:57:50Z</time>
      </trkpt>
      <trkpt lat="45.96042" lon="3.6527">
        <ele>898.84166666667</ele>
        <time>2017-02-22T12:57:56Z</time>
      </trkpt>
      <trkpt lat="45.96048" lon="3.65275">
        <ele>899.4419</ele>
        <time>2017-02-22T12:58:00Z</time>
      </trkpt>
      <trkpt lat="45.96056" lon="3.65277">
        <ele>900.34224</ele>
        <time>2017-02-22T12:58:04Z</time>
      </trkpt>
      <trkpt lat="45.96063" lon="3.65278">
        <ele>900.84252</ele>
        <time>2017-02-22T12:58:09Z</time>
      </trkpt>
      <trkpt lat="45.96069" lon="3.65285">
        <ele>901.94277333333</ele>
        <time>2017-02-22T12:58:15Z</time>
      </trkpt>
      <trkpt lat="45.9607" lon="3.65289">
        <ele>902.0428</ele>
        <time>2017-02-22T12:58:17Z</time>
      </trkpt>
      <trkpt lat="45.96076" lon="3.65297">
        <ele>902.74303333333</ele>
        <time>2017-02-22T12:58:25Z</time>
      </trkpt>
      <trkpt lat="45.96084" lon="3.65302">
        <ele>903.34336666667</ele>
        <time>2017-02-22T12:58:35Z</time>
      </trkpt>
      <trkpt lat="45.96087" lon="3.65314">
        <ele>904.74346</ele>
        <time>2017-02-22T12:58:47Z</time>
      </trkpt>
      <trkpt lat="45.96087" lon="3.65323">
        <ele>905.54348</ele>
        <time>2017-02-22T12:59:00Z</time>
      </trkpt>
      <trkpt lat="45.96087" lon="3.65328">
        <ele>905.24348666667</ele>
        <time>2017-02-22T12:59:19Z</time>
      </trkpt>
      <trkpt lat="45.96101" lon="3.65328">
        <ele>904.34402666667</ele>
        <time>2017-02-22T12:59:23Z</time>
      </trkpt>
      <trkpt lat="45.96101" lon="3.65328">
        <ele>904.34402666667</ele>
        <time>2017-02-22T12:59:27Z</time>
      </trkpt>
      <trkpt lat="45.96111" lon="3.65329">
        <ele>903.84443333333</ele>
        <time>2017-02-22T12:59:31Z</time>
      </trkpt>
      <trkpt lat="45.96111" lon="3.65329">
        <ele>903.94444</ele>
        <time>2017-02-22T12:59:45Z</time>
      </trkpt>
      <trkpt lat="45.96121" lon="3.65333">
        <ele>904.54482666667</ele>
        <time>2017-02-22T12:59:49Z</time>
      </trkpt>
      <trkpt lat="45.96121" lon="3.65346">
        <ele>906.34482</ele>
        <time>2017-02-22T13:00:05Z</time>
      </trkpt>
      <trkpt lat="45.96121" lon="3.65351">
        <ele>907.74484666667</ele>
        <time>2017-02-22T13:00:12Z</time>
      </trkpt>
      <trkpt lat="45.96117" lon="3.65362">
        <ele>908.74469333333</ele>
        <time>2017-02-22T13:00:12Z</time>
      </trkpt>
      <trkpt lat="45.96123" lon="3.65404">
        <ele>917.5449</ele>
        <time>2017-02-22T13:00:25Z</time>
      </trkpt>
      <trkpt lat="45.96122" lon="3.65417">
        <ele>920.04487333333</ele>
        <time>2017-02-22T13:00:33Z</time>
      </trkpt>
      <trkpt lat="45.96123" lon="3.65427">
        <ele>921.84492</ele>
        <time>2017-02-22T13:00:38Z</time>
      </trkpt>
      <trkpt lat="45.96122" lon="3.6543">
        <ele>922.24489333333</ele>
        <time>2017-02-22T13:00:51Z</time>
      </trkpt>
      <trkpt lat="45.96116" lon="3.65448">
        <ele>923.64464</ele>
        <time>2017-02-22T13:00:51Z</time>
      </trkpt>
      <trkpt lat="45.96108" lon="3.65469">
        <ele>924.94432666667</ele>
        <time>2017-02-22T13:01:00Z</time>
      </trkpt>
      <trkpt lat="45.96105" lon="3.65475">
        <ele>925.84419333333</ele>
        <time>2017-02-22T13:01:04Z</time>
      </trkpt>
      <trkpt lat="45.96103" lon="3.65483">
        <ele>927.5441</ele>
        <time>2017-02-22T13:01:06Z</time>
      </trkpt>
      <trkpt lat="45.96097" lon="3.65492">
        <ele>929.94386</ele>
        <time>2017-02-22T13:01:13Z</time>
      </trkpt>
      <trkpt lat="45.96095" lon="3.65494">
        <ele>930.5438</ele>
        <time>2017-02-22T13:01:26Z</time>
      </trkpt>
      <trkpt lat="45.96086" lon="3.65503">
        <ele>932.84342666667</ele>
        <time>2017-02-22T13:01:26Z</time>
      </trkpt>
      <trkpt lat="45.9607" lon="3.65514">
        <ele>934.74280666667</ele>
        <time>2017-02-22T13:01:35Z</time>
      </trkpt>
      <trkpt lat="45.96062" lon="3.65521">
        <ele>935.34248666667</ele>
        <time>2017-02-22T13:01:39Z</time>
      </trkpt>
      <trkpt lat="45.96055" lon="3.65523">
        <ele>936.2422</ele>
        <time>2017-02-22T13:01:54Z</time>
      </trkpt>
      <trkpt lat="45.96037" lon="3.65522">
        <ele>938.64149333333</ele>
        <time>2017-02-22T13:01:56Z</time>
      </trkpt>
      <trkpt lat="45.9603" lon="3.65521">
        <ele>940.04119333333</ele>
        <time>2017-02-22T13:02:03Z</time>
      </trkpt>
      <trkpt lat="45.96021" lon="3.65517">
        <ele>941.34085333333</ele>
        <time>2017-02-22T13:02:06Z</time>
      </trkpt>
      <trkpt lat="45.96014" lon="3.65511">
        <ele>942.94056</ele>
        <time>2017-02-22T13:02:14Z</time>
      </trkpt>
      <trkpt lat="45.96006" lon="3.65514">
        <ele>944.44022666667</ele>
        <time>2017-02-22T13:02:19Z</time>
      </trkpt>
      <trkpt lat="45.95997" lon="3.65517">
        <ele>945.33988</ele>
        <time>2017-02-22T13:02:24Z</time>
      </trkpt>
      <trkpt lat="45.95994" lon="3.65521">
        <ele>945.83974</ele>
        <time>2017-02-22T13:02:27Z</time>
      </trkpt>
      <trkpt lat="45.95978" lon="3.65523">
        <ele>947.4391</ele>
        <time>2017-02-22T13:02:35Z</time>
      </trkpt>
      <trkpt lat="45.95974" lon="3.65523">
        <ele>947.63896</ele>
        <time>2017-02-22T13:02:37Z</time>
      </trkpt>
      <trkpt lat="45.95964" lon="3.65523">
        <ele>949.03857333333</ele>
        <time>2017-02-22T13:02:46Z</time>
      </trkpt>
      <trkpt lat="45.95955" lon="3.65526">
        <ele>950.33821333333</ele>
        <time>2017-02-22T13:02:51Z</time>
      </trkpt>
      <trkpt lat="45.95947" lon="3.65528">
        <ele>952.23789333333</ele>
        <time>2017-02-22T13:02:59Z</time>
      </trkpt>
      <trkpt lat="45.95939" lon="3.65532">
        <ele>953.03756666667</ele>
        <time>2017-02-22T13:03:04Z</time>
      </trkpt>
      <trkpt lat="45.95928" lon="3.65534">
        <ele>954.83712666667</ele>
        <time>2017-02-22T13:03:08Z</time>
      </trkpt>
      <trkpt lat="45.95922" lon="3.65543">
        <ele>955.73688</ele>
        <time>2017-02-22T13:03:19Z</time>
      </trkpt>
      <trkpt lat="45.95905" lon="3.65565">
        <ele>956.93619333333</ele>
        <time>2017-02-22T13:03:24Z</time>
      </trkpt>
      <trkpt lat="45.95898" lon="3.65572">
        <ele>957.33592</ele>
        <time>2017-02-22T13:03:28Z</time>
      </trkpt>
      <trkpt lat="45.95891" lon="3.65579">
        <ele>958.23562666667</ele>
        <time>2017-02-22T13:03:35Z</time>
      </trkpt>
      <trkpt lat="45.95886" lon="3.65588">
        <ele>958.83542</ele>
        <time>2017-02-22T13:03:37Z</time>
      </trkpt>
      <trkpt lat="45.95874" lon="3.65603">
        <ele>960.13497333333</ele>
        <time>2017-02-22T13:03:44Z</time>
      </trkpt>
      <trkpt lat="45.95853" lon="3.65625">
        <ele>962.83412666667</ele>
        <time>2017-02-22T13:03:57Z</time>
      </trkpt>
      <trkpt lat="45.95845" lon="3.65627">
        <ele>963.23381333333</ele>
        <time>2017-02-22T13:04:02Z</time>
      </trkpt>
      <trkpt lat="45.95835" lon="3.65632">
        <ele>963.73338</ele>
        <time>2017-02-22T13:04:07Z</time>
      </trkpt>
      <trkpt lat="45.95825" lon="3.65642">
        <ele>963.93300666667</ele>
        <time>2017-02-22T13:04:11Z</time>
      </trkpt>
      <trkpt lat="45.95817" lon="3.65639">
        <ele>964.43268</ele>
        <time>2017-02-22T13:04:15Z</time>
      </trkpt>
      <trkpt lat="45.95809" lon="3.65638">
        <ele>965.83237333333</ele>
        <time>2017-02-22T13:04:20Z</time>
      </trkpt>
      <trkpt lat="45.95808" lon="3.65638">
        <ele>965.93232</ele>
        <time>2017-02-22T13:04:27Z</time>
      </trkpt>
      <trkpt lat="45.958" lon="3.65644">
        <ele>966.83200666667</ele>
        <time>2017-02-22T13:04:27Z</time>
      </trkpt>
      <trkpt lat="45.95791" lon="3.65648">
        <ele>967.93163333333</ele>
        <time>2017-02-22T13:04:35Z</time>
      </trkpt>
      <trkpt lat="45.95782" lon="3.65651">
        <ele>968.63129333333</ele>
        <time>2017-02-22T13:04:41Z</time>
      </trkpt>
      <trkpt lat="45.95775" lon="3.65657">
        <ele>968.93099333333</ele>
        <time>2017-02-22T13:04:47Z</time>
      </trkpt>
      <trkpt lat="45.95767" lon="3.65663">
        <ele>969.23066666667</ele>
        <time>2017-02-22T13:04:54Z</time>
      </trkpt>
      <trkpt lat="45.95752" lon="3.65669">
        <ele>970.13008666667</ele>
        <time>2017-02-22T13:04:57Z</time>
      </trkpt>
      <trkpt lat="45.95746" lon="3.65671">
        <ele>971.22982666667</ele>
        <time>2017-02-22T13:05:02Z</time>
      </trkpt>
      <trkpt lat="45.95734" lon="3.6568">
        <ele>972.32934666667</ele>
        <time>2017-02-22T13:05:07Z</time>
      </trkpt>
      <trkpt lat="45.95718" lon="3.65687">
        <ele>974.02873333333</ele>
        <time>2017-02-22T13:05:18Z</time>
      </trkpt>
      <trkpt lat="45.9571" lon="3.65691">
        <ele>975.7284</ele>
        <time>2017-02-22T13:05:25Z</time>
      </trkpt>
      <trkpt lat="45.95702" lon="3.65697">
        <ele>976.62808</ele>
        <time>2017-02-22T13:05:29Z</time>
      </trkpt>
      <trkpt lat="45.95697" lon="3.65701">
        <ele>977.62788</ele>
        <time>2017-02-22T13:05:33Z</time>
      </trkpt>
      <trkpt lat="45.95686" lon="3.65714">
        <ele>979.22742666667</ele>
        <time>2017-02-22T13:05:36Z</time>
      </trkpt>
      <trkpt lat="45.95679" lon="3.65723">
        <ele>980.32716</ele>
        <time>2017-02-22T13:05:40Z</time>
      </trkpt>
      <trkpt lat="45.95673" lon="3.65727">
        <ele>981.02691333333</ele>
        <time>2017-02-22T13:05:44Z</time>
      </trkpt>
      <trkpt lat="45.95665" lon="3.65732">
        <ele>981.2266</ele>
        <time>2017-02-22T13:05:51Z</time>
      </trkpt>
      <trkpt lat="45.95655" lon="3.65746">
        <ele>981.3262</ele>
        <time>2017-02-22T13:05:55Z</time>
      </trkpt>
      <trkpt lat="45.95651" lon="3.65752">
        <ele>981.42604</ele>
        <time>2017-02-22T13:06:00Z</time>
      </trkpt>
      <trkpt lat="45.95641" lon="3.6577">
        <ele>981.22565333333</ele>
        <time>2017-02-22T13:06:04Z</time>
      </trkpt>
      <trkpt lat="45.95638" lon="3.65779">
        <ele>981.22552</ele>
        <time>2017-02-22T13:06:07Z</time>
      </trkpt>
      <trkpt lat="45.95633" lon="3.6579">
        <ele>981.52533333333</ele>
        <time>2017-02-22T13:06:11Z</time>
      </trkpt>
      <trkpt lat="45.95625" lon="3.65805">
        <ele>981.725</ele>
        <time>2017-02-22T13:06:14Z</time>
      </trkpt>
      <trkpt lat="45.95623" lon="3.65816">
        <ele>981.82491333333</ele>
        <time>2017-02-22T13:06:18Z</time>
      </trkpt>
      <trkpt lat="45.9562" lon="3.65827">
        <ele>981.72480666667</ele>
        <time>2017-02-22T13:06:21Z</time>
      </trkpt>
      <trkpt lat="45.95618" lon="3.65835">
        <ele>981.32471333333</ele>
        <time>2017-02-22T13:06:24Z</time>
      </trkpt>
      <trkpt lat="45.9561" lon="3.65853">
        <ele>981.42438</ele>
        <time>2017-02-22T13:06:28Z</time>
      </trkpt>
      <trkpt lat="45.95604" lon="3.65883">
        <ele>981.52414666667</ele>
        <time>2017-02-22T13:06:35Z</time>
      </trkpt>
      <trkpt lat="45.95603" lon="3.65895">
        <ele>981.52411333333</ele>
        <time>2017-02-22T13:06:50Z</time>
      </trkpt>
      <trkpt lat="45.95597" lon="3.65916">
        <ele>982.02388666667</ele>
        <time>2017-02-22T13:06:50Z</time>
      </trkpt>
      <trkpt lat="45.95597" lon="3.65916">
        <ele>982.02388666667</ele>
        <time>2017-02-22T13:07:10Z</time>
      </trkpt>
      <trkpt lat="45.95608" lon="3.65921">
        <ele>985.12431333333</ele>
        <time>2017-02-22T13:07:23Z</time>
      </trkpt>
      <trkpt lat="45.95609" lon="3.65911">
        <ele>986.42434</ele>
        <time>2017-02-22T13:07:44Z</time>
      </trkpt>
      <trkpt lat="45.95606" lon="3.65919">
        <ele>986.72423333333</ele>
        <time>2017-02-22T13:07:56Z</time>
      </trkpt>
      <trkpt lat="45.95627" lon="3.65928">
        <ele>987.32508666667</ele>
        <time>2017-02-22T13:08:00Z</time>
      </trkpt>
      <trkpt lat="45.95621" lon="3.65932">
        <ele>987.72484666667</ele>
        <time>2017-02-22T13:08:06Z</time>
      </trkpt>
      <trkpt lat="45.95616" lon="3.65942">
        <ele>987.62465333333</ele>
        <time>2017-02-22T13:08:10Z</time>
      </trkpt>
      <trkpt lat="45.95614" lon="3.65949">
        <ele>987.62457333333</ele>
        <time>2017-02-22T13:08:23Z</time>
      </trkpt>
      <trkpt lat="45.95612" lon="3.65972">
        <ele>987.62446</ele>
        <time>2017-02-22T13:08:23Z</time>
      </trkpt>
      <trkpt lat="45.95614" lon="3.65982">
        <ele>988.72456</ele>
        <time>2017-02-22T13:08:45Z</time>
      </trkpt>
      <trkpt lat="45.95614" lon="3.65992">
        <ele>988.72454666667</ele>
        <time>2017-02-22T13:08:48Z</time>
      </trkpt>
      <trkpt lat="45.95613" lon="3.66004">
        <ele>988.82452666667</ele>
        <time>2017-02-22T13:08:52Z</time>
      </trkpt>
      <trkpt lat="45.95609" lon="3.66028">
        <ele>989.22437333333</ele>
        <time>2017-02-22T13:08:56Z</time>
      </trkpt>
      <trkpt lat="45.95606" lon="3.66047">
        <ele>989.42422</ele>
        <time>2017-02-22T13:09:00Z</time>
      </trkpt>
      <trkpt lat="45.95607" lon="3.66058">
        <ele>989.42426</ele>
        <time>2017-02-22T13:09:05Z</time>
      </trkpt>
      <trkpt lat="45.95608" lon="3.66075">
        <ele>988.92431333333</ele>
        <time>2017-02-22T13:09:09Z</time>
      </trkpt>
      <trkpt lat="45.95609" lon="3.6609">
        <ele>988.42434</ele>
        <time>2017-02-22T13:09:13Z</time>
      </trkpt>
      <trkpt lat="45.9561" lon="3.66099">
        <ele>988.22439333333</ele>
        <time>2017-02-22T13:09:16Z</time>
      </trkpt>
      <trkpt lat="45.95614" lon="3.66116">
        <ele>987.82457333333</ele>
        <time>2017-02-22T13:09:21Z</time>
      </trkpt>
      <trkpt lat="45.95611" lon="3.66175">
        <ele>988.12444666667</ele>
        <time>2017-02-22T13:09:34Z</time>
      </trkpt>
      <trkpt lat="45.95608" lon="3.66184">
        <ele>988.1243</ele>
        <time>2017-02-22T13:09:36Z</time>
      </trkpt>
      <trkpt lat="45.95606" lon="3.66189">
        <ele>988.12422</ele>
        <time>2017-02-22T13:09:43Z</time>
      </trkpt>
      <trkpt lat="45.95604" lon="3.66222">
        <ele>987.82416</ele>
        <time>2017-02-22T13:09:47Z</time>
      </trkpt>
      <trkpt lat="45.95604" lon="3.66232">
        <ele>987.62417333333</ele>
        <time>2017-02-22T13:09:50Z</time>
      </trkpt>
      <trkpt lat="45.95608" lon="3.66245">
        <ele>987.02432</ele>
        <time>2017-02-22T13:09:54Z</time>
      </trkpt>
      <trkpt lat="45.95612" lon="3.66253">
        <ele>986.42449333333</ele>
        <time>2017-02-22T13:09:58Z</time>
      </trkpt>
      <trkpt lat="45.95615" lon="3.66256">
        <ele>986.22460666667</ele>
        <time>2017-02-22T13:10:00Z</time>
      </trkpt>
      <trkpt lat="45.95628" lon="3.66262">
        <ele>986.12510666667</ele>
        <time>2017-02-22T13:10:05Z</time>
      </trkpt>
      <trkpt lat="45.95643" lon="3.66266">
        <ele>985.8257</ele>
        <time>2017-02-22T13:10:09Z</time>
      </trkpt>
      <trkpt lat="45.95651" lon="3.66268">
        <ele>985.82602666667</ele>
        <time>2017-02-22T13:10:11Z</time>
      </trkpt>
      <trkpt lat="45.95662" lon="3.66271">
        <ele>985.32649333333</ele>
        <time>2017-02-22T13:10:15Z</time>
      </trkpt>
      <trkpt lat="45.95673" lon="3.66293">
        <ele>984.82692</ele>
        <time>2017-02-22T13:10:20Z</time>
      </trkpt>
      <trkpt lat="45.95677" lon="3.6631">
        <ele>984.32707333333</ele>
        <time>2017-02-22T13:10:25Z</time>
      </trkpt>
      <trkpt lat="45.95679" lon="3.6632">
        <ele>984.32714666667</ele>
        <time>2017-02-22T13:10:30Z</time>
      </trkpt>
      <trkpt lat="45.95682" lon="3.66333">
        <ele>983.92726666667</ele>
        <time>2017-02-22T13:10:30Z</time>
      </trkpt>
      <trkpt lat="45.95684" lon="3.66359">
        <ele>984.02734</ele>
        <time>2017-02-22T13:10:35Z</time>
      </trkpt>
      <trkpt lat="45.95687" lon="3.66371">
        <ele>983.92748</ele>
        <time>2017-02-22T13:10:38Z</time>
      </trkpt>
      <trkpt lat="45.95691" lon="3.6638">
        <ele>983.52762666667</ele>
        <time>2017-02-22T13:10:49Z</time>
      </trkpt>
      <trkpt lat="45.95698" lon="3.66428">
        <ele>982.72793333333</ele>
        <time>2017-02-22T13:10:54Z</time>
      </trkpt>
      <trkpt lat="45.95695" lon="3.66447">
        <ele>981.92778</ele>
        <time>2017-02-22T13:10:58Z</time>
      </trkpt>
      <trkpt lat="45.95694" lon="3.66454">
        <ele>981.42776</ele>
        <time>2017-02-22T13:11:00Z</time>
      </trkpt>
      <trkpt lat="45.9569" lon="3.66472">
        <ele>981.12761333333</ele>
        <time>2017-02-22T13:11:05Z</time>
      </trkpt>
      <trkpt lat="45.95689" lon="3.66482">
        <ele>980.82754</ele>
        <time>2017-02-22T13:11:07Z</time>
      </trkpt>
      <trkpt lat="45.95685" lon="3.66503">
        <ele>979.62738</ele>
        <time>2017-02-22T13:11:12Z</time>
      </trkpt>
      <trkpt lat="45.95684" lon="3.6651">
        <ele>979.62734</ele>
        <time>2017-02-22T13:11:15Z</time>
      </trkpt>
      <trkpt lat="45.95682" lon="3.66522">
        <ele>979.42726666667</ele>
        <time>2017-02-22T13:11:18Z</time>
      </trkpt>
      <trkpt lat="45.95681" lon="3.66529">
        <ele>979.12722</ele>
        <time>2017-02-22T13:11:20Z</time>
      </trkpt>
      <trkpt lat="45.95676" lon="3.66561">
        <ele>977.62703333333</ele>
        <time>2017-02-22T13:11:30Z</time>
      </trkpt>
      <trkpt lat="45.95675" lon="3.66575">
        <ele>976.92699333333</ele>
        <time>2017-02-22T13:11:35Z</time>
      </trkpt>
      <trkpt lat="45.9567" lon="3.66591">
        <ele>976.22678666667</ele>
        <time>2017-02-22T13:11:40Z</time>
      </trkpt>
      <trkpt lat="45.95666" lon="3.66602">
        <ele>975.92662666667</ele>
        <time>2017-02-22T13:11:45Z</time>
      </trkpt>
      <trkpt lat="45.95671" lon="3.66617">
        <ele>981.52684</ele>
        <time>2017-02-22T13:11:50Z</time>
      </trkpt>
      <trkpt lat="45.95656" lon="3.66628">
        <ele>984.12625333333</ele>
        <time>2017-02-22T13:11:57Z</time>
      </trkpt>
      <trkpt lat="45.95649" lon="3.66632">
        <ele>984.72595333333</ele>
        <time>2017-02-22T13:12:04Z</time>
      </trkpt>
      <trkpt lat="45.95643" lon="3.66638">
        <ele>984.62572</ele>
        <time>2017-02-22T13:12:06Z</time>
      </trkpt>
      <trkpt lat="45.95638" lon="3.66643">
        <ele>984.72552666667</ele>
        <time>2017-02-22T13:12:10Z</time>
      </trkpt>
      <trkpt lat="45.95635" lon="3.66646">
        <ele>984.52541333333</ele>
        <time>2017-02-22T13:12:16Z</time>
      </trkpt>
      <trkpt lat="45.9563" lon="3.66648">
        <ele>983.92518</ele>
        <time>2017-02-22T13:12:16Z</time>
      </trkpt>
      <trkpt lat="45.95595" lon="3.66668">
        <ele>982.02380666667</ele>
        <time>2017-02-22T13:12:29Z</time>
      </trkpt>
      <trkpt lat="45.95585" lon="3.66673">
        <ele>981.42338</ele>
        <time>2017-02-22T13:12:32Z</time>
      </trkpt>
      <trkpt lat="45.95564" lon="3.66688">
        <ele>980.72254666667</ele>
        <time>2017-02-22T13:12:37Z</time>
      </trkpt>
      <trkpt lat="45.95551" lon="3.66697">
        <ele>980.32202</ele>
        <time>2017-02-22T13:12:41Z</time>
      </trkpt>
      <trkpt lat="45.95531" lon="3.66694">
        <ele>980.42124</ele>
        <time>2017-02-22T13:12:46Z</time>
      </trkpt>
      <trkpt lat="45.95515" lon="3.66691">
        <ele>981.12058</ele>
        <time>2017-02-22T13:12:50Z</time>
      </trkpt>
      <trkpt lat="45.9551" lon="3.66692">
        <ele>981.22040666667</ele>
        <time>2017-02-22T13:12:55Z</time>
      </trkpt>
      <trkpt lat="45.95488" lon="3.66695">
        <ele>980.71952</ele>
        <time>2017-02-22T13:13:00Z</time>
      </trkpt>
      <trkpt lat="45.95472" lon="3.667">
        <ele>980.41888666667</ele>
        <time>2017-02-22T13:13:03Z</time>
      </trkpt>
      <trkpt lat="45.95457" lon="3.66703">
        <ele>980.71828666667</ele>
        <time>2017-02-22T13:13:06Z</time>
      </trkpt>
      <trkpt lat="45.95445" lon="3.66699">
        <ele>980.5178</ele>
        <time>2017-02-22T13:13:11Z</time>
      </trkpt>
      <trkpt lat="45.95442" lon="3.66699">
        <ele>980.41767333333</ele>
        <time>2017-02-22T13:13:12Z</time>
      </trkpt>
      <trkpt lat="45.95427" lon="3.66696">
        <ele>980.31708666667</ele>
        <time>2017-02-22T13:13:16Z</time>
      </trkpt>
      <trkpt lat="45.9541" lon="3.66689">
        <ele>980.21638</ele>
        <time>2017-02-22T13:13:21Z</time>
      </trkpt>
      <trkpt lat="45.95404" lon="3.66689">
        <ele>980.11616666667</ele>
        <time>2017-02-22T13:13:23Z</time>
      </trkpt>
      <trkpt lat="45.95395" lon="3.66685">
        <ele>979.91580666667</ele>
        <time>2017-02-22T13:13:26Z</time>
      </trkpt>
      <trkpt lat="45.95379" lon="3.66686">
        <ele>980.11516</ele>
        <time>2017-02-22T13:13:31Z</time>
      </trkpt>
      <trkpt lat="45.95365" lon="3.66682">
        <ele>979.91459333333</ele>
        <time>2017-02-22T13:13:35Z</time>
      </trkpt>
      <trkpt lat="45.9535" lon="3.66677">
        <ele>979.81398666667</ele>
        <time>2017-02-22T13:13:38Z</time>
      </trkpt>
      <trkpt lat="45.95344" lon="3.66675">
        <ele>979.71374</ele>
        <time>2017-02-22T13:13:40Z</time>
      </trkpt>
      <trkpt lat="45.95305" lon="3.66648">
        <ele>979.41221333333</ele>
        <time>2017-02-22T13:13:53Z</time>
      </trkpt>
      <trkpt lat="45.9529" lon="3.66636">
        <ele>979.01159333333</ele>
        <time>2017-02-22T13:13:58Z</time>
      </trkpt>
      <trkpt lat="45.95272" lon="3.66627">
        <ele>978.51086666667</ele>
        <time>2017-02-22T13:14:03Z</time>
      </trkpt>
      <trkpt lat="45.95257" lon="3.66614">
        <ele>978.71026</ele>
        <time>2017-02-22T13:14:06Z</time>
      </trkpt>
      <trkpt lat="45.95236" lon="3.66574">
        <ele>979.70945333333</ele>
        <time>2017-02-22T13:14:14Z</time>
      </trkpt>
      <trkpt lat="45.95225" lon="3.66558">
        <ele>980.30900666667</ele>
        <time>2017-02-22T13:14:18Z</time>
      </trkpt>
      <trkpt lat="45.95217" lon="3.6655">
        <ele>980.30867333333</ele>
        <time>2017-02-22T13:14:21Z</time>
      </trkpt>
      <trkpt lat="45.95206" lon="3.66535">
        <ele>979.80825333333</ele>
        <time>2017-02-22T13:14:25Z</time>
      </trkpt>
      <trkpt lat="45.95197" lon="3.66513">
        <ele>979.60786</ele>
        <time>2017-02-22T13:14:30Z</time>
      </trkpt>
      <trkpt lat="45.95192" lon="3.66501">
        <ele>979.80766</ele>
        <time>2017-02-22T13:14:33Z</time>
      </trkpt>
      <trkpt lat="45.95178" lon="3.66471">
        <ele>980.50712666667</ele>
        <time>2017-02-22T13:14:36Z</time>
      </trkpt>
      <trkpt lat="45.95169" lon="3.6645">
        <ele>980.20675333333</ele>
        <time>2017-02-22T13:14:40Z</time>
      </trkpt>
      <trkpt lat="45.95155" lon="3.6643">
        <ele>979.90618666667</ele>
        <time>2017-02-22T13:14:45Z</time>
      </trkpt>
      <trkpt lat="45.95146" lon="3.66417">
        <ele>979.40584</ele>
        <time>2017-02-22T13:14:50Z</time>
      </trkpt>
      <trkpt lat="45.95121" lon="3.66381">
        <ele>978.80484666667</ele>
        <time>2017-02-22T13:14:52Z</time>
      </trkpt>
      <trkpt lat="45.95102" lon="3.66347">
        <ele>978.20409333333</ele>
        <time>2017-02-22T13:14:59Z</time>
      </trkpt>
      <trkpt lat="45.95081" lon="3.66325">
        <ele>978.10322</ele>
        <time>2017-02-22T13:15:01Z</time>
      </trkpt>
      <trkpt lat="45.95061" lon="3.66316">
        <ele>977.50244</ele>
        <time>2017-02-22T13:15:05Z</time>
      </trkpt>
      <trkpt lat="45.95044" lon="3.66321">
        <ele>976.80174</ele>
        <time>2017-02-22T13:15:09Z</time>
      </trkpt>
      <trkpt lat="45.95023" lon="3.66333">
        <ele>976.10092</ele>
        <time>2017-02-22T13:15:12Z</time>
      </trkpt>
      <trkpt lat="45.94999" lon="3.66346">
        <ele>975.29995333333</ele>
        <time>2017-02-22T13:15:16Z</time>
      </trkpt>
      <trkpt lat="45.94987" lon="3.6635">
        <ele>974.69948666667</ele>
        <time>2017-02-22T13:15:18Z</time>
      </trkpt>
      <trkpt lat="45.94962" lon="3.66347">
        <ele>973.19849333333</ele>
        <time>2017-02-22T13:15:23Z</time>
      </trkpt>
      <trkpt lat="45.94943" lon="3.66348">
        <ele>973.7977</ele>
        <time>2017-02-22T13:15:27Z</time>
      </trkpt>
      <trkpt lat="45.94927" lon="3.66343">
        <ele>973.59708666667</ele>
        <time>2017-02-22T13:15:32Z</time>
      </trkpt>
      <trkpt lat="45.94912" lon="3.6632">
        <ele>973.19647333333</ele>
        <time>2017-02-22T13:15:36Z</time>
      </trkpt>
      <trkpt lat="45.94899" lon="3.66297">
        <ele>972.99594666667</ele>
        <time>2017-02-22T13:15:40Z</time>
      </trkpt>
      <trkpt lat="45.94891" lon="3.66283">
        <ele>972.69562666667</ele>
        <time>2017-02-22T13:15:50Z</time>
      </trkpt>
      <trkpt lat="45.94862" lon="3.66235">
        <ele>973.09446</ele>
        <time>2017-02-22T13:15:50Z</time>
      </trkpt>
      <trkpt lat="45.94822" lon="3.66183">
        <ele>973.09286</ele>
        <time>2017-02-22T13:15:56Z</time>
      </trkpt>
      <trkpt lat="45.94788" lon="3.66153">
        <ele>972.69150666667</ele>
        <time>2017-02-22T13:16:00Z</time>
      </trkpt>
      <trkpt lat="45.94739" lon="3.66121">
        <ele>971.78954666667</ele>
        <time>2017-02-22T13:16:05Z</time>
      </trkpt>
      <trkpt lat="45.94703" lon="3.6611">
        <ele>971.5881</ele>
        <time>2017-02-22T13:16:09Z</time>
      </trkpt>
      <trkpt lat="45.94674" lon="3.66129">
        <ele>970.88694</ele>
        <time>2017-02-22T13:16:13Z</time>
      </trkpt>
      <trkpt lat="45.94664" lon="3.6614">
        <ele>970.28654</ele>
        <time>2017-02-22T13:16:18Z</time>
      </trkpt>
      <trkpt lat="45.94634" lon="3.66191">
        <ele>967.98534</ele>
        <time>2017-02-22T13:16:22Z</time>
      </trkpt>
      <trkpt lat="45.94613" lon="3.66178">
        <ele>967.78452</ele>
        <time>2017-02-22T13:16:31Z</time>
      </trkpt>
      <trkpt lat="45.94613" lon="3.66137">
        <ele>966.58452666667</ele>
        <time>2017-02-22T13:16:35Z</time>
      </trkpt>
      <trkpt lat="45.94609" lon="3.6612">
        <ele>965.68436</ele>
        <time>2017-02-22T13:16:37Z</time>
      </trkpt>
      <trkpt lat="45.94583" lon="3.66076">
        <ele>963.78330666667</ele>
        <time>2017-02-22T13:16:42Z</time>
      </trkpt>
      <trkpt lat="45.94549" lon="3.66027">
        <ele>962.48196666667</ele>
        <time>2017-02-22T13:16:47Z</time>
      </trkpt>
      <trkpt lat="45.94511" lon="3.65971">
        <ele>960.98045333333</ele>
        <time>2017-02-22T13:16:51Z</time>
      </trkpt>
      <trkpt lat="45.94492" lon="3.65935">
        <ele>959.77969333333</ele>
        <time>2017-02-22T13:16:55Z</time>
      </trkpt>
      <trkpt lat="45.94475" lon="3.65891">
        <ele>958.47901333333</ele>
        <time>2017-02-22T13:16:58Z</time>
      </trkpt>
      <trkpt lat="45.94463" lon="3.65865">
        <ele>957.47853333333</ele>
        <time>2017-02-22T13:17:00Z</time>
      </trkpt>
      <trkpt lat="45.94434" lon="3.65831">
        <ele>956.27737333333</ele>
        <time>2017-02-22T13:17:04Z</time>
      </trkpt>
      <trkpt lat="45.94409" lon="3.65806">
        <ele>954.17634</ele>
        <time>2017-02-22T13:17:06Z</time>
      </trkpt>
      <trkpt lat="45.94373" lon="3.6577">
        <ele>950.57491333333</ele>
        <time>2017-02-22T13:17:12Z</time>
      </trkpt>
      <trkpt lat="45.94311" lon="3.65641">
        <ele>940.07242666667</ele>
        <time>2017-02-22T13:17:25Z</time>
      </trkpt>
      <trkpt lat="45.9428" lon="3.65597">
        <ele>937.6712</ele>
        <time>2017-02-22T13:17:30Z</time>
      </trkpt>
      <trkpt lat="45.94261" lon="3.65574">
        <ele>936.07042</ele>
        <time>2017-02-22T13:17:33Z</time>
      </trkpt>
      <trkpt lat="45.94231" lon="3.65559">
        <ele>932.56922</ele>
        <time>2017-02-22T13:17:37Z</time>
      </trkpt>
      <trkpt lat="45.94197" lon="3.65559">
        <ele>930.86788666667</ele>
        <time>2017-02-22T13:17:40Z</time>
      </trkpt>
      <trkpt lat="45.94176" lon="3.65552">
        <ele>929.16702</ele>
        <time>2017-02-22T13:17:44Z</time>
      </trkpt>
      <trkpt lat="45.94161" lon="3.65546">
        <ele>928.16645333333</ele>
        <time>2017-02-22T13:17:46Z</time>
      </trkpt>
      <trkpt lat="45.94131" lon="3.65516">
        <ele>926.06522666667</ele>
        <time>2017-02-22T13:17:50Z</time>
      </trkpt>
      <trkpt lat="45.94105" lon="3.65492">
        <ele>922.5642</ele>
        <time>2017-02-22T13:17:53Z</time>
      </trkpt>
      <trkpt lat="45.94055" lon="3.65435">
        <ele>917.66218666667</ele>
        <time>2017-02-22T13:18:00Z</time>
      </trkpt>
      <trkpt lat="45.94013" lon="3.65388">
        <ele>914.0605</ele>
        <time>2017-02-22T13:18:05Z</time>
      </trkpt>
      <trkpt lat="45.94003" lon="3.65383">
        <ele>911.3601</ele>
        <time>2017-02-22T13:18:08Z</time>
      </trkpt>
      <trkpt lat="45.94002" lon="3.65388">
        <ele>910.16008666667</ele>
        <time>2017-02-22T13:18:10Z</time>
      </trkpt>
      <trkpt lat="45.93999" lon="3.65408">
        <ele>902.95995333333</ele>
        <time>2017-02-22T13:18:19Z</time>
      </trkpt>
      <trkpt lat="45.93998" lon="3.65431">
        <ele>897.9599</ele>
        <time>2017-02-22T13:18:23Z</time>
      </trkpt>
      <trkpt lat="45.93998" lon="3.65449">
        <ele>896.05991333333</ele>
        <time>2017-02-22T13:18:31Z</time>
      </trkpt>
      <trkpt lat="45.94001" lon="3.65529">
        <ele>887.66003333333</ele>
        <time>2017-02-22T13:18:35Z</time>
      </trkpt>
      <trkpt lat="45.94013" lon="3.65557">
        <ele>884.26050666667</ele>
        <time>2017-02-22T13:18:39Z</time>
      </trkpt>
      <trkpt lat="45.94043" lon="3.65624">
        <ele>875.76171333333</ele>
        <time>2017-02-22T13:18:52Z</time>
      </trkpt>
      <trkpt lat="45.94054" lon="3.65661">
        <ele>870.46216</ele>
        <time>2017-02-22T13:19:00Z</time>
      </trkpt>
      <trkpt lat="45.94046" lon="3.65693">
        <ele>865.76182</ele>
        <time>2017-02-22T13:19:05Z</time>
      </trkpt>
      <trkpt lat="45.94039" lon="3.65699">
        <ele>864.26154</ele>
        <time>2017-02-22T13:19:06Z</time>
      </trkpt>
      <trkpt lat="45.94028" lon="3.65709">
        <ele>861.3611</ele>
        <time>2017-02-22T13:19:12Z</time>
      </trkpt>
      <trkpt lat="45.94015" lon="3.65774">
        <ele>853.96060666667</ele>
        <time>2017-02-22T13:19:25Z</time>
      </trkpt>
      <trkpt lat="45.94016" lon="3.65784">
        <ele>852.76064</ele>
        <time>2017-02-22T13:19:35Z</time>
      </trkpt>
      <trkpt lat="45.94011" lon="3.65831">
        <ele>848.56043333333</ele>
        <time>2017-02-22T13:19:38Z</time>
      </trkpt>
      <trkpt lat="45.94009" lon="3.65842">
        <ele>848.16034</ele>
        <time>2017-02-22T13:19:41Z</time>
      </trkpt>
      <trkpt lat="45.94006" lon="3.65861">
        <ele>846.86024666667</ele>
        <time>2017-02-22T13:19:45Z</time>
      </trkpt>
      <trkpt lat="45.94002" lon="3.6588">
        <ele>846.06008666667</ele>
        <time>2017-02-22T13:19:49Z</time>
      </trkpt>
      <trkpt lat="45.94003" lon="3.65896">
        <ele>844.96011333333</ele>
        <time>2017-02-22T13:19:53Z</time>
      </trkpt>
      <trkpt lat="45.94002" lon="3.65915">
        <ele>844.26009333333</ele>
        <time>2017-02-22T13:19:57Z</time>
      </trkpt>
      <trkpt lat="45.94001" lon="3.65925">
        <ele>844.06002666667</ele>
        <time>2017-02-22T13:20:00Z</time>
      </trkpt>
      <trkpt lat="45.94001" lon="3.65947">
        <ele>842.36002666667</ele>
        <time>2017-02-22T13:20:05Z</time>
      </trkpt>
      <trkpt lat="45.93997" lon="3.65971">
        <ele>841.55989333333</ele>
        <time>2017-02-22T13:20:08Z</time>
      </trkpt>
      <trkpt lat="45.93994" lon="3.65989">
        <ele>840.75976666667</ele>
        <time>2017-02-22T13:20:13Z</time>
      </trkpt>
      <trkpt lat="45.9399" lon="3.66002">
        <ele>840.15959333333</ele>
        <time>2017-02-22T13:20:16Z</time>
      </trkpt>
      <trkpt lat="45.93975" lon="3.66046">
        <ele>837.45901333333</ele>
        <time>2017-02-22T13:20:29Z</time>
      </trkpt>
      <trkpt lat="45.93962" lon="3.66048">
        <ele>837.85849333333</ele>
        <time>2017-02-22T13:20:35Z</time>
      </trkpt>
      <trkpt lat="45.93964" lon="3.66043">
        <ele>839.75857333333</ele>
        <time>2017-02-22T13:20:37Z</time>
      </trkpt>
      <trkpt lat="45.93948" lon="3.66021">
        <ele>837.8579</ele>
        <time>2017-02-22T13:20:51Z</time>
      </trkpt>
      <trkpt lat="45.93932" lon="3.66017">
        <ele>834.95729333333</ele>
        <time>2017-02-22T13:21:00Z</time>
      </trkpt>
      <trkpt lat="45.93926" lon="3.66015">
        <ele>833.95705333333</ele>
        <time>2017-02-22T13:21:03Z</time>
      </trkpt>
      <trkpt lat="45.93918" lon="3.66011">
        <ele>832.45670666667</ele>
        <time>2017-02-22T13:21:07Z</time>
      </trkpt>
      <trkpt lat="45.93905" lon="3.66">
        <ele>831.55620666667</ele>
        <time>2017-02-22T13:21:11Z</time>
      </trkpt>
      <trkpt lat="45.93875" lon="3.65967">
        <ele>834.35499333333</ele>
        <time>2017-02-22T13:21:24Z</time>
      </trkpt>
      <trkpt lat="45.93852" lon="3.65953">
        <ele>836.85406</ele>
        <time>2017-02-22T13:21:35Z</time>
      </trkpt>
      <trkpt lat="45.9384" lon="3.6595">
        <ele>837.85361333333</ele>
        <time>2017-02-22T13:21:40Z</time>
      </trkpt>
      <trkpt lat="45.93836" lon="3.6595">
        <ele>837.85342</ele>
        <time>2017-02-22T13:21:42Z</time>
      </trkpt>
      <trkpt lat="45.93812" lon="3.65953">
        <ele>840.25246</ele>
        <time>2017-02-22T13:21:50Z</time>
      </trkpt>
      <trkpt lat="45.93798" lon="3.65969">
        <ele>843.75193333333</ele>
        <time>2017-02-22T13:21:55Z</time>
      </trkpt>
      <trkpt lat="45.93792" lon="3.65974">
        <ele>845.15167333333</ele>
        <time>2017-02-22T13:22:00Z</time>
      </trkpt>
      <trkpt lat="45.93786" lon="3.65979">
        <ele>845.95145333333</ele>
        <time>2017-02-22T13:22:00Z</time>
      </trkpt>
      <trkpt lat="45.93776" lon="3.66004">
        <ele>849.55104666667</ele>
        <time>2017-02-22T13:22:06Z</time>
      </trkpt>
      <trkpt lat="45.93778" lon="3.66016">
        <ele>850.85111333333</ele>
        <time>2017-02-22T13:22:10Z</time>
      </trkpt>
      <trkpt lat="45.9378" lon="3.66025">
        <ele>852.3512</ele>
        <time>2017-02-22T13:22:13Z</time>
      </trkpt>
      <trkpt lat="45.93783" lon="3.66035">
        <ele>855.3513</ele>
        <time>2017-02-22T13:22:16Z</time>
      </trkpt>
      <trkpt lat="45.93786" lon="3.66044">
        <ele>858.05142666667</ele>
        <time>2017-02-22T13:22:21Z</time>
      </trkpt>
      <trkpt lat="45.93787" lon="3.66051">
        <ele>860.25148</ele>
        <time>2017-02-22T13:22:25Z</time>
      </trkpt>
      <trkpt lat="45.93789" lon="3.66065">
        <ele>864.35154</ele>
        <time>2017-02-22T13:22:30Z</time>
      </trkpt>
      <trkpt lat="45.93787" lon="3.66077">
        <ele>869.05147333333</ele>
        <time>2017-02-22T13:22:36Z</time>
      </trkpt>
      <trkpt lat="45.93785" lon="3.66091">
        <ele>873.95140666667</ele>
        <time>2017-02-22T13:22:39Z</time>
      </trkpt>
      <trkpt lat="45.93784" lon="3.66095">
        <ele>874.95137333333</ele>
        <time>2017-02-22T13:22:46Z</time>
      </trkpt>
      <trkpt lat="45.93784" lon="3.6611">
        <ele>878.25135333333</ele>
        <time>2017-02-22T13:22:46Z</time>
      </trkpt>
      <trkpt lat="45.93785" lon="3.66128">
        <ele>881.05141333333</ele>
        <time>2017-02-22T13:22:55Z</time>
      </trkpt>
      <trkpt lat="45.93784" lon="3.66138">
        <ele>882.35136666667</ele>
        <time>2017-02-22T13:22:59Z</time>
      </trkpt>
      <trkpt lat="45.93783" lon="3.66148">
        <ele>883.35132666667</ele>
        <time>2017-02-22T13:23:03Z</time>
      </trkpt>
      <trkpt lat="45.93783" lon="3.66156">
        <ele>883.75130666667</ele>
        <time>2017-02-22T13:23:06Z</time>
      </trkpt>
      <trkpt lat="45.93781" lon="3.6619">
        <ele>889.55124</ele>
        <time>2017-02-22T13:23:21Z</time>
      </trkpt>
      <trkpt lat="45.93784" lon="3.66226">
        <ele>896.95136</ele>
        <time>2017-02-22T13:23:34Z</time>
      </trkpt>
      <trkpt lat="45.93787" lon="3.6624">
        <ele>898.95148</ele>
        <time>2017-02-22T13:23:39Z</time>
      </trkpt>
      <trkpt lat="45.93788" lon="3.66248">
        <ele>899.85152666667</ele>
        <time>2017-02-22T13:23:42Z</time>
      </trkpt>
      <trkpt lat="45.93791" lon="3.66283">
        <ele>903.85163333333</ele>
        <time>2017-02-22T13:23:55Z</time>
      </trkpt>
      <trkpt lat="45.9379" lon="3.66299">
        <ele>905.15161333333</ele>
        <time>2017-02-22T13:23:59Z</time>
      </trkpt>
      <trkpt lat="45.9379" lon="3.66307">
        <ele>906.35158666667</ele>
        <time>2017-02-22T13:24:03Z</time>
      </trkpt>
      <trkpt lat="45.9379" lon="3.66327">
        <ele>908.5516</ele>
        <time>2017-02-22T13:24:08Z</time>
      </trkpt>
      <trkpt lat="45.93792" lon="3.66342">
        <ele>910.85166666667</ele>
        <time>2017-02-22T13:24:12Z</time>
      </trkpt>
      <trkpt lat="45.93792" lon="3.66353">
        <ele>911.95167333333</ele>
        <time>2017-02-22T13:24:17Z</time>
      </trkpt>
      <trkpt lat="45.93798" lon="3.66392">
        <ele>913.95191333333</ele>
        <time>2017-02-22T13:24:30Z</time>
      </trkpt>
      <trkpt lat="45.93796" lon="3.66413">
        <ele>915.25184</ele>
        <time>2017-02-22T13:24:35Z</time>
      </trkpt>
      <trkpt lat="45.93796" lon="3.6642">
        <ele>915.95183333333</ele>
        <time>2017-02-22T13:24:37Z</time>
      </trkpt>
      <trkpt lat="45.93798" lon="3.66469">
        <ele>917.25192666667</ele>
        <time>2017-02-22T13:24:51Z</time>
      </trkpt>
      <trkpt lat="45.938" lon="3.66487">
        <ele>917.652</ele>
        <time>2017-02-22T13:24:56Z</time>
      </trkpt>
      <trkpt lat="45.93802" lon="3.66499">
        <ele>917.55207333333</ele>
        <time>2017-02-22T13:25:00Z</time>
      </trkpt>
      <trkpt lat="45.93804" lon="3.66507">
        <ele>918.25214666667</ele>
        <time>2017-02-22T13:25:04Z</time>
      </trkpt>
      <trkpt lat="45.93807" lon="3.66524">
        <ele>918.45228</ele>
        <time>2017-02-22T13:25:09Z</time>
      </trkpt>
      <trkpt lat="45.93809" lon="3.66535">
        <ele>917.95237333333</ele>
        <time>2017-02-22T13:25:12Z</time>
      </trkpt>
      <trkpt lat="45.93812" lon="3.66547">
        <ele>917.85246666667</ele>
        <time>2017-02-22T13:25:16Z</time>
      </trkpt>
      <trkpt lat="45.93813" lon="3.66557">
        <ele>917.95252666667</ele>
        <time>2017-02-22T13:25:22Z</time>
      </trkpt>
      <trkpt lat="45.93814" lon="3.66568">
        <ele>917.65257333333</ele>
        <time>2017-02-22T13:25:26Z</time>
      </trkpt>
      <trkpt lat="45.93815" lon="3.66578">
        <ele>917.3526</ele>
        <time>2017-02-22T13:25:34Z</time>
      </trkpt>
      <trkpt lat="45.93816" lon="3.666">
        <ele>918.95264</ele>
        <time>2017-02-22T13:25:37Z</time>
      </trkpt>
      <trkpt lat="45.93816" lon="3.66607">
        <ele>919.35264</ele>
        <time>2017-02-22T13:25:42Z</time>
      </trkpt>
      <trkpt lat="45.93815" lon="3.66637">
        <ele>921.95261333333</ele>
        <time>2017-02-22T13:25:55Z</time>
      </trkpt>
      <trkpt lat="45.93815" lon="3.66656">
        <ele>922.75260666667</ele>
        <time>2017-02-22T13:26:00Z</time>
      </trkpt>
      <trkpt lat="45.93813" lon="3.66663">
        <ele>922.95253333333</ele>
        <time>2017-02-22T13:26:02Z</time>
      </trkpt>
      <trkpt lat="45.93811" lon="3.66674">
        <ele>923.45244</ele>
        <time>2017-02-22T13:26:08Z</time>
      </trkpt>
      <trkpt lat="45.93808" lon="3.66679">
        <ele>924.15230666667</ele>
        <time>2017-02-22T13:26:18Z</time>
      </trkpt>
      <trkpt lat="45.93799" lon="3.66705">
        <ele>925.35196</ele>
        <time>2017-02-22T13:26:22Z</time>
      </trkpt>
      <trkpt lat="45.93796" lon="3.66713">
        <ele>925.55184</ele>
        <time>2017-02-22T13:26:26Z</time>
      </trkpt>
      <trkpt lat="45.93795" lon="3.66719">
        <ele>925.95181333333</ele>
        <time>2017-02-22T13:26:34Z</time>
      </trkpt>
      <trkpt lat="45.93781" lon="3.66736">
        <ele>926.95125333333</ele>
        <time>2017-02-22T13:26:37Z</time>
      </trkpt>
      <trkpt lat="45.93773" lon="3.66739">
        <ele>927.25091333333</ele>
        <time>2017-02-22T13:26:42Z</time>
      </trkpt>
      <trkpt lat="45.93771" lon="3.6674">
        <ele>927.35084</ele>
        <time>2017-02-22T13:26:47Z</time>
      </trkpt>
      <trkpt lat="45.9376" lon="3.66746">
        <ele>927.35040666667</ele>
        <time>2017-02-22T13:26:47Z</time>
      </trkpt>
      <trkpt lat="45.9373" lon="3.66767">
        <ele>927.3492</ele>
        <time>2017-02-22T13:27:00Z</time>
      </trkpt>
      <trkpt lat="45.93717" lon="3.6678">
        <ele>927.14866666667</ele>
        <time>2017-02-22T13:27:06Z</time>
      </trkpt>
      <trkpt lat="45.93711" lon="3.66781">
        <ele>927.04845333333</ele>
        <time>2017-02-22T13:27:09Z</time>
      </trkpt>
      <trkpt lat="45.93677" lon="3.66792">
        <ele>925.54708666667</ele>
        <time>2017-02-22T13:27:22Z</time>
      </trkpt>
      <trkpt lat="45.93627" lon="3.66813">
        <ele>924.64508666667</ele>
        <time>2017-02-22T13:27:35Z</time>
      </trkpt>
      <trkpt lat="45.93612" lon="3.66819">
        <ele>924.64449333333</ele>
        <time>2017-02-22T13:27:39Z</time>
      </trkpt>
      <trkpt lat="45.93596" lon="3.66822">
        <ele>924.24384</ele>
        <time>2017-02-22T13:27:43Z</time>
      </trkpt>
      <trkpt lat="45.93584" lon="3.66829">
        <ele>923.84334666667</ele>
        <time>2017-02-22T13:27:46Z</time>
      </trkpt>
      <trkpt lat="45.93536" lon="3.66869">
        <ele>922.64143333333</ele>
        <time>2017-02-22T13:27:56Z</time>
      </trkpt>
      <trkpt lat="45.93517" lon="3.6688">
        <ele>922.54068</ele>
        <time>2017-02-22T13:28:00Z</time>
      </trkpt>
      <trkpt lat="45.93503" lon="3.66886">
        <ele>922.74012</ele>
        <time>2017-02-22T13:28:02Z</time>
      </trkpt>
      <trkpt lat="45.93473" lon="3.66886">
        <ele>921.73892666667</ele>
        <time>2017-02-22T13:28:06Z</time>
      </trkpt>
      <trkpt lat="45.93449" lon="3.66903">
        <ele>921.73796666667</ele>
        <time>2017-02-22T13:28:10Z</time>
      </trkpt>
      <trkpt lat="45.93444" lon="3.66904">
        <ele>921.73774</ele>
        <time>2017-02-22T13:28:13Z</time>
      </trkpt>
      <trkpt lat="45.9342" lon="3.66917">
        <ele>921.0368</ele>
        <time>2017-02-22T13:28:18Z</time>
      </trkpt>
      <trkpt lat="45.93406" lon="3.66933">
        <ele>920.33623333333</ele>
        <time>2017-02-22T13:28:22Z</time>
      </trkpt>
      <trkpt lat="45.93399" lon="3.66939">
        <ele>919.93594</ele>
        <time>2017-02-22T13:28:24Z</time>
      </trkpt>
      <trkpt lat="45.93389" lon="3.66947">
        <ele>919.83554666667</ele>
        <time>2017-02-22T13:28:27Z</time>
      </trkpt>
      <trkpt lat="45.93368" lon="3.66963">
        <ele>919.33472666667</ele>
        <time>2017-02-22T13:28:31Z</time>
      </trkpt>
      <trkpt lat="45.93358" lon="3.66984">
        <ele>919.4343</ele>
        <time>2017-02-22T13:28:36Z</time>
      </trkpt>
      <trkpt lat="45.93356" lon="3.67008">
        <ele>918.83425333333</ele>
        <time>2017-02-22T13:28:37Z</time>
      </trkpt>
      <trkpt lat="45.93358" lon="3.67019">
        <ele>918.43432666667</ele>
        <time>2017-02-22T13:28:49Z</time>
      </trkpt>
      <trkpt lat="45.93386" lon="3.67196">
        <ele>914.53544666667</ele>
        <time>2017-02-22T13:28:53Z</time>
      </trkpt>
      <trkpt lat="45.93384" lon="3.67241">
        <ele>915.03534</ele>
        <time>2017-02-22T13:28:55Z</time>
      </trkpt>
      <trkpt lat="45.93374" lon="3.67294">
        <ele>914.63495333333</ele>
        <time>2017-02-22T13:29:00Z</time>
      </trkpt>
      <trkpt lat="45.93353" lon="3.6733">
        <ele>913.23410666667</ele>
        <time>2017-02-22T13:29:05Z</time>
      </trkpt>
      <trkpt lat="45.93343" lon="3.67368">
        <ele>912.83371333333</ele>
        <time>2017-02-22T13:29:08Z</time>
      </trkpt>
      <trkpt lat="45.93348" lon="3.67419">
        <ele>911.43392</ele>
        <time>2017-02-22T13:29:13Z</time>
      </trkpt>
      <trkpt lat="45.93362" lon="3.6747">
        <ele>909.13447333333</ele>
        <time>2017-02-22T13:29:17Z</time>
      </trkpt>
      <trkpt lat="45.93368" lon="3.67494">
        <ele>908.6347</ele>
        <time>2017-02-22T13:29:19Z</time>
      </trkpt>
      <trkpt lat="45.93381" lon="3.67524">
        <ele>907.43524666667</ele>
        <time>2017-02-22T13:29:32Z</time>
      </trkpt>
      <trkpt lat="45.93434" lon="3.67623">
        <ele>903.53734</ele>
        <time>2017-02-22T13:29:36Z</time>
      </trkpt>
      <trkpt lat="45.93434" lon="3.67648">
        <ele>902.43734</ele>
        <time>2017-02-22T13:29:40Z</time>
      </trkpt>
      <trkpt lat="45.93427" lon="3.67667">
        <ele>901.13706666667</ele>
        <time>2017-02-22T13:29:45Z</time>
      </trkpt>
      <trkpt lat="45.93418" lon="3.67683">
        <ele>899.93672</ele>
        <time>2017-02-22T13:29:49Z</time>
      </trkpt>
      <trkpt lat="45.93416" lon="3.67683">
        <ele>899.03662</ele>
        <time>2017-02-22T13:29:51Z</time>
      </trkpt>
      <trkpt lat="45.93401" lon="3.67687">
        <ele>898.63602666667</ele>
        <time>2017-02-22T13:29:55Z</time>
      </trkpt>
      <trkpt lat="45.93391" lon="3.67683">
        <ele>898.43562666667</ele>
        <time>2017-02-22T13:29:59Z</time>
      </trkpt>
      <trkpt lat="45.9338" lon="3.67682">
        <ele>898.13518666667</ele>
        <time>2017-02-22T13:30:00Z</time>
      </trkpt>
      <trkpt lat="45.93375" lon="3.67679">
        <ele>897.93499333333</ele>
        <time>2017-02-22T13:30:06Z</time>
      </trkpt>
      <trkpt lat="45.93333" lon="3.67674">
        <ele>895.53332666667</ele>
        <time>2017-02-22T13:30:10Z</time>
      </trkpt>
      <trkpt lat="45.93296" lon="3.67659">
        <ele>894.83182</ele>
        <time>2017-02-22T13:30:16Z</time>
      </trkpt>
      <trkpt lat="45.93288" lon="3.67657">
        <ele>894.93153333333</ele>
        <time>2017-02-22T13:30:26Z</time>
      </trkpt>
      <trkpt lat="45.93187" lon="3.6758">
        <ele>893.32748666667</ele>
        <time>2017-02-22T13:30:31Z</time>
      </trkpt>
      <trkpt lat="45.9316" lon="3.67557">
        <ele>891.6264</ele>
        <time>2017-02-22T13:30:35Z</time>
      </trkpt>
      <trkpt lat="45.9313" lon="3.67529">
        <ele>890.12521333333</ele>
        <time>2017-02-22T13:30:40Z</time>
      </trkpt>
      <trkpt lat="45.93116" lon="3.67511">
        <ele>889.32462666667</ele>
        <time>2017-02-22T13:30:51Z</time>
      </trkpt>
      <trkpt lat="45.92999" lon="3.67518">
        <ele>884.61996</ele>
        <time>2017-02-22T13:30:56Z</time>
      </trkpt>
      <trkpt lat="45.92955" lon="3.67544">
        <ele>882.7182</ele>
        <time>2017-02-22T13:31:00Z</time>
      </trkpt>
      <trkpt lat="45.92916" lon="3.67558">
        <ele>880.91665333333</ele>
        <time>2017-02-22T13:31:03Z</time>
      </trkpt>
      <trkpt lat="45.92886" lon="3.67567">
        <ele>879.71545333333</ele>
        <time>2017-02-22T13:31:06Z</time>
      </trkpt>
      <trkpt lat="45.92868" lon="3.67567">
        <ele>879.21473333333</ele>
        <time>2017-02-22T13:31:10Z</time>
      </trkpt>
      <trkpt lat="45.9284" lon="3.67562">
        <ele>878.51358666667</ele>
        <time>2017-02-22T13:31:12Z</time>
      </trkpt>
      <trkpt lat="45.92789" lon="3.67548">
        <ele>877.01154666667</ele>
        <time>2017-02-22T13:31:17Z</time>
      </trkpt>
      <trkpt lat="45.92765" lon="3.67545">
        <ele>876.21058666667</ele>
        <time>2017-02-22T13:31:20Z</time>
      </trkpt>
      <trkpt lat="45.92707" lon="3.6751">
        <ele>872.00828666667</ele>
        <time>2017-02-22T13:31:33Z</time>
      </trkpt>
      <trkpt lat="45.92725" lon="3.67465">
        <ele>869.50901333333</ele>
        <time>2017-02-22T13:31:37Z</time>
      </trkpt>
      <trkpt lat="45.92733" lon="3.67409">
        <ele>868.00933333333</ele>
        <time>2017-02-22T13:31:41Z</time>
      </trkpt>
      <trkpt lat="45.92714" lon="3.67292">
        <ele>864.20856</ele>
        <time>2017-02-22T13:31:54Z</time>
      </trkpt>
      <trkpt lat="45.92691" lon="3.67277">
        <ele>862.20762666667</ele>
        <time>2017-02-22T13:31:59Z</time>
      </trkpt>
      <trkpt lat="45.92686" lon="3.67276">
        <ele>861.80742</ele>
        <time>2017-02-22T13:32:00Z</time>
      </trkpt>
      <trkpt lat="45.92674" lon="3.67272">
        <ele>860.80694</ele>
        <time>2017-02-22T13:32:05Z</time>
      </trkpt>
      <trkpt lat="45.92662" lon="3.67263">
        <ele>858.10647333333</ele>
        <time>2017-02-22T13:32:08Z</time>
      </trkpt>
      <trkpt lat="45.9266" lon="3.67263">
        <ele>857.80640666667</ele>
        <time>2017-02-22T13:32:16Z</time>
      </trkpt>
      <trkpt lat="45.92649" lon="3.67266">
        <ele>856.50595333333</ele>
        <time>2017-02-22T13:32:19Z</time>
      </trkpt>
      <trkpt lat="45.92641" lon="3.67264">
        <ele>855.80565333333</ele>
        <time>2017-02-22T13:32:31Z</time>
      </trkpt>
      <trkpt lat="45.92634" lon="3.67269">
        <ele>854.50534666667</ele>
        <time>2017-02-22T13:33:01Z</time>
      </trkpt>
      <trkpt lat="45.9263" lon="3.67256">
        <ele>850.8052</ele>
        <time>2017-02-22T13:33:06Z</time>
      </trkpt>
      <trkpt lat="45.92635" lon="3.67256">
        <ele>853.60538666667</ele>
        <time>2017-02-22T13:33:37Z</time>
      </trkpt>
      <trkpt lat="45.92638" lon="3.67258">
        <ele>853.50553333333</ele>
        <time>2017-02-22T13:34:25Z</time>
      </trkpt>
      <trkpt lat="45.92631" lon="3.67267">
        <ele>852.60523333333</ele>
        <time>2017-02-22T13:34:36Z</time>
      </trkpt>
      <trkpt lat="45.92631" lon="3.67267">
        <ele>852.60522</ele>
        <time>2017-02-22T13:35:23Z</time>
      </trkpt>
      <trkpt lat="45.92637" lon="3.67276">
        <ele>846.60548666667</ele>
        <time>2017-02-22T13:35:27Z</time>
      </trkpt>
      <trkpt lat="45.92637" lon="3.67276">
        <ele>846.60548666667</ele>
        <time>2017-02-22T13:36:38Z</time>
      </trkpt>
      <trkpt lat="45.92643" lon="3.67266">
        <ele>843.30572666667</ele>
        <time>2017-02-22T13:36:42Z</time>
      </trkpt>
      <trkpt lat="45.92644" lon="3.67266">
        <ele>842.70576</ele>
        <time>2017-02-22T13:36:59Z</time>
      </trkpt>
      <trkpt lat="45.92652" lon="3.6728">
        <ele>841.30606</ele>
        <time>2017-02-22T13:37:03Z</time>
      </trkpt>
      <trkpt lat="45.92652" lon="3.6728">
        <ele>841.30606</ele>
        <time>2017-02-22T13:37:30Z</time>
      </trkpt>
      <trkpt lat="45.92646" lon="3.67267">
        <ele>841.00582666667</ele>
        <time>2017-02-22T13:37:35Z</time>
      </trkpt>
      <trkpt lat="45.92637" lon="3.67264">
        <ele>839.20547333333</ele>
        <time>2017-02-22T13:37:47Z</time>
      </trkpt>
      <trkpt lat="45.92637" lon="3.67262">
        <ele>838.60546666667</ele>
        <time>2017-02-22T13:38:29Z</time>
      </trkpt>
      <trkpt lat="45.9263" lon="3.67273">
        <ele>839.30518666667</ele>
        <time>2017-02-22T13:38:33Z</time>
      </trkpt>
      <trkpt lat="45.92623" lon="3.67277">
        <ele>839.50493333333</ele>
        <time>2017-02-22T13:38:40Z</time>
      </trkpt>
      <trkpt lat="45.92624" lon="3.67278">
        <ele>840.30495333333</ele>
        <time>2017-02-22T13:39:15Z</time>
      </trkpt>
      <trkpt lat="45.92623" lon="3.67263">
        <ele>841.90492666667</ele>
        <time>2017-02-22T13:39:17Z</time>
      </trkpt>
      <trkpt lat="45.92623" lon="3.67262">
        <ele>841.60492666667</ele>
        <time>2017-02-22T13:40:30Z</time>
      </trkpt>
      <trkpt lat="45.92633" lon="3.67261">
        <ele>847.20533333333</ele>
        <time>2017-02-22T13:40:34Z</time>
      </trkpt>
      <trkpt lat="45.92633" lon="3.67261">
        <ele>847.20533333333</ele>
        <time>2017-02-22T13:41:00Z</time>
      </trkpt>
      <trkpt lat="45.92625" lon="3.6727">
        <ele>846.00498666667</ele>
        <time>2017-02-22T13:41:04Z</time>
      </trkpt>
      <trkpt lat="45.92624" lon="3.6727">
        <ele>846.00496666667</ele>
        <time>2017-02-22T13:41:27Z</time>
      </trkpt>
      <trkpt lat="45.92632" lon="3.6726">
        <ele>845.60526</ele>
        <time>2017-02-22T13:41:31Z</time>
      </trkpt>
      <trkpt lat="45.92632" lon="3.6726">
        <ele>845.60528</ele>
        <time>2017-02-22T13:42:20Z</time>
      </trkpt>
      <trkpt lat="45.92639" lon="3.67251">
        <ele>841.80555333333</ele>
        <time>2017-02-22T13:42:25Z</time>
      </trkpt>
      <trkpt lat="45.92639" lon="3.67251">
        <ele>841.80555333333</ele>
        <time>2017-02-22T13:42:55Z</time>
      </trkpt>
      <trkpt lat="45.9263" lon="3.67245">
        <ele>837.20519333333</ele>
        <time>2017-02-22T13:42:57Z</time>
      </trkpt>
      <trkpt lat="45.92635" lon="3.67249">
        <ele>832.30541333333</ele>
        <time>2017-02-22T13:44:16Z</time>
      </trkpt>
      <trkpt lat="45.92632" lon="3.67264">
        <ele>831.70528</ele>
        <time>2017-02-22T13:44:20Z</time>
      </trkpt>
      <trkpt lat="45.92632" lon="3.67264">
        <ele>831.80526</ele>
        <time>2017-02-22T13:44:40Z</time>
      </trkpt>
      <trkpt lat="45.92627" lon="3.67279">
        <ele>834.00508</ele>
        <time>2017-02-22T13:44:45Z</time>
      </trkpt>
      <trkpt lat="45.92626" lon="3.67285">
        <ele>834.70503333333</ele>
        <time>2017-02-22T13:45:25Z</time>
      </trkpt>
      <trkpt lat="45.92619" lon="3.67274">
        <ele>835.60476</ele>
        <time>2017-02-22T13:45:38Z</time>
      </trkpt>
      <trkpt lat="45.92619" lon="3.67274">
        <ele>835.60476</ele>
        <time>2017-02-22T13:46:32Z</time>
      </trkpt>
      <trkpt lat="45.92629" lon="3.67267">
        <ele>839.70516</ele>
        <time>2017-02-22T13:46:35Z</time>
      </trkpt>
      <trkpt lat="45.92629" lon="3.67267">
        <ele>839.70516</ele>
        <time>2017-02-22T13:46:58Z</time>
      </trkpt>
      <trkpt lat="45.92639" lon="3.67271">
        <ele>842.60554666667</ele>
        <time>2017-02-22T13:47:03Z</time>
      </trkpt>
      <trkpt lat="45.92639" lon="3.67271">
        <ele>842.60556666667</ele>
        <time>2017-02-22T13:49:13Z</time>
      </trkpt>
      <trkpt lat="45.92649" lon="3.67267">
        <ele>851.00596666667</ele>
        <time>2017-02-22T13:49:24Z</time>
      </trkpt>
      <trkpt lat="45.92649" lon="3.67267">
        <ele>851.00596666667</ele>
        <time>2017-02-22T13:50:27Z</time>
      </trkpt>
      <trkpt lat="45.9264" lon="3.67271">
        <ele>851.30561333333</ele>
        <time>2017-02-22T13:50:37Z</time>
      </trkpt>
      <trkpt lat="45.9264" lon="3.67271">
        <ele>851.30561333333</ele>
        <time>2017-02-22T13:51:17Z</time>
      </trkpt>
      <trkpt lat="45.92629" lon="3.6727">
        <ele>845.00516666667</ele>
        <time>2017-02-22T13:51:22Z</time>
      </trkpt>
      <trkpt lat="45.92621" lon="3.67271">
        <ele>844.60484666667</ele>
        <time>2017-02-22T13:52:01Z</time>
      </trkpt>
      <trkpt lat="45.92615" lon="3.67262">
        <ele>844.2046</ele>
        <time>2017-02-22T13:52:05Z</time>
      </trkpt>
      <trkpt lat="45.92561" lon="3.67195">
        <ele>842.50242666667</ele>
        <time>2017-02-22T13:52:17Z</time>
      </trkpt>
      <trkpt lat="45.92532" lon="3.67136">
        <ele>841.40126</ele>
        <time>2017-02-22T13:52:27Z</time>
      </trkpt>
      <trkpt lat="45.92525" lon="3.67127">
        <ele>841.00099333333</ele>
        <time>2017-02-22T13:52:29Z</time>
      </trkpt>
      <trkpt lat="45.9249" lon="3.67087">
        <ele>838.49959333333</ele>
        <time>2017-02-22T13:52:39Z</time>
      </trkpt>
      <trkpt lat="45.92473" lon="3.67089">
        <ele>837.09890666667</ele>
        <time>2017-02-22T13:52:43Z</time>
      </trkpt>
      <trkpt lat="45.92443" lon="3.67086">
        <ele>833.09773333333</ele>
        <time>2017-02-22T13:52:48Z</time>
      </trkpt>
      <trkpt lat="45.92428" lon="3.6708">
        <ele>831.79712666667</ele>
        <time>2017-02-22T13:52:51Z</time>
      </trkpt>
      <trkpt lat="45.92399" lon="3.67067">
        <ele>829.09595333333</ele>
        <time>2017-02-22T13:52:56Z</time>
      </trkpt>
      <trkpt lat="45.9237" lon="3.67057">
        <ele>826.79480666667</ele>
        <time>2017-02-22T13:53:00Z</time>
      </trkpt>
      <trkpt lat="45.92327" lon="3.67049">
        <ele>823.39308666667</ele>
        <time>2017-02-22T13:53:06Z</time>
      </trkpt>
      <trkpt lat="45.92294" lon="3.67034">
        <ele>821.39177333333</ele>
        <time>2017-02-22T13:53:11Z</time>
      </trkpt>
      <trkpt lat="45.92271" lon="3.67016">
        <ele>819.29084666667</ele>
        <time>2017-02-22T13:53:14Z</time>
      </trkpt>
      <trkpt lat="45.92244" lon="3.67004">
        <ele>817.78977333333</ele>
        <time>2017-02-22T13:53:19Z</time>
      </trkpt>
      <trkpt lat="45.92212" lon="3.66998">
        <ele>815.38846666667</ele>
        <time>2017-02-22T13:53:24Z</time>
      </trkpt>
      <trkpt lat="45.92191" lon="3.66988">
        <ele>814.78763333333</ele>
        <time>2017-02-22T13:53:28Z</time>
      </trkpt>
      <trkpt lat="45.92187" lon="3.66981">
        <ele>814.78748</ele>
        <time>2017-02-22T13:53:30Z</time>
      </trkpt>
      <trkpt lat="45.92175" lon="3.66926">
        <ele>813.787</ele>
        <time>2017-02-22T13:53:35Z</time>
      </trkpt>
      <trkpt lat="45.92222" lon="3.66832">
        <ele>809.78886666667</ele>
        <time>2017-02-22T13:53:48Z</time>
      </trkpt>
      <trkpt lat="45.92273" lon="3.6666">
        <ele>803.5909</ele>
        <time>2017-02-22T13:54:00Z</time>
      </trkpt>
      <trkpt lat="45.9228" lon="3.66616">
        <ele>802.49118</ele>
        <time>2017-02-22T13:54:02Z</time>
      </trkpt>
      <trkpt lat="45.92283" lon="3.66601">
        <ele>802.49130666667</ele>
        <time>2017-02-22T13:54:11Z</time>
      </trkpt>
      <trkpt lat="45.92309" lon="3.66507">
        <ele>798.79237333333</ele>
        <time>2017-02-22T13:54:11Z</time>
      </trkpt>
      <trkpt lat="45.92369" lon="3.66566">
        <ele>794.99474666667</ele>
        <time>2017-02-22T13:54:24Z</time>
      </trkpt>
      <trkpt lat="45.92366" lon="3.66602">
        <ele>793.39462</ele>
        <time>2017-02-22T13:54:30Z</time>
      </trkpt>
      <trkpt lat="45.9236" lon="3.66701">
        <ele>789.09440666667</ele>
        <time>2017-02-22T13:54:34Z</time>
      </trkpt>
      <trkpt lat="45.9237" lon="3.66743">
        <ele>786.99479333333</ele>
        <time>2017-02-22T13:54:38Z</time>
      </trkpt>
      <trkpt lat="45.92409" lon="3.6675">
        <ele>784.39637333333</ele>
        <time>2017-02-22T13:54:43Z</time>
      </trkpt>
      <trkpt lat="45.92442" lon="3.66746">
        <ele>781.39766666667</ele>
        <time>2017-02-22T13:54:47Z</time>
      </trkpt>
      <trkpt lat="45.92475" lon="3.66749">
        <ele>778.29898</ele>
        <time>2017-02-22T13:54:50Z</time>
      </trkpt>
      <trkpt lat="45.92486" lon="3.6674">
        <ele>775.39942666667</ele>
        <time>2017-02-22T13:54:55Z</time>
      </trkpt>
      <trkpt lat="45.9249" lon="3.66715">
        <ele>774.99958</ele>
        <time>2017-02-22T13:54:59Z</time>
      </trkpt>
      <trkpt lat="45.92496" lon="3.66694">
        <ele>772.89982</ele>
        <time>2017-02-22T13:55:02Z</time>
      </trkpt>
      <trkpt lat="45.92503" lon="3.6667">
        <ele>771.30013333333</ele>
        <time>2017-02-22T13:55:07Z</time>
      </trkpt>
      <trkpt lat="45.92512" lon="3.66636">
        <ele>769.80047333333</ele>
        <time>2017-02-22T13:55:10Z</time>
      </trkpt>
      <trkpt lat="45.92518" lon="3.6661">
        <ele>768.8007</ele>
        <time>2017-02-22T13:55:14Z</time>
      </trkpt>
      <trkpt lat="45.92524" lon="3.66576">
        <ele>767.80094</ele>
        <time>2017-02-22T13:55:18Z</time>
      </trkpt>
      <trkpt lat="45.92529" lon="3.6654">
        <ele>766.80114666667</ele>
        <time>2017-02-22T13:55:23Z</time>
      </trkpt>
      <trkpt lat="45.92534" lon="3.66511">
        <ele>765.70134666667</ele>
        <time>2017-02-22T13:55:27Z</time>
      </trkpt>
      <trkpt lat="45.9254" lon="3.66482">
        <ele>766.4016</ele>
        <time>2017-02-22T13:55:32Z</time>
      </trkpt>
      <trkpt lat="45.92559" lon="3.66448">
        <ele>767.00236666667</ele>
        <time>2017-02-22T13:55:36Z</time>
      </trkpt>
      <trkpt lat="45.92572" lon="3.66431">
        <ele>767.10289333333</ele>
        <time>2017-02-22T13:55:39Z</time>
      </trkpt>
      <trkpt lat="45.92595" lon="3.66387">
        <ele>765.40378666667</ele>
        <time>2017-02-22T13:55:48Z</time>
      </trkpt>
      <trkpt lat="45.92596" lon="3.66295">
        <ele>762.30382</ele>
        <time>2017-02-22T13:56:00Z</time>
      </trkpt>
      <trkpt lat="45.92603" lon="3.66282">
        <ele>760.10410666667</ele>
        <time>2017-02-22T13:56:06Z</time>
      </trkpt>
      <trkpt lat="45.92605" lon="3.66267">
        <ele>758.20421333333</ele>
        <time>2017-02-22T13:56:11Z</time>
      </trkpt>
      <trkpt lat="45.9261" lon="3.66248">
        <ele>756.80441333333</ele>
        <time>2017-02-22T13:56:15Z</time>
      </trkpt>
      <trkpt lat="45.9261" lon="3.66237">
        <ele>755.00440666667</ele>
        <time>2017-02-22T13:56:21Z</time>
      </trkpt>
      <trkpt lat="45.92612" lon="3.662">
        <ele>750.90446</ele>
        <time>2017-02-22T13:56:34Z</time>
      </trkpt>
      <trkpt lat="45.92619" lon="3.66171">
        <ele>748.70474</ele>
        <time>2017-02-22T13:56:46Z</time>
      </trkpt>
      <trkpt lat="45.92622" lon="3.6616">
        <ele>747.00487333333</ele>
        <time>2017-02-22T13:56:48Z</time>
      </trkpt>
      <trkpt lat="45.92632" lon="3.66108">
        <ele>743.90529333333</ele>
        <time>2017-02-22T13:56:57Z</time>
      </trkpt>
      <trkpt lat="45.92635" lon="3.66085">
        <ele>741.60540666667</ele>
        <time>2017-02-22T13:57:01Z</time>
      </trkpt>
      <trkpt lat="45.9263" lon="3.66069">
        <ele>739.80520666667</ele>
        <time>2017-02-22T13:57:05Z</time>
      </trkpt>
      <trkpt lat="45.92628" lon="3.66056">
        <ele>738.30511333333</ele>
        <time>2017-02-22T13:57:08Z</time>
      </trkpt>
      <trkpt lat="45.9261" lon="3.66017">
        <ele>731.20438666667</ele>
        <time>2017-02-22T13:57:16Z</time>
      </trkpt>
      <trkpt lat="45.92608" lon="3.66013">
        <ele>729.80430666667</ele>
        <time>2017-02-22T13:57:18Z</time>
      </trkpt>
      <trkpt lat="45.9257" lon="3.6598">
        <ele>723.90280666667</ele>
        <time>2017-02-22T13:57:29Z</time>
      </trkpt>
      <trkpt lat="45.92553" lon="3.65966">
        <ele>721.5021</ele>
        <time>2017-02-22T13:57:34Z</time>
      </trkpt>
      <trkpt lat="45.92552" lon="3.6595">
        <ele>719.90207333333</ele>
        <time>2017-02-22T13:57:38Z</time>
      </trkpt>
      <trkpt lat="45.92554" lon="3.65945">
        <ele>719.20216666667</ele>
        <time>2017-02-22T13:57:39Z</time>
      </trkpt>
      <trkpt lat="45.92595" lon="3.65892">
        <ele>711.80378666667</ele>
        <time>2017-02-22T13:57:52Z</time>
      </trkpt>
      <trkpt lat="45.92638" lon="3.65888">
        <ele>705.00551333333</ele>
        <time>2017-02-22T13:58:00Z</time>
      </trkpt>
      <trkpt lat="45.92648" lon="3.65887">
        <ele>703.30591333333</ele>
        <time>2017-02-22T13:58:03Z</time>
      </trkpt>
      <trkpt lat="45.92675" lon="3.65888">
        <ele>700.10700666667</ele>
        <time>2017-02-22T13:58:07Z</time>
      </trkpt>
      <trkpt lat="45.92688" lon="3.6589">
        <ele>698.20752</ele>
        <time>2017-02-22T13:58:11Z</time>
      </trkpt>
      <trkpt lat="45.92696" lon="3.65895">
        <ele>697.80783333333</ele>
        <time>2017-02-22T13:58:15Z</time>
      </trkpt>
      <trkpt lat="45.92689" lon="3.65889">
        <ele>698.70754666667</ele>
        <time>2017-02-22T13:58:18Z</time>
      </trkpt>
      <trkpt lat="45.92686" lon="3.65902">
        <ele>698.00745333333</ele>
        <time>2017-02-22T13:58:22Z</time>
      </trkpt>
      <trkpt lat="45.92686" lon="3.65913">
        <ele>697.00744666667</ele>
        <time>2017-02-22T13:58:24Z</time>
      </trkpt>
      <trkpt lat="45.92697" lon="3.65925">
        <ele>695.40786666667</ele>
        <time>2017-02-22T13:58:32Z</time>
      </trkpt>
      <trkpt lat="45.9271" lon="3.65924">
        <ele>694.60839333333</ele>
        <time>2017-02-22T13:58:37Z</time>
      </trkpt>
      <trkpt lat="45.92744" lon="3.65891">
        <ele>700.80976666667</ele>
        <time>2017-02-22T13:58:46Z</time>
      </trkpt>
      <trkpt lat="45.92758" lon="3.6586">
        <ele>699.21033333333</ele>
        <time>2017-02-22T13:58:52Z</time>
      </trkpt>
      <trkpt lat="45.92763" lon="3.6583">
        <ele>699.21052</ele>
        <time>2017-02-22T13:58:57Z</time>
      </trkpt>
      <trkpt lat="45.92764" lon="3.65789">
        <ele>696.91056</ele>
        <time>2017-02-22T13:59:02Z</time>
      </trkpt>
      <trkpt lat="45.92759" lon="3.65765">
        <ele>695.71036666667</ele>
        <time>2017-02-22T13:59:06Z</time>
      </trkpt>
      <trkpt lat="45.92759" lon="3.65761">
        <ele>695.41034666667</ele>
        <time>2017-02-22T13:59:18Z</time>
      </trkpt>
      <trkpt lat="45.92764" lon="3.65683">
        <ele>692.31056</ele>
        <time>2017-02-22T13:59:22Z</time>
      </trkpt>
      <trkpt lat="45.92759" lon="3.65654">
        <ele>691.61036</ele>
        <time>2017-02-22T13:59:26Z</time>
      </trkpt>
      <trkpt lat="45.92751" lon="3.65625">
        <ele>694.31004</ele>
        <time>2017-02-22T13:59:31Z</time>
      </trkpt>
      <trkpt lat="45.92744" lon="3.65605">
        <ele>696.30976666667</ele>
        <time>2017-02-22T13:59:35Z</time>
      </trkpt>
      <trkpt lat="45.92734" lon="3.65591">
        <ele>697.80936666667</ele>
        <time>2017-02-22T13:59:37Z</time>
      </trkpt>
      <trkpt lat="45.92725" lon="3.65584">
        <ele>699.30898666667</ele>
        <time>2017-02-22T13:59:51Z</time>
      </trkpt>
      <trkpt lat="45.92695" lon="3.65521">
        <ele>698.00778666667</ele>
        <time>2017-02-22T13:59:55Z</time>
      </trkpt>
      <trkpt lat="45.92687" lon="3.65508">
        <ele>696.70749333333</ele>
        <time>2017-02-22T13:59:59Z</time>
      </trkpt>
      <trkpt lat="45.92683" lon="3.65502">
        <ele>695.60731333333</ele>
        <time>2017-02-22T14:00:00Z</time>
      </trkpt>
      <trkpt lat="45.9268" lon="3.65498">
        <ele>694.90721333333</ele>
        <time>2017-02-22T14:00:05Z</time>
      </trkpt>
      <trkpt lat="45.92663" lon="3.65479">
        <ele>690.10652</ele>
        <time>2017-02-22T14:00:09Z</time>
      </trkpt>
      <trkpt lat="45.92656" lon="3.65473">
        <ele>689.40625333333</ele>
        <time>2017-02-22T14:00:11Z</time>
      </trkpt>
      <trkpt lat="45.92649" lon="3.65458">
        <ele>687.90596</ele>
        <time>2017-02-22T14:00:14Z</time>
      </trkpt>
      <trkpt lat="45.92645" lon="3.65451">
        <ele>687.20581333333</ele>
        <time>2017-02-22T14:00:21Z</time>
      </trkpt>
      <trkpt lat="45.92598" lon="3.654">
        <ele>679.6039</ele>
        <time>2017-02-22T14:00:26Z</time>
      </trkpt>
      <trkpt lat="45.92588" lon="3.65394">
        <ele>677.60352666667</ele>
        <time>2017-02-22T14:00:29Z</time>
      </trkpt>
      <trkpt lat="45.92571" lon="3.6539">
        <ele>676.00284666667</ele>
        <time>2017-02-22T14:00:33Z</time>
      </trkpt>
      <trkpt lat="45.92551" lon="3.65381">
        <ele>675.70204666667</ele>
        <time>2017-02-22T14:00:36Z</time>
      </trkpt>
      <trkpt lat="45.9254" lon="3.65373">
        <ele>674.70159333333</ele>
        <time>2017-02-22T14:00:40Z</time>
      </trkpt>
      <trkpt lat="45.92533" lon="3.65373">
        <ele>676.00133333333</ele>
        <time>2017-02-22T14:00:44Z</time>
      </trkpt>
      <trkpt lat="45.92502" lon="3.65373">
        <ele>672.70008</ele>
        <time>2017-02-22T14:00:53Z</time>
      </trkpt>
      <trkpt lat="45.92495" lon="3.65371">
        <ele>669.79978666667</ele>
        <time>2017-02-22T14:00:59Z</time>
      </trkpt>
      <trkpt lat="45.92486" lon="3.65367">
        <ele>668.69945333333</ele>
        <time>2017-02-22T14:01:04Z</time>
      </trkpt>
      <trkpt lat="45.92483" lon="3.65367">
        <ele>667.89930666667</ele>
        <time>2017-02-22T14:01:07Z</time>
      </trkpt>
      <trkpt lat="45.92473" lon="3.65371">
        <ele>666.1989</ele>
        <time>2017-02-22T14:01:15Z</time>
      </trkpt>
      <trkpt lat="45.92457" lon="3.6538">
        <ele>663.19826</ele>
        <time>2017-02-22T14:01:28Z</time>
      </trkpt>
      <trkpt lat="45.9245" lon="3.65382">
        <ele>661.19798666667</ele>
        <time>2017-02-22T14:01:35Z</time>
      </trkpt>
      <trkpt lat="45.92442" lon="3.65382">
        <ele>659.59766</ele>
        <time>2017-02-22T14:01:39Z</time>
      </trkpt>
      <trkpt lat="45.92435" lon="3.6538">
        <ele>660.39741333333</ele>
        <time>2017-02-22T14:01:41Z</time>
      </trkpt>
      <trkpt lat="45.92407" lon="3.65367">
        <ele>659.99627333333</ele>
        <time>2017-02-22T14:01:49Z</time>
      </trkpt>
      <trkpt lat="45.92391" lon="3.65363">
        <ele>659.09563333333</ele>
        <time>2017-02-22T14:01:54Z</time>
      </trkpt>
      <trkpt lat="45.92385" lon="3.65353">
        <ele>658.99541333333</ele>
        <time>2017-02-22T14:01:59Z</time>
      </trkpt>
      <trkpt lat="45.92381" lon="3.65345">
        <ele>659.49522666667</ele>
        <time>2017-02-22T14:02:05Z</time>
      </trkpt>
      <trkpt lat="45.92374" lon="3.65337">
        <ele>659.49497333333</ele>
        <time>2017-02-22T14:02:09Z</time>
      </trkpt>
      <trkpt lat="45.9237" lon="3.65326">
        <ele>660.89480666667</ele>
        <time>2017-02-22T14:02:25Z</time>
      </trkpt>
      <trkpt lat="45.92368" lon="3.65325">
        <ele>660.59471333333</ele>
        <time>2017-02-22T14:02:26Z</time>
      </trkpt>
      <trkpt lat="45.92359" lon="3.65323">
        <ele>660.09435333333</ele>
        <time>2017-02-22T14:02:33Z</time>
      </trkpt>
      <trkpt lat="45.92347" lon="3.65325">
        <ele>661.99388666667</ele>
        <time>2017-02-22T14:02:36Z</time>
      </trkpt>
      <trkpt lat="45.92336" lon="3.65325">
        <ele>663.59345333333</ele>
        <time>2017-02-22T14:02:41Z</time>
      </trkpt>
      <trkpt lat="45.92318" lon="3.6532">
        <ele>664.69271333333</ele>
        <time>2017-02-22T14:02:54Z</time>
      </trkpt>
      <trkpt lat="45.92287" lon="3.65323">
        <ele>667.69146666667</ele>
        <time>2017-02-22T14:03:00Z</time>
      </trkpt>
      <trkpt lat="45.92282" lon="3.65322">
        <ele>667.79128</ele>
        <time>2017-02-22T14:03:02Z</time>
      </trkpt>
      <trkpt lat="45.92268" lon="3.65323">
        <ele>667.59072</ele>
        <time>2017-02-22T14:03:07Z</time>
      </trkpt>
      <trkpt lat="45.92265" lon="3.65324">
        <ele>667.29058666667</ele>
        <time>2017-02-22T14:03:08Z</time>
      </trkpt>
      <trkpt lat="45.92252" lon="3.65328">
        <ele>666.29008</ele>
        <time>2017-02-22T14:03:12Z</time>
      </trkpt>
      <trkpt lat="45.92242" lon="3.65336">
        <ele>665.58969333333</ele>
        <time>2017-02-22T14:03:16Z</time>
      </trkpt>
      <trkpt lat="45.92236" lon="3.65342">
        <ele>664.78945333333</ele>
        <time>2017-02-22T14:03:25Z</time>
      </trkpt>
      <trkpt lat="45.92225" lon="3.65355">
        <ele>663.68899333333</ele>
        <time>2017-02-22T14:03:25Z</time>
      </trkpt>
      <trkpt lat="45.92203" lon="3.65373">
        <ele>662.58812</ele>
        <time>2017-02-22T14:03:33Z</time>
      </trkpt>
      <trkpt lat="45.92183" lon="3.65388">
        <ele>660.9873</ele>
        <time>2017-02-22T14:03:38Z</time>
      </trkpt>
      <trkpt lat="45.92167" lon="3.65399">
        <ele>659.88666666667</ele>
        <time>2017-02-22T14:03:42Z</time>
      </trkpt>
      <trkpt lat="45.92156" lon="3.65406">
        <ele>659.08624</ele>
        <time>2017-02-22T14:03:46Z</time>
      </trkpt>
      <trkpt lat="45.92137" lon="3.6542">
        <ele>656.08548</ele>
        <time>2017-02-22T14:04:01Z</time>
      </trkpt>
      <trkpt lat="45.92129" lon="3.65428">
        <ele>654.38516</ele>
        <time>2017-02-22T14:04:05Z</time>
      </trkpt>
      <trkpt lat="45.92122" lon="3.65433">
        <ele>653.48486666667</ele>
        <time>2017-02-22T14:04:09Z</time>
      </trkpt>
      <trkpt lat="45.92099" lon="3.65448">
        <ele>651.68395333333</ele>
        <time>2017-02-22T14:04:17Z</time>
      </trkpt>
      <trkpt lat="45.92088" lon="3.65457">
        <ele>650.88353333333</ele>
        <time>2017-02-22T14:04:21Z</time>
      </trkpt>
      <trkpt lat="45.92082" lon="3.65462">
        <ele>649.88326666667</ele>
        <time>2017-02-22T14:04:26Z</time>
      </trkpt>
      <trkpt lat="45.92075" lon="3.65464">
        <ele>649.08299333333</ele>
        <time>2017-02-22T14:04:30Z</time>
      </trkpt>
      <trkpt lat="45.92054" lon="3.65471">
        <ele>647.28217333333</ele>
        <time>2017-02-22T14:04:35Z</time>
      </trkpt>
      <trkpt lat="45.92046" lon="3.65472">
        <ele>646.18182</ele>
        <time>2017-02-22T14:04:40Z</time>
      </trkpt>
      <trkpt lat="45.92035" lon="3.65477">
        <ele>644.78139333333</ele>
        <time>2017-02-22T14:04:45Z</time>
      </trkpt>
      <trkpt lat="45.92018" lon="3.65481">
        <ele>643.08072</ele>
        <time>2017-02-22T14:04:50Z</time>
      </trkpt>
      <trkpt lat="45.92008" lon="3.65477">
        <ele>641.78032666667</ele>
        <time>2017-02-22T14:04:55Z</time>
      </trkpt>
      <trkpt lat="45.92001" lon="3.65467">
        <ele>640.38004</ele>
        <time>2017-02-22T14:04:59Z</time>
      </trkpt>
      <trkpt lat="45.91995" lon="3.65459">
        <ele>638.97979333333</ele>
        <time>2017-02-22T14:05:05Z</time>
      </trkpt>
      <trkpt lat="45.9199" lon="3.65451">
        <ele>637.67959333333</ele>
        <time>2017-02-22T14:05:11Z</time>
      </trkpt>
      <trkpt lat="45.91984" lon="3.65442">
        <ele>635.67935333333</ele>
        <time>2017-02-22T14:05:18Z</time>
      </trkpt>
      <trkpt lat="45.91976" lon="3.65438">
        <ele>632.37904666667</ele>
        <time>2017-02-22T14:05:27Z</time>
      </trkpt>
      <trkpt lat="45.9197" lon="3.6543">
        <ele>630.4788</ele>
        <time>2017-02-22T14:05:33Z</time>
      </trkpt>
      <trkpt lat="45.91963" lon="3.65427">
        <ele>629.07852666667</ele>
        <time>2017-02-22T14:05:36Z</time>
      </trkpt>
      <trkpt lat="45.91962" lon="3.65426">
        <ele>628.77846</ele>
        <time>2017-02-22T14:05:48Z</time>
      </trkpt>
      <trkpt lat="45.91951" lon="3.65416">
        <ele>626.17802</ele>
        <time>2017-02-22T14:05:48Z</time>
      </trkpt>
      <trkpt lat="45.91922" lon="3.65423">
        <ele>628.37688</ele>
        <time>2017-02-22T14:06:00Z</time>
      </trkpt>
      <trkpt lat="45.91914" lon="3.65429">
        <ele>629.17656</ele>
        <time>2017-02-22T14:06:05Z</time>
      </trkpt>
      <trkpt lat="45.9191" lon="3.65436">
        <ele>629.17638</ele>
        <time>2017-02-22T14:06:09Z</time>
      </trkpt>
      <trkpt lat="45.91906" lon="3.65438">
        <ele>629.77625333333</ele>
        <time>2017-02-22T14:06:11Z</time>
      </trkpt>
      <trkpt lat="45.91895" lon="3.65442">
        <ele>631.37580666667</ele>
        <time>2017-02-22T14:06:16Z</time>
      </trkpt>
      <trkpt lat="45.91891" lon="3.65449">
        <ele>631.07562666667</ele>
        <time>2017-02-22T14:06:20Z</time>
      </trkpt>
      <trkpt lat="45.91879" lon="3.65455">
        <ele>631.57516</ele>
        <time>2017-02-22T14:06:25Z</time>
      </trkpt>
      <trkpt lat="45.91872" lon="3.65458">
        <ele>631.57488666667</ele>
        <time>2017-02-22T14:06:31Z</time>
      </trkpt>
      <trkpt lat="45.91864" lon="3.65473">
        <ele>631.27457333333</ele>
        <time>2017-02-22T14:06:35Z</time>
      </trkpt>
      <trkpt lat="45.9186" lon="3.65483">
        <ele>631.07438666667</ele>
        <time>2017-02-22T14:06:39Z</time>
      </trkpt>
      <trkpt lat="45.91857" lon="3.6549">
        <ele>630.77427333333</ele>
        <time>2017-02-22T14:06:45Z</time>
      </trkpt>
      <trkpt lat="45.91854" lon="3.65499">
        <ele>630.17414666667</ele>
        <time>2017-02-22T14:06:45Z</time>
      </trkpt>
      <trkpt lat="45.91845" lon="3.65525">
        <ele>628.77381333333</ele>
        <time>2017-02-22T14:06:58Z</time>
      </trkpt>
      <trkpt lat="45.91841" lon="3.65536">
        <ele>627.77362</ele>
        <time>2017-02-22T14:07:03Z</time>
      </trkpt>
      <trkpt lat="45.91836" lon="3.65553">
        <ele>626.67342666667</ele>
        <time>2017-02-22T14:07:08Z</time>
      </trkpt>
      <trkpt lat="45.91832" lon="3.65567">
        <ele>625.57327333333</ele>
        <time>2017-02-22T14:07:12Z</time>
      </trkpt>
      <trkpt lat="45.91823" lon="3.65588">
        <ele>623.7729</ele>
        <time>2017-02-22T14:07:21Z</time>
      </trkpt>
      <trkpt lat="45.91818" lon="3.65598">
        <ele>622.47272</ele>
        <time>2017-02-22T14:07:28Z</time>
      </trkpt>
      <trkpt lat="45.91812" lon="3.65605">
        <ele>621.57247333333</ele>
        <time>2017-02-22T14:07:29Z</time>
      </trkpt>
      <trkpt lat="45.91807" lon="3.65613">
        <ele>620.57227333333</ele>
        <time>2017-02-22T14:07:33Z</time>
      </trkpt>
      <trkpt lat="45.91799" lon="3.65622">
        <ele>619.47197333333</ele>
        <time>2017-02-22T14:07:37Z</time>
      </trkpt>
      <trkpt lat="45.91788" lon="3.65636">
        <ele>617.97152</ele>
        <time>2017-02-22T14:07:42Z</time>
      </trkpt>
      <trkpt lat="45.91783" lon="3.65643">
        <ele>616.87133333333</ele>
        <time>2017-02-22T14:07:46Z</time>
      </trkpt>
      <trkpt lat="45.91776" lon="3.6565">
        <ele>615.67105333333</ele>
        <time>2017-02-22T14:07:50Z</time>
      </trkpt>
      <trkpt lat="45.91769" lon="3.65657">
        <ele>614.67075333333</ele>
        <time>2017-02-22T14:07:54Z</time>
      </trkpt>
      <trkpt lat="45.91765" lon="3.65661">
        <ele>613.9706</ele>
        <time>2017-02-22T14:08:00Z</time>
      </trkpt>
      <trkpt lat="45.917" lon="3.65629">
        <ele>619.16801333333</ele>
        <time>2017-02-22T14:08:00Z</time>
      </trkpt>
      <trkpt lat="45.91697" lon="3.65648">
        <ele>622.46786666667</ele>
        <time>2017-02-22T14:08:05Z</time>
      </trkpt>
      <trkpt lat="45.91697" lon="3.6565">
        <ele>622.96788666667</ele>
        <time>2017-02-22T14:08:07Z</time>
      </trkpt>
      <trkpt lat="45.91684" lon="3.65652">
        <ele>624.96735333333</ele>
        <time>2017-02-22T14:08:11Z</time>
      </trkpt>
      <trkpt lat="45.91708" lon="3.65663">
        <ele>629.46830666667</ele>
        <time>2017-02-22T14:08:15Z</time>
      </trkpt>
      <trkpt lat="45.91701" lon="3.65655">
        <ele>632.06803333333</ele>
        <time>2017-02-22T14:08:18Z</time>
      </trkpt>
      <trkpt lat="45.91669" lon="3.65601">
        <ele>648.76675333333</ele>
        <time>2017-02-22T14:08:31Z</time>
      </trkpt>
      <trkpt lat="45.91653" lon="3.65582">
        <ele>654.76612</ele>
        <time>2017-02-22T14:08:35Z</time>
      </trkpt>
      <trkpt lat="45.91641" lon="3.65574">
        <ele>657.56563333333</ele>
        <time>2017-02-22T14:08:40Z</time>
      </trkpt>
      <trkpt lat="45.91578" lon="3.65522">
        <ele>664.76312666667</ele>
        <time>2017-02-22T14:08:53Z</time>
      </trkpt>
      <trkpt lat="45.91557" lon="3.65502">
        <ele>666.76226666667</ele>
        <time>2017-02-22T14:08:58Z</time>
      </trkpt>
      <trkpt lat="45.91541" lon="3.65488">
        <ele>668.86162666667</ele>
        <time>2017-02-22T14:09:02Z</time>
      </trkpt>
      <trkpt lat="45.91528" lon="3.65464">
        <ele>678.46113333333</ele>
        <time>2017-02-22T14:09:07Z</time>
      </trkpt>
      <trkpt lat="45.91517" lon="3.6545">
        <ele>683.56066</ele>
        <time>2017-02-22T14:09:10Z</time>
      </trkpt>
      <trkpt lat="45.91502" lon="3.65433">
        <ele>687.36008666667</ele>
        <time>2017-02-22T14:09:14Z</time>
      </trkpt>
      <trkpt lat="45.91491" lon="3.65411">
        <ele>691.05962</ele>
        <time>2017-02-22T14:09:19Z</time>
      </trkpt>
      <trkpt lat="45.91469" lon="3.65373">
        <ele>701.95875333333</ele>
        <time>2017-02-22T14:09:24Z</time>
      </trkpt>
      <trkpt lat="45.91461" lon="3.65347">
        <ele>706.55842</ele>
        <time>2017-02-22T14:09:28Z</time>
      </trkpt>
      <trkpt lat="45.91453" lon="3.65327">
        <ele>712.85812</ele>
        <time>2017-02-22T14:09:32Z</time>
      </trkpt>
      <trkpt lat="45.91444" lon="3.65301">
        <ele>722.45774666667</ele>
        <time>2017-02-22T14:09:37Z</time>
      </trkpt>
      <trkpt lat="45.91437" lon="3.65283">
        <ele>730.05747333333</ele>
        <time>2017-02-22T14:09:41Z</time>
      </trkpt>
      <trkpt lat="45.91431" lon="3.65266">
        <ele>735.45725333333</ele>
        <time>2017-02-22T14:09:45Z</time>
      </trkpt>
      <trkpt lat="45.91425" lon="3.65251">
        <ele>740.657</ele>
        <time>2017-02-22T14:09:49Z</time>
      </trkpt>
      <trkpt lat="45.91417" lon="3.65233">
        <ele>745.75666</ele>
        <time>2017-02-22T14:09:54Z</time>
      </trkpt>
      <trkpt lat="45.91407" lon="3.65223">
        <ele>752.95629333333</ele>
        <time>2017-02-22T14:09:57Z</time>
      </trkpt>
      <trkpt lat="45.91402" lon="3.65217">
        <ele>757.55606666667</ele>
        <time>2017-02-22T14:09:59Z</time>
      </trkpt>
      <trkpt lat="45.91393" lon="3.65203">
        <ele>765.65572666667</ele>
        <time>2017-02-22T14:10:03Z</time>
      </trkpt>
      <trkpt lat="45.91389" lon="3.65186">
        <ele>770.25556666667</ele>
        <time>2017-02-22T14:10:08Z</time>
      </trkpt>
      <trkpt lat="45.91391" lon="3.65168">
        <ele>773.55562</ele>
        <time>2017-02-22T14:10:12Z</time>
      </trkpt>
      <trkpt lat="45.91395" lon="3.65155">
        <ele>774.35578666667</ele>
        <time>2017-02-22T14:10:16Z</time>
      </trkpt>
      <trkpt lat="45.914" lon="3.65144">
        <ele>775.25601333333</ele>
        <time>2017-02-22T14:10:20Z</time>
      </trkpt>
      <trkpt lat="45.91408" lon="3.65125">
        <ele>776.05632</ele>
        <time>2017-02-22T14:10:25Z</time>
      </trkpt>
      <trkpt lat="45.91409" lon="3.65121">
        <ele>776.05636666667</ele>
        <time>2017-02-22T14:10:26Z</time>
      </trkpt>
      <trkpt lat="45.91414" lon="3.65106">
        <ele>775.65657333333</ele>
        <time>2017-02-22T14:10:32Z</time>
      </trkpt>
      <trkpt lat="45.9142" lon="3.65075">
        <ele>776.65679333333</ele>
        <time>2017-02-22T14:10:37Z</time>
      </trkpt>
      <trkpt lat="45.91425" lon="3.65061">
        <ele>775.55698</ele>
        <time>2017-02-22T14:10:41Z</time>
      </trkpt>
      <trkpt lat="45.91428" lon="3.65045">
        <ele>774.75713333333</ele>
        <time>2017-02-22T14:10:46Z</time>
      </trkpt>
      <trkpt lat="45.9143" lon="3.65033">
        <ele>773.9572</ele>
        <time>2017-02-22T14:10:50Z</time>
      </trkpt>
      <trkpt lat="45.91431" lon="3.65019">
        <ele>772.95725333333</ele>
        <time>2017-02-22T14:11:00Z</time>
      </trkpt>
      <trkpt lat="45.91424" lon="3.64979">
        <ele>772.15696</ele>
        <time>2017-02-22T14:11:05Z</time>
      </trkpt>
      <trkpt lat="45.91421" lon="3.64967">
        <ele>771.85684</ele>
        <time>2017-02-22T14:11:09Z</time>
      </trkpt>
      <trkpt lat="45.91417" lon="3.64948">
        <ele>771.35668666667</ele>
        <time>2017-02-22T14:11:14Z</time>
      </trkpt>
      <trkpt lat="45.91419" lon="3.64941">
        <ele>771.35674</ele>
        <time>2017-02-22T14:11:22Z</time>
      </trkpt>
      <trkpt lat="45.9142" lon="3.64913">
        <ele>772.75678666667</ele>
        <time>2017-02-22T14:11:25Z</time>
      </trkpt>
      <trkpt lat="45.91418" lon="3.64904">
        <ele>772.95672</ele>
        <time>2017-02-22T14:11:29Z</time>
      </trkpt>
      <trkpt lat="45.91416" lon="3.64893">
        <ele>772.75664</ele>
        <time>2017-02-22T14:11:34Z</time>
      </trkpt>
      <trkpt lat="45.91414" lon="3.64878">
        <ele>772.85657333333</ele>
        <time>2017-02-22T14:11:39Z</time>
      </trkpt>
      <trkpt lat="45.91414" lon="3.6487">
        <ele>773.05655333333</ele>
        <time>2017-02-22T14:11:41Z</time>
      </trkpt>
      <trkpt lat="45.91415" lon="3.64834">
        <ele>772.55661333333</ele>
        <time>2017-02-22T14:11:48Z</time>
      </trkpt>
      <trkpt lat="45.9141" lon="3.64758">
        <ele>770.9564</ele>
        <time>2017-02-22T14:12:00Z</time>
      </trkpt>
      <trkpt lat="45.9139" lon="3.64727">
        <ele>768.95559333333</ele>
        <time>2017-02-22T14:12:05Z</time>
      </trkpt>
      <trkpt lat="45.91392" lon="3.64717">
        <ele>766.85566</ele>
        <time>2017-02-22T14:12:09Z</time>
      </trkpt>
      <trkpt lat="45.91453" lon="3.64685">
        <ele>755.0581</ele>
        <time>2017-02-22T14:12:22Z</time>
      </trkpt>
      <trkpt lat="45.91497" lon="3.64668">
        <ele>749.65988666667</ele>
        <time>2017-02-22T14:12:35Z</time>
      </trkpt>
      <trkpt lat="45.91541" lon="3.64643">
        <ele>746.56164</ele>
        <time>2017-02-22T14:12:40Z</time>
      </trkpt>
      <trkpt lat="45.91562" lon="3.6463">
        <ele>745.66246666667</ele>
        <time>2017-02-22T14:12:43Z</time>
      </trkpt>
      <trkpt lat="45.91587" lon="3.64616">
        <ele>744.26348666667</ele>
        <time>2017-02-22T14:12:47Z</time>
      </trkpt>
      <trkpt lat="45.91617" lon="3.64587">
        <ele>743.56466</ele>
        <time>2017-02-22T14:12:52Z</time>
      </trkpt>
      <trkpt lat="45.91633" lon="3.64576">
        <ele>742.56532666667</ele>
        <time>2017-02-22T14:12:55Z</time>
      </trkpt>
      <trkpt lat="45.91649" lon="3.64565">
        <ele>741.76596666667</ele>
        <time>2017-02-22T14:12:58Z</time>
      </trkpt>
      <trkpt lat="45.91668" lon="3.64549">
        <ele>740.26671333333</ele>
        <time>2017-02-22T14:13:02Z</time>
      </trkpt>
      <trkpt lat="45.91687" lon="3.64537">
        <ele>738.26746</ele>
        <time>2017-02-22T14:13:06Z</time>
      </trkpt>
      <trkpt lat="45.91696" lon="3.64538">
        <ele>736.56783333333</ele>
        <time>2017-02-22T14:13:07Z</time>
      </trkpt>
      <trkpt lat="45.91701" lon="3.64539">
        <ele>736.06802</ele>
        <time>2017-02-22T14:13:12Z</time>
      </trkpt>
      <trkpt lat="45.91743" lon="3.64525">
        <ele>730.06970666667</ele>
        <time>2017-02-22T14:13:17Z</time>
      </trkpt>
      <trkpt lat="45.91763" lon="3.6451">
        <ele>727.67051333333</ele>
        <time>2017-02-22T14:13:21Z</time>
      </trkpt>
      <trkpt lat="45.91773" lon="3.64486">
        <ele>726.07092666667</ele>
        <time>2017-02-22T14:13:24Z</time>
      </trkpt>
      <trkpt lat="45.91777" lon="3.64434">
        <ele>723.27108</ele>
        <time>2017-02-22T14:13:29Z</time>
      </trkpt>
      <trkpt lat="45.91778" lon="3.64425">
        <ele>722.7711</ele>
        <time>2017-02-22T14:13:30Z</time>
      </trkpt>
      <trkpt lat="45.91803" lon="3.64354">
        <ele>718.07212</ele>
        <time>2017-02-22T14:13:36Z</time>
      </trkpt>
      <trkpt lat="45.91842" lon="3.6428">
        <ele>712.87366</ele>
        <time>2017-02-22T14:13:41Z</time>
      </trkpt>
      <trkpt lat="45.91861" lon="3.64206">
        <ele>708.57443333333</ele>
        <time>2017-02-22T14:13:45Z</time>
      </trkpt>
      <trkpt lat="45.91864" lon="3.64153">
        <ele>706.77454</ele>
        <time>2017-02-22T14:13:48Z</time>
      </trkpt>
      <trkpt lat="45.91864" lon="3.6411">
        <ele>703.37456666667</ele>
        <time>2017-02-22T14:13:52Z</time>
      </trkpt>
      <trkpt lat="45.91869" lon="3.64094">
        <ele>702.17477333333</ele>
        <time>2017-02-22T14:13:57Z</time>
      </trkpt>
      <trkpt lat="45.91869" lon="3.64094">
        <ele>702.17477333333</ele>
        <time>2017-02-22T14:14:21Z</time>
      </trkpt>
      <trkpt lat="45.91864" lon="3.64083">
        <ele>706.77454</ele>
        <time>2017-02-22T14:14:24Z</time>
      </trkpt>
      <trkpt lat="45.91869" lon="3.64076">
        <ele>706.97476666667</ele>
        <time>2017-02-22T14:14:35Z</time>
      </trkpt>
      <trkpt lat="45.91885" lon="3.64061">
        <ele>704.9754</ele>
        <time>2017-02-22T14:14:39Z</time>
      </trkpt>
      <trkpt lat="45.91899" lon="3.64043">
        <ele>701.57594666667</ele>
        <time>2017-02-22T14:14:43Z</time>
      </trkpt>
      <trkpt lat="45.91916" lon="3.64033">
        <ele>699.27664</ele>
        <time>2017-02-22T14:14:47Z</time>
      </trkpt>
      <trkpt lat="45.91936" lon="3.64023">
        <ele>698.77745333333</ele>
        <time>2017-02-22T14:14:53Z</time>
      </trkpt>
      <trkpt lat="45.91956" lon="3.64039">
        <ele>696.37824</ele>
        <time>2017-02-22T14:14:58Z</time>
      </trkpt>
      <trkpt lat="45.91966" lon="3.64043">
        <ele>694.87862</ele>
        <time>2017-02-22T14:15:00Z</time>
      </trkpt>
      <trkpt lat="45.91977" lon="3.64038">
        <ele>693.17908666667</ele>
        <time>2017-02-22T14:15:05Z</time>
      </trkpt>
      <trkpt lat="45.91995" lon="3.64014">
        <ele>690.47978666667</ele>
        <time>2017-02-22T14:15:10Z</time>
      </trkpt>
      <trkpt lat="45.92013" lon="3.63925">
        <ele>687.48051333333</ele>
        <time>2017-02-22T14:15:23Z</time>
      </trkpt>
      <trkpt lat="45.92018" lon="3.63884">
        <ele>687.28072</ele>
        <time>2017-02-22T14:15:28Z</time>
      </trkpt>
      <trkpt lat="45.92022" lon="3.63857">
        <ele>685.98087333333</ele>
        <time>2017-02-22T14:15:32Z</time>
      </trkpt>
      <trkpt lat="45.92027" lon="3.6383">
        <ele>685.18108</ele>
        <time>2017-02-22T14:15:36Z</time>
      </trkpt>
      <trkpt lat="45.92032" lon="3.63796">
        <ele>683.98128666667</ele>
        <time>2017-02-22T14:15:41Z</time>
      </trkpt>
      <trkpt lat="45.92034" lon="3.63776">
        <ele>682.88134666667</ele>
        <time>2017-02-22T14:15:42Z</time>
      </trkpt>
      <trkpt lat="45.92004" lon="3.63718">
        <ele>676.28014666667</ele>
        <time>2017-02-22T14:15:55Z</time>
      </trkpt>
      <trkpt lat="45.91971" lon="3.63697">
        <ele>674.47882666667</ele>
        <time>2017-02-22T14:16:00Z</time>
      </trkpt>
      <trkpt lat="45.91942" lon="3.63685">
        <ele>670.87768</ele>
        <time>2017-02-22T14:16:04Z</time>
      </trkpt>
      <trkpt lat="45.91929" lon="3.63671">
        <ele>668.57716</ele>
        <time>2017-02-22T14:16:07Z</time>
      </trkpt>
      <trkpt lat="45.91917" lon="3.63664">
        <ele>667.37668666667</ele>
        <time>2017-02-22T14:16:12Z</time>
      </trkpt>
      <trkpt lat="45.91909" lon="3.63659">
        <ele>665.97637333333</ele>
        <time>2017-02-22T14:16:16Z</time>
      </trkpt>
      <trkpt lat="45.91902" lon="3.63658">
        <ele>665.07606</ele>
        <time>2017-02-22T14:16:21Z</time>
      </trkpt>
      <trkpt lat="45.91895" lon="3.63659">
        <ele>664.2758</ele>
        <time>2017-02-22T14:16:24Z</time>
      </trkpt>
      <trkpt lat="45.91887" lon="3.63661">
        <ele>662.57546666667</ele>
        <time>2017-02-22T14:16:32Z</time>
      </trkpt>
      <trkpt lat="45.91873" lon="3.63665">
        <ele>662.97492</ele>
        <time>2017-02-22T14:16:36Z</time>
      </trkpt>
      <trkpt lat="45.91867" lon="3.6367">
        <ele>662.77467333333</ele>
        <time>2017-02-22T14:16:45Z</time>
      </trkpt>
      <trkpt lat="45.91853" lon="3.63676">
        <ele>663.07410666667</ele>
        <time>2017-02-22T14:16:49Z</time>
      </trkpt>
      <trkpt lat="45.91847" lon="3.63681">
        <ele>662.87387333333</ele>
        <time>2017-02-22T14:16:51Z</time>
      </trkpt>
      <trkpt lat="45.91837" lon="3.63696">
        <ele>661.07349333333</ele>
        <time>2017-02-22T14:16:58Z</time>
      </trkpt>
      <trkpt lat="45.9183" lon="3.63704">
        <ele>659.97321333333</ele>
        <time>2017-02-22T14:17:02Z</time>
      </trkpt>
      <trkpt lat="45.91823" lon="3.63713">
        <ele>658.27290666667</ele>
        <time>2017-02-22T14:17:06Z</time>
      </trkpt>
      <trkpt lat="45.91816" lon="3.63721">
        <ele>656.47264666667</ele>
        <time>2017-02-22T14:17:14Z</time>
      </trkpt>
      <trkpt lat="45.91805" lon="3.63737">
        <ele>654.77218666667</ele>
        <time>2017-02-22T14:17:17Z</time>
      </trkpt>
      <trkpt lat="45.91793" lon="3.63745">
        <ele>653.17172666667</ele>
        <time>2017-02-22T14:17:22Z</time>
      </trkpt>
      <trkpt lat="45.91777" lon="3.63752">
        <ele>651.77109333333</ele>
        <time>2017-02-22T14:17:26Z</time>
      </trkpt>
      <trkpt lat="45.91768" lon="3.63761">
        <ele>651.17070666667</ele>
        <time>2017-02-22T14:17:29Z</time>
      </trkpt>
      <trkpt lat="45.91747" lon="3.6378">
        <ele>649.56987333333</ele>
        <time>2017-02-22T14:17:36Z</time>
      </trkpt>
      <trkpt lat="45.91711" lon="3.63833">
        <ele>645.26843333333</ele>
        <time>2017-02-22T14:17:38Z</time>
      </trkpt>
      <trkpt lat="45.91686" lon="3.6387">
        <ele>641.56744</ele>
        <time>2017-02-22T14:17:46Z</time>
      </trkpt>
      <trkpt lat="45.91669" lon="3.63878">
        <ele>640.36675333333</ele>
        <time>2017-02-22T14:17:51Z</time>
      </trkpt>
      <trkpt lat="45.91663" lon="3.63877">
        <ele>639.96652666667</ele>
        <time>2017-02-22T14:17:53Z</time>
      </trkpt>
      <trkpt lat="45.91656" lon="3.63877">
        <ele>639.26622666667</ele>
        <time>2017-02-22T14:17:57Z</time>
      </trkpt>
      <trkpt lat="45.91646" lon="3.6388">
        <ele>638.36585333333</ele>
        <time>2017-02-22T14:18:00Z</time>
      </trkpt>
      <trkpt lat="45.91637" lon="3.6389">
        <ele>639.46549333333</ele>
        <time>2017-02-22T14:18:06Z</time>
      </trkpt>
      <trkpt lat="45.9163" lon="3.63896">
        <ele>639.86520666667</ele>
        <time>2017-02-22T14:18:10Z</time>
      </trkpt>
      <trkpt lat="45.91625" lon="3.63906">
        <ele>639.06499333333</ele>
        <time>2017-02-22T14:18:15Z</time>
      </trkpt>
      <trkpt lat="45.9162" lon="3.63912">
        <ele>638.36479333333</ele>
        <time>2017-02-22T14:18:18Z</time>
      </trkpt>
      <trkpt lat="45.91614" lon="3.6392">
        <ele>637.86455333333</ele>
        <time>2017-02-22T14:18:21Z</time>
      </trkpt>
      <trkpt lat="45.91609" lon="3.63926">
        <ele>637.36436666667</ele>
        <time>2017-02-22T14:18:25Z</time>
      </trkpt>
      <trkpt lat="45.91597" lon="3.6393">
        <ele>636.26388</ele>
        <time>2017-02-22T14:18:27Z</time>
      </trkpt>
      <trkpt lat="45.91582" lon="3.63928">
        <ele>634.46326666667</ele>
        <time>2017-02-22T14:18:32Z</time>
      </trkpt>
      <trkpt lat="45.91572" lon="3.63923">
        <ele>632.56287333333</ele>
        <time>2017-02-22T14:18:36Z</time>
      </trkpt>
      <trkpt lat="45.9157" lon="3.6391">
        <ele>642.86281333333</ele>
        <time>2017-02-22T14:18:57Z</time>
      </trkpt>
      <trkpt lat="45.91561" lon="3.63899">
        <ele>641.86242666667</ele>
        <time>2017-02-22T14:19:02Z</time>
      </trkpt>
      <trkpt lat="45.91555" lon="3.63889">
        <ele>640.76220666667</ele>
        <time>2017-02-22T14:19:06Z</time>
      </trkpt>
      <trkpt lat="45.91551" lon="3.63882">
        <ele>639.56202</ele>
        <time>2017-02-22T14:19:17Z</time>
      </trkpt>
      <trkpt lat="45.91547" lon="3.63867">
        <ele>637.66188</ele>
        <time>2017-02-22T14:19:19Z</time>
      </trkpt>
      <trkpt lat="45.9155" lon="3.63859">
        <ele>637.46199333333</ele>
        <time>2017-02-22T14:19:26Z</time>
      </trkpt>
      <trkpt lat="45.91554" lon="3.6385">
        <ele>636.96214666667</ele>
        <time>2017-02-22T14:19:27Z</time>
      </trkpt>
      <trkpt lat="45.91559" lon="3.63836">
        <ele>636.96236666667</ele>
        <time>2017-02-22T14:19:33Z</time>
      </trkpt>
      <trkpt lat="45.91558" lon="3.63806">
        <ele>639.36231333333</ele>
        <time>2017-02-22T14:19:36Z</time>
      </trkpt>
      <trkpt lat="45.91553" lon="3.63796">
        <ele>638.36210666667</ele>
        <time>2017-02-22T14:19:43Z</time>
      </trkpt>
      <trkpt lat="45.91552" lon="3.63784">
        <ele>637.86206666667</ele>
        <time>2017-02-22T14:19:49Z</time>
      </trkpt>
      <trkpt lat="45.91552" lon="3.63779">
        <ele>637.86206</ele>
        <time>2017-02-22T14:19:52Z</time>
      </trkpt>
      <trkpt lat="45.91553" lon="3.63766">
        <ele>638.86210666667</ele>
        <time>2017-02-22T14:19:54Z</time>
      </trkpt>
      <trkpt lat="45.91554" lon="3.6375">
        <ele>640.66215333333</ele>
        <time>2017-02-22T14:19:58Z</time>
      </trkpt>
      <trkpt lat="45.91544" lon="3.63738">
        <ele>642.76177333333</ele>
        <time>2017-02-22T14:20:02Z</time>
      </trkpt>
      <trkpt lat="45.91538" lon="3.63734">
        <ele>644.86151333333</ele>
        <time>2017-02-22T14:20:06Z</time>
      </trkpt>
      <trkpt lat="45.91535" lon="3.63729">
        <ele>646.36138</ele>
        <time>2017-02-22T14:20:07Z</time>
      </trkpt>
      <trkpt lat="45.91518" lon="3.63721">
        <ele>647.56072666667</ele>
        <time>2017-02-22T14:20:19Z</time>
      </trkpt>
      <trkpt lat="45.91467" lon="3.63708">
        <ele>649.55867333333</ele>
        <time>2017-02-22T14:20:32Z</time>
      </trkpt>
      <trkpt lat="45.91437" lon="3.63692">
        <ele>656.55746</ele>
        <time>2017-02-22T14:20:36Z</time>
      </trkpt>
      <trkpt lat="45.91408" lon="3.63678">
        <ele>662.05632666667</ele>
        <time>2017-02-22T14:20:40Z</time>
      </trkpt>
      <trkpt lat="45.91302" lon="3.63621">
        <ele>665.55206</ele>
        <time>2017-02-22T14:20:53Z</time>
      </trkpt>
      <trkpt lat="45.91293" lon="3.63605">
        <ele>665.15172666667</ele>
        <time>2017-02-22T14:20:59Z</time>
      </trkpt>
      <trkpt lat="45.9128" lon="3.6355">
        <ele>663.9512</ele>
        <time>2017-02-22T14:21:03Z</time>
      </trkpt>
      <trkpt lat="45.91272" lon="3.63532">
        <ele>663.05086</ele>
        <time>2017-02-22T14:21:06Z</time>
      </trkpt>
      <trkpt lat="45.91266" lon="3.63524">
        <ele>662.65063333333</ele>
        <time>2017-02-22T14:21:12Z</time>
      </trkpt>
      <trkpt lat="45.91241" lon="3.635">
        <ele>660.44964666667</ele>
        <time>2017-02-22T14:21:16Z</time>
      </trkpt>
      <trkpt lat="45.91217" lon="3.63485">
        <ele>657.64866</ele>
        <time>2017-02-22T14:21:20Z</time>
      </trkpt>
      <trkpt lat="45.91201" lon="3.63475">
        <ele>655.74804666667</ele>
        <time>2017-02-22T14:21:24Z</time>
      </trkpt>
      <trkpt lat="45.91148" lon="3.63468">
        <ele>650.64592666667</ele>
        <time>2017-02-22T14:21:34Z</time>
      </trkpt>
      <trkpt lat="45.91134" lon="3.63483">
        <ele>649.14534</ele>
        <time>2017-02-22T14:21:37Z</time>
      </trkpt>
      <trkpt lat="45.91114" lon="3.63502">
        <ele>648.24455333333</ele>
        <time>2017-02-22T14:21:41Z</time>
      </trkpt>
      <trkpt lat="45.91099" lon="3.63514">
        <ele>646.34396666667</ele>
        <time>2017-02-22T14:21:46Z</time>
      </trkpt>
      <trkpt lat="45.91092" lon="3.63518">
        <ele>645.44366</ele>
        <time>2017-02-22T14:21:48Z</time>
      </trkpt>
      <trkpt lat="45.91056" lon="3.63521">
        <ele>641.14223333333</ele>
        <time>2017-02-22T14:21:59Z</time>
      </trkpt>
      <trkpt lat="45.91043" lon="3.63508">
        <ele>639.14170666667</ele>
        <time>2017-02-22T14:22:03Z</time>
      </trkpt>
      <trkpt lat="45.91033" lon="3.63493">
        <ele>636.84132666667</ele>
        <time>2017-02-22T14:22:07Z</time>
      </trkpt>
      <trkpt lat="45.91025" lon="3.63483">
        <ele>635.14099333333</ele>
        <time>2017-02-22T14:22:12Z</time>
      </trkpt>
      <trkpt lat="45.91023" lon="3.63459">
        <ele>634.04090666667</ele>
        <time>2017-02-22T14:22:17Z</time>
      </trkpt>
      <trkpt lat="45.91019" lon="3.6345">
        <ele>634.24076666667</ele>
        <time>2017-02-22T14:22:19Z</time>
      </trkpt>
      <trkpt lat="45.91017" lon="3.63436">
        <ele>633.74066</ele>
        <time>2017-02-22T14:22:23Z</time>
      </trkpt>
      <trkpt lat="45.91016" lon="3.63433">
        <ele>633.54065333333</ele>
        <time>2017-02-22T14:22:36Z</time>
      </trkpt>
      <trkpt lat="45.90965" lon="3.63387">
        <ele>641.73858</ele>
        <time>2017-02-22T14:22:41Z</time>
      </trkpt>
      <trkpt lat="45.90959" lon="3.6339">
        <ele>641.53834</ele>
        <time>2017-02-22T14:22:44Z</time>
      </trkpt>
      <trkpt lat="45.90936" lon="3.63403">
        <ele>641.93742</ele>
        <time>2017-02-22T14:22:57Z</time>
      </trkpt>
      <trkpt lat="45.90922" lon="3.6341">
        <ele>642.63689333333</ele>
        <time>2017-02-22T14:23:02Z</time>
      </trkpt>
      <trkpt lat="45.90912" lon="3.63415">
        <ele>642.73648</ele>
        <time>2017-02-22T14:23:06Z</time>
      </trkpt>
      <trkpt lat="45.90904" lon="3.63417">
        <ele>643.13614</ele>
        <time>2017-02-22T14:23:11Z</time>
      </trkpt>
      <trkpt lat="45.90898" lon="3.63419">
        <ele>643.23592</ele>
        <time>2017-02-22T14:23:15Z</time>
      </trkpt>
      <trkpt lat="45.90891" lon="3.63419">
        <ele>643.53563333333</ele>
        <time>2017-02-22T14:23:19Z</time>
      </trkpt>
      <trkpt lat="45.90883" lon="3.63419">
        <ele>644.13531333333</ele>
        <time>2017-02-22T14:23:23Z</time>
      </trkpt>
      <trkpt lat="45.90876" lon="3.63418">
        <ele>645.23504</ele>
        <time>2017-02-22T14:23:27Z</time>
      </trkpt>
      <trkpt lat="45.90861" lon="3.63419">
        <ele>649.23442666667</ele>
        <time>2017-02-22T14:23:36Z</time>
      </trkpt>
      <trkpt lat="45.90859" lon="3.63417">
        <ele>649.93434</ele>
        <time>2017-02-22T14:23:38Z</time>
      </trkpt>
      <trkpt lat="45.90851" lon="3.63428">
        <ele>665.03402666667</ele>
        <time>2017-02-22T14:23:49Z</time>
      </trkpt>
      <trkpt lat="45.9083" lon="3.63419">
        <ele>669.23319333333</ele>
        <time>2017-02-22T14:24:00Z</time>
      </trkpt>
      <trkpt lat="45.90813" lon="3.63416">
        <ele>671.93250666667</ele>
        <time>2017-02-22T14:24:06Z</time>
      </trkpt>
      <trkpt lat="45.90802" lon="3.6341">
        <ele>674.33209333333</ele>
        <time>2017-02-22T14:24:10Z</time>
      </trkpt>
      <trkpt lat="45.90797" lon="3.63405">
        <ele>675.83188</ele>
        <time>2017-02-22T14:24:12Z</time>
      </trkpt>
      <trkpt lat="45.90785" lon="3.63397">
        <ele>678.03141333333</ele>
        <time>2017-02-22T14:24:16Z</time>
      </trkpt>
      <trkpt lat="45.90776" lon="3.63392">
        <ele>679.43103333333</ele>
        <time>2017-02-22T14:24:19Z</time>
      </trkpt>
      <trkpt lat="45.90769" lon="3.6339">
        <ele>680.13074</ele>
        <time>2017-02-22T14:24:24Z</time>
      </trkpt>
      <trkpt lat="45.90752" lon="3.63384">
        <ele>682.33007333333</ele>
        <time>2017-02-22T14:24:26Z</time>
      </trkpt>
      <trkpt lat="45.90745" lon="3.63382">
        <ele>683.52980666667</ele>
        <time>2017-02-22T14:24:36Z</time>
      </trkpt>
      <trkpt lat="45.90706" lon="3.6337">
        <ele>688.32825333333</ele>
        <time>2017-02-22T14:24:40Z</time>
      </trkpt>
      <trkpt lat="45.907" lon="3.63368">
        <ele>688.32799333333</ele>
        <time>2017-02-22T14:24:48Z</time>
      </trkpt>
      <trkpt lat="45.90683" lon="3.63364">
        <ele>689.32730666667</ele>
        <time>2017-02-22T14:24:48Z</time>
      </trkpt>
      <trkpt lat="45.90635" lon="3.63356">
        <ele>691.72541333333</ele>
        <time>2017-02-22T14:25:00Z</time>
      </trkpt>
      <trkpt lat="45.90615" lon="3.63353">
        <ele>691.02460666667</ele>
        <time>2017-02-22T14:25:04Z</time>
      </trkpt>
      <trkpt lat="45.90602" lon="3.63341">
        <ele>690.52406</ele>
        <time>2017-02-22T14:25:07Z</time>
      </trkpt>
      <trkpt lat="45.90599" lon="3.63338">
        <ele>690.12394</ele>
        <time>2017-02-22T14:25:09Z</time>
      </trkpt>
      <trkpt lat="45.90602" lon="3.63282">
        <ele>690.32407333333</ele>
        <time>2017-02-22T14:25:22Z</time>
      </trkpt>
      <trkpt lat="45.90606" lon="3.63189">
        <ele>689.42422666667</ele>
        <time>2017-02-22T14:25:35Z</time>
      </trkpt>
      <trkpt lat="45.90599" lon="3.63157">
        <ele>689.92396</ele>
        <time>2017-02-22T14:25:40Z</time>
      </trkpt>
      <trkpt lat="45.90587" lon="3.63135">
        <ele>690.22348</ele>
        <time>2017-02-22T14:25:44Z</time>
      </trkpt>
      <trkpt lat="45.90569" lon="3.63105">
        <ele>690.52276</ele>
        <time>2017-02-22T14:25:48Z</time>
      </trkpt>
      <trkpt lat="45.90557" lon="3.63082">
        <ele>690.92227333333</ele>
        <time>2017-02-22T14:25:53Z</time>
      </trkpt>
      <trkpt lat="45.90554" lon="3.63075">
        <ele>690.52216666667</ele>
        <time>2017-02-22T14:25:54Z</time>
      </trkpt>
      <trkpt lat="45.9055" lon="3.63062">
        <ele>690.62198</ele>
        <time>2017-02-22T14:26:00Z</time>
      </trkpt>
      <trkpt lat="45.9054" lon="3.63015">
        <ele>690.22160666667</ele>
        <time>2017-02-22T14:26:03Z</time>
      </trkpt>
      <trkpt lat="45.9054" lon="3.62984">
        <ele>691.52159333333</ele>
        <time>2017-02-22T14:26:08Z</time>
      </trkpt>
      <trkpt lat="45.90542" lon="3.62978">
        <ele>691.82169333333</ele>
        <time>2017-02-22T14:26:16Z</time>
      </trkpt>
      <trkpt lat="45.90567" lon="3.62955">
        <ele>692.22266</ele>
        <time>2017-02-22T14:26:16Z</time>
      </trkpt>
      <trkpt lat="45.906" lon="3.62917">
        <ele>692.624</ele>
        <time>2017-02-22T14:26:29Z</time>
      </trkpt>
      <trkpt lat="45.90614" lon="3.62909">
        <ele>694.02455333333</ele>
        <time>2017-02-22T14:26:36Z</time>
      </trkpt>
      <trkpt lat="45.90619" lon="3.62909">
        <ele>693.72475333333</ele>
        <time>2017-02-22T14:26:38Z</time>
      </trkpt>
      <trkpt lat="45.90645" lon="3.62904">
        <ele>693.82578</ele>
        <time>2017-02-22T14:26:51Z</time>
      </trkpt>
      <trkpt lat="45.90655" lon="3.62894">
        <ele>693.8262</ele>
        <time>2017-02-22T14:26:55Z</time>
      </trkpt>
      <trkpt lat="45.90662" lon="3.62889">
        <ele>693.52646</ele>
        <time>2017-02-22T14:27:00Z</time>
      </trkpt>
      <trkpt lat="45.90669" lon="3.62884">
        <ele>692.42675333333</ele>
        <time>2017-02-22T14:27:04Z</time>
      </trkpt>
      <trkpt lat="45.90677" lon="3.62881">
        <ele>691.42708</ele>
        <time>2017-02-22T14:27:08Z</time>
      </trkpt>
      <trkpt lat="45.90683" lon="3.62879">
        <ele>690.72732</ele>
        <time>2017-02-22T14:27:14Z</time>
      </trkpt>
      <trkpt lat="45.90709" lon="3.62866">
        <ele>689.22834</ele>
        <time>2017-02-22T14:27:21Z</time>
      </trkpt>
      <trkpt lat="45.90721" lon="3.6286">
        <ele>688.42885333333</ele>
        <time>2017-02-22T14:27:24Z</time>
      </trkpt>
      <trkpt lat="45.90756" lon="3.62836">
        <ele>687.03023333333</ele>
        <time>2017-02-22T14:27:36Z</time>
      </trkpt>
      <trkpt lat="45.90759" lon="3.62829">
        <ele>687.03034</ele>
        <time>2017-02-22T14:27:38Z</time>
      </trkpt>
      <trkpt lat="45.90794" lon="3.62815">
        <ele>687.03174</ele>
        <time>2017-02-22T14:27:47Z</time>
      </trkpt>
      <trkpt lat="45.90813" lon="3.62798">
        <ele>686.63252</ele>
        <time>2017-02-22T14:27:53Z</time>
      </trkpt>
      <trkpt lat="45.90824" lon="3.62784">
        <ele>685.63295333333</ele>
        <time>2017-02-22T14:27:57Z</time>
      </trkpt>
      <trkpt lat="45.90834" lon="3.62768">
        <ele>684.53337333333</ele>
        <time>2017-02-22T14:28:01Z</time>
      </trkpt>
      <trkpt lat="45.90848" lon="3.62752">
        <ele>683.33393333333</ele>
        <time>2017-02-22T14:28:06Z</time>
      </trkpt>
      <trkpt lat="45.90861" lon="3.62742">
        <ele>681.73442666667</ele>
        <time>2017-02-22T14:28:09Z</time>
      </trkpt>
      <trkpt lat="45.90871" lon="3.62734">
        <ele>680.53483333333</ele>
        <time>2017-02-22T14:28:13Z</time>
      </trkpt>
      <trkpt lat="45.90875" lon="3.62731">
        <ele>679.835</ele>
        <time>2017-02-22T14:28:15Z</time>
      </trkpt>
      <trkpt lat="45.90885" lon="3.62721">
        <ele>678.03541333333</ele>
        <time>2017-02-22T14:28:19Z</time>
      </trkpt>
      <trkpt lat="45.90914" lon="3.627">
        <ele>673.73656</ele>
        <time>2017-02-22T14:28:31Z</time>
      </trkpt>
      <trkpt lat="45.90921" lon="3.62695">
        <ele>672.63683333333</ele>
        <time>2017-02-22T14:28:33Z</time>
      </trkpt>
      <trkpt lat="45.90946" lon="3.62671">
        <ele>668.83782666667</ele>
        <time>2017-02-22T14:28:38Z</time>
      </trkpt>
      <trkpt lat="45.90981" lon="3.62604">
        <ele>661.93924666667</ele>
        <time>2017-02-22T14:28:52Z</time>
      </trkpt>
      <trkpt lat="45.91009" lon="3.62546">
        <ele>660.24034</ele>
        <time>2017-02-22T14:28:57Z</time>
      </trkpt>
      <trkpt lat="45.91019" lon="3.62511">
        <ele>659.14076</ele>
        <time>2017-02-22T14:29:02Z</time>
      </trkpt>
      <trkpt lat="45.91032" lon="3.62488">
        <ele>657.74126666667</ele>
        <time>2017-02-22T14:29:07Z</time>
      </trkpt>
      <trkpt lat="45.91038" lon="3.62475">
        <ele>656.24150666667</ele>
        <time>2017-02-22T14:29:10Z</time>
      </trkpt>
      <trkpt lat="45.91048" lon="3.62462">
        <ele>654.54193333333</ele>
        <time>2017-02-22T14:29:16Z</time>
      </trkpt>
      <trkpt lat="45.91058" lon="3.6244">
        <ele>656.44230666667</ele>
        <time>2017-02-22T14:29:29Z</time>
      </trkpt>
      <trkpt lat="45.91058" lon="3.62439">
        <ele>657.1423</ele>
        <time>2017-02-22T14:29:43Z</time>
      </trkpt>
      <trkpt lat="45.91074" lon="3.62411">
        <ele>662.74297333333</ele>
        <time>2017-02-22T14:29:47Z</time>
      </trkpt>
      <trkpt lat="45.91093" lon="3.62353">
        <ele>663.64371333333</ele>
        <time>2017-02-22T14:29:59Z</time>
      </trkpt>
      <trkpt lat="45.91094" lon="3.6234">
        <ele>663.34377333333</ele>
        <time>2017-02-22T14:30:01Z</time>
      </trkpt>
      <trkpt lat="45.91095" lon="3.62323">
        <ele>663.34380666667</ele>
        <time>2017-02-22T14:30:06Z</time>
      </trkpt>
      <trkpt lat="45.91104" lon="3.62298">
        <ele>664.14414</ele>
        <time>2017-02-22T14:30:11Z</time>
      </trkpt>
      <trkpt lat="45.91113" lon="3.62275">
        <ele>666.44452</ele>
        <time>2017-02-22T14:30:15Z</time>
      </trkpt>
      <trkpt lat="45.91131" lon="3.62256">
        <ele>666.04523333333</ele>
        <time>2017-02-22T14:30:18Z</time>
      </trkpt>
      <trkpt lat="45.91141" lon="3.62251">
        <ele>665.34562</ele>
        <time>2017-02-22T14:30:23Z</time>
      </trkpt>
      <trkpt lat="45.91173" lon="3.62211">
        <ele>663.04693333333</ele>
        <time>2017-02-22T14:30:27Z</time>
      </trkpt>
      <trkpt lat="45.912" lon="3.62189">
        <ele>661.34798</ele>
        <time>2017-02-22T14:30:31Z</time>
      </trkpt>
      <trkpt lat="45.91218" lon="3.62177">
        <ele>660.44873333333</ele>
        <time>2017-02-22T14:30:36Z</time>
      </trkpt>
      <trkpt lat="45.91229" lon="3.62173">
        <ele>658.74917333333</ele>
        <time>2017-02-22T14:30:39Z</time>
      </trkpt>
      <trkpt lat="45.91241" lon="3.62179">
        <ele>657.94962666667</ele>
        <time>2017-02-22T14:30:44Z</time>
      </trkpt>
      <trkpt lat="45.91251" lon="3.62186">
        <ele>656.45005333333</ele>
        <time>2017-02-22T14:30:48Z</time>
      </trkpt>
      <trkpt lat="45.91263" lon="3.62192">
        <ele>656.65053333333</ele>
        <time>2017-02-22T14:30:53Z</time>
      </trkpt>
      <trkpt lat="45.91285" lon="3.6219">
        <ele>662.6514</ele>
        <time>2017-02-22T14:31:00Z</time>
      </trkpt>
      <trkpt lat="45.91294" lon="3.6218">
        <ele>662.55174666667</ele>
        <time>2017-02-22T14:31:05Z</time>
      </trkpt>
      <trkpt lat="45.91297" lon="3.62168">
        <ele>662.75187333333</ele>
        <time>2017-02-22T14:31:08Z</time>
      </trkpt>
      <trkpt lat="45.91305" lon="3.62162">
        <ele>661.85218</ele>
        <time>2017-02-22T14:31:13Z</time>
      </trkpt>
      <trkpt lat="45.91308" lon="3.62158">
        <ele>661.1523</ele>
        <time>2017-02-22T14:31:15Z</time>
      </trkpt>
      <trkpt lat="45.91331" lon="3.62137">
        <ele>658.45323333333</ele>
        <time>2017-02-22T14:31:28Z</time>
      </trkpt>
      <trkpt lat="45.91351" lon="3.62119">
        <ele>655.65405333333</ele>
        <time>2017-02-22T14:31:36Z</time>
      </trkpt>
      <trkpt lat="45.91357" lon="3.62114">
        <ele>655.05426666667</ele>
        <time>2017-02-22T14:31:38Z</time>
      </trkpt>
      <trkpt lat="45.9136" lon="3.62112">
        <ele>654.55438666667</ele>
        <time>2017-02-22T14:31:51Z</time>
      </trkpt>
      <trkpt lat="45.91409" lon="3.62063">
        <ele>653.45637333333</ele>
        <time>2017-02-22T14:31:56Z</time>
      </trkpt>
      <trkpt lat="45.91419" lon="3.62048">
        <ele>653.25674</ele>
        <time>2017-02-22T14:32:00Z</time>
      </trkpt>
      <trkpt lat="45.91434" lon="3.62029">
        <ele>656.35736666667</ele>
        <time>2017-02-22T14:32:05Z</time>
      </trkpt>
      <trkpt lat="45.91443" lon="3.62011">
        <ele>657.65770666667</ele>
        <time>2017-02-22T14:32:09Z</time>
      </trkpt>
      <trkpt lat="45.91447" lon="3.62">
        <ele>658.55786666667</ele>
        <time>2017-02-22T14:32:11Z</time>
      </trkpt>
      <trkpt lat="45.91449" lon="3.61995">
        <ele>658.95794666667</ele>
        <time>2017-02-22T14:32:17Z</time>
      </trkpt>
      <trkpt lat="45.91466" lon="3.61956">
        <ele>662.25864</ele>
        <time>2017-02-22T14:32:21Z</time>
      </trkpt>
      <trkpt lat="45.91478" lon="3.61926">
        <ele>667.45910666667</ele>
        <time>2017-02-22T14:32:26Z</time>
      </trkpt>
      <trkpt lat="45.91478" lon="3.6191">
        <ele>669.15912</ele>
        <time>2017-02-22T14:32:29Z</time>
      </trkpt>
      <trkpt lat="45.91485" lon="3.61876">
        <ele>671.25939333333</ele>
        <time>2017-02-22T14:32:33Z</time>
      </trkpt>
      <trkpt lat="45.91517" lon="3.61842">
        <ele>670.36068</ele>
        <time>2017-02-22T14:32:37Z</time>
      </trkpt>
      <trkpt lat="45.91526" lon="3.61828">
        <ele>669.56104</ele>
        <time>2017-02-22T14:32:40Z</time>
      </trkpt>
      <trkpt lat="45.91533" lon="3.61798">
        <ele>667.96132</ele>
        <time>2017-02-22T14:32:44Z</time>
      </trkpt>
      <trkpt lat="45.91523" lon="3.6177">
        <ele>666.26093333333</ele>
        <time>2017-02-22T14:32:48Z</time>
      </trkpt>
      <trkpt lat="45.91523" lon="3.61737">
        <ele>664.26090666667</ele>
        <time>2017-02-22T14:32:52Z</time>
      </trkpt>
      <trkpt lat="45.91525" lon="3.61727">
        <ele>663.76098666667</ele>
        <time>2017-02-22T14:32:54Z</time>
      </trkpt>
      <trkpt lat="45.91528" lon="3.61699">
        <ele>659.9611</ele>
        <time>2017-02-22T14:33:00Z</time>
      </trkpt>
      <trkpt lat="45.91536" lon="3.61713">
        <ele>657.76145333333</ele>
        <time>2017-02-22T14:33:04Z</time>
      </trkpt>
      <trkpt lat="45.9155" lon="3.61721">
        <ele>655.462</ele>
        <time>2017-02-22T14:33:08Z</time>
      </trkpt>
      <trkpt lat="45.91558" lon="3.61725">
        <ele>653.16231333333</ele>
        <time>2017-02-22T14:33:12Z</time>
      </trkpt>
      <trkpt lat="45.91561" lon="3.61727">
        <ele>653.06242</ele>
        <time>2017-02-22T14:33:20Z</time>
      </trkpt>
      <trkpt lat="45.91573" lon="3.6173">
        <ele>647.66290666667</ele>
        <time>2017-02-22T14:33:23Z</time>
      </trkpt>
      <trkpt lat="45.91582" lon="3.6173">
        <ele>644.86326</ele>
        <time>2017-02-22T14:33:28Z</time>
      </trkpt>
      <trkpt lat="45.91594" lon="3.61733">
        <ele>641.76376666667</ele>
        <time>2017-02-22T14:33:32Z</time>
      </trkpt>
      <trkpt lat="45.91612" lon="3.61743">
        <ele>638.46449333333</ele>
        <time>2017-02-22T14:33:36Z</time>
      </trkpt>
      <trkpt lat="45.91621" lon="3.61751">
        <ele>636.26484</ele>
        <time>2017-02-22T14:33:40Z</time>
      </trkpt>
      <trkpt lat="45.91628" lon="3.6176">
        <ele>634.4651</ele>
        <time>2017-02-22T14:33:45Z</time>
      </trkpt>
      <trkpt lat="45.91634" lon="3.61768">
        <ele>631.86534666667</ele>
        <time>2017-02-22T14:33:54Z</time>
      </trkpt>
      <trkpt lat="45.91646" lon="3.61808">
        <ele>627.06582666667</ele>
        <time>2017-02-22T14:33:58Z</time>
      </trkpt>
      <trkpt lat="45.91658" lon="3.61834">
        <ele>624.26630666667</ele>
        <time>2017-02-22T14:34:00Z</time>
      </trkpt>
      <trkpt lat="45.91673" lon="3.6185">
        <ele>621.2669</ele>
        <time>2017-02-22T14:34:04Z</time>
      </trkpt>
      <trkpt lat="45.91689" lon="3.61872">
        <ele>618.26755333333</ele>
        <time>2017-02-22T14:34:08Z</time>
      </trkpt>
      <trkpt lat="45.91692" lon="3.61879">
        <ele>617.66768</ele>
        <time>2017-02-22T14:34:13Z</time>
      </trkpt>
      <trkpt lat="45.91722" lon="3.61915">
        <ele>613.26888666667</ele>
        <time>2017-02-22T14:34:18Z</time>
      </trkpt>
      <trkpt lat="45.91725" lon="3.61926">
        <ele>611.16898</ele>
        <time>2017-02-22T14:34:23Z</time>
      </trkpt>
      <trkpt lat="45.91729" lon="3.61934">
        <ele>608.56914</ele>
        <time>2017-02-22T14:34:28Z</time>
      </trkpt>
      <trkpt lat="45.91735" lon="3.6194">
        <ele>603.26938</ele>
        <time>2017-02-22T14:34:37Z</time>
      </trkpt>
      <trkpt lat="45.9174" lon="3.61947">
        <ele>599.76961333333</ele>
        <time>2017-02-22T14:34:43Z</time>
      </trkpt>
      <trkpt lat="45.91747" lon="3.61952">
        <ele>597.96988666667</ele>
        <time>2017-02-22T14:34:49Z</time>
      </trkpt>
      <trkpt lat="45.91754" lon="3.61952">
        <ele>594.17016666667</ele>
        <time>2017-02-22T14:34:55Z</time>
      </trkpt>
      <trkpt lat="45.9176" lon="3.61948">
        <ele>591.87041333333</ele>
        <time>2017-02-22T14:35:00Z</time>
      </trkpt>
      <trkpt lat="45.91764" lon="3.61945">
        <ele>591.07054</ele>
        <time>2017-02-22T14:35:06Z</time>
      </trkpt>
      <trkpt lat="45.91779" lon="3.61942">
        <ele>588.77115333333</ele>
        <time>2017-02-22T14:35:09Z</time>
      </trkpt>
      <trkpt lat="45.91785" lon="3.61941">
        <ele>588.1714</ele>
        <time>2017-02-22T14:35:14Z</time>
      </trkpt>
      <trkpt lat="45.9179" lon="3.61939">
        <ele>587.37161333333</ele>
        <time>2017-02-22T14:35:19Z</time>
      </trkpt>
      <trkpt lat="45.91798" lon="3.61936">
        <ele>587.17193333333</ele>
        <time>2017-02-22T14:35:25Z</time>
      </trkpt>
      <trkpt lat="45.91804" lon="3.61932">
        <ele>588.87214666667</ele>
        <time>2017-02-22T14:35:26Z</time>
      </trkpt>
      <trkpt lat="45.91808" lon="3.61929">
        <ele>590.67233333333</ele>
        <time>2017-02-22T14:35:33Z</time>
      </trkpt>
      <trkpt lat="45.91817" lon="3.61924">
        <ele>593.37269333333</ele>
        <time>2017-02-22T14:35:38Z</time>
      </trkpt>
      <trkpt lat="45.91822" lon="3.61922">
        <ele>598.17288</ele>
        <time>2017-02-22T14:35:43Z</time>
      </trkpt>
      <trkpt lat="45.91826" lon="3.61918">
        <ele>602.07305333333</ele>
        <time>2017-02-22T14:35:48Z</time>
      </trkpt>
      <trkpt lat="45.91834" lon="3.61905">
        <ele>605.37335333333</ele>
        <time>2017-02-22T14:36:00Z</time>
      </trkpt>
      <trkpt lat="45.91838" lon="3.61895">
        <ele>609.57352666667</ele>
        <time>2017-02-22T14:36:06Z</time>
      </trkpt>
      <trkpt lat="45.91842" lon="3.6189">
        <ele>610.87369333333</ele>
        <time>2017-02-22T14:36:14Z</time>
      </trkpt>
      <trkpt lat="45.91849" lon="3.61885">
        <ele>611.47396</ele>
        <time>2017-02-22T14:36:20Z</time>
      </trkpt>
      <trkpt lat="45.91854" lon="3.61879">
        <ele>611.47414</ele>
        <time>2017-02-22T14:36:23Z</time>
      </trkpt>
      <trkpt lat="45.91863" lon="3.61865">
        <ele>610.4745</ele>
        <time>2017-02-22T14:36:31Z</time>
      </trkpt>
      <trkpt lat="45.91869" lon="3.61847">
        <ele>608.87477333333</ele>
        <time>2017-02-22T14:36:36Z</time>
      </trkpt>
      <trkpt lat="45.91879" lon="3.61825">
        <ele>607.67517333333</ele>
        <time>2017-02-22T14:36:41Z</time>
      </trkpt>
      <trkpt lat="45.91883" lon="3.61815">
        <ele>607.37532666667</ele>
        <time>2017-02-22T14:36:43Z</time>
      </trkpt>
      <trkpt lat="45.91896" lon="3.6176">
        <ele>604.07585333333</ele>
        <time>2017-02-22T14:36:55Z</time>
      </trkpt>
      <trkpt lat="45.91892" lon="3.61736">
        <ele>602.77567333333</ele>
        <time>2017-02-22T14:37:00Z</time>
      </trkpt>
      <trkpt lat="45.91899" lon="3.61715">
        <ele>601.77597333333</ele>
        <time>2017-02-22T14:37:03Z</time>
      </trkpt>
      <trkpt lat="45.91902" lon="3.61707">
        <ele>601.17608666667</ele>
        <time>2017-02-22T14:37:07Z</time>
      </trkpt>
      <trkpt lat="45.91908" lon="3.61701">
        <ele>600.37632</ele>
        <time>2017-02-22T14:37:09Z</time>
      </trkpt>
      <trkpt lat="45.91912" lon="3.61694">
        <ele>600.27647333333</ele>
        <time>2017-02-22T14:37:15Z</time>
      </trkpt>
      <trkpt lat="45.91916" lon="3.61684">
        <ele>599.97664</ele>
        <time>2017-02-22T14:37:15Z</time>
      </trkpt>
      <trkpt lat="45.91936" lon="3.61662">
        <ele>596.47743333333</ele>
        <time>2017-02-22T14:37:27Z</time>
      </trkpt>
      <trkpt lat="45.91945" lon="3.61655">
        <ele>595.17781333333</ele>
        <time>2017-02-22T14:37:33Z</time>
      </trkpt>
      <trkpt lat="45.91959" lon="3.61635">
        <ele>593.47836666667</ele>
        <time>2017-02-22T14:37:37Z</time>
      </trkpt>
      <trkpt lat="45.91967" lon="3.61626">
        <ele>592.17869333333</ele>
        <time>2017-02-22T14:37:41Z</time>
      </trkpt>
      <trkpt lat="45.91974" lon="3.6162">
        <ele>590.97896</ele>
        <time>2017-02-22T14:37:44Z</time>
      </trkpt>
      <trkpt lat="45.91981" lon="3.61612">
        <ele>589.77924666667</ele>
        <time>2017-02-22T14:37:49Z</time>
      </trkpt>
      <trkpt lat="45.91986" lon="3.61609">
        <ele>589.47944</ele>
        <time>2017-02-22T14:37:51Z</time>
      </trkpt>
      <trkpt lat="45.91998" lon="3.61602">
        <ele>588.67990666667</ele>
        <time>2017-02-22T14:37:55Z</time>
      </trkpt>
      <trkpt lat="45.92005" lon="3.61596">
        <ele>589.1802</ele>
        <time>2017-02-22T14:38:06Z</time>
      </trkpt>
      <trkpt lat="45.92014" lon="3.61591">
        <ele>589.38054666667</ele>
        <time>2017-02-22T14:38:09Z</time>
      </trkpt>
      <trkpt lat="45.92017" lon="3.61588">
        <ele>589.28069333333</ele>
        <time>2017-02-22T14:38:11Z</time>
      </trkpt>
      <trkpt lat="45.9205" lon="3.61567">
        <ele>590.38201333333</ele>
        <time>2017-02-22T14:38:19Z</time>
      </trkpt>
      <trkpt lat="45.92059" lon="3.61559">
        <ele>590.78236</ele>
        <time>2017-02-22T14:38:21Z</time>
      </trkpt>
      <trkpt lat="45.92065" lon="3.61552">
        <ele>590.98259333333</ele>
        <time>2017-02-22T14:38:26Z</time>
      </trkpt>
      <trkpt lat="45.92073" lon="3.61545">
        <ele>590.88293333333</ele>
        <time>2017-02-22T14:38:27Z</time>
      </trkpt>
      <trkpt lat="45.9208" lon="3.6154">
        <ele>591.08318666667</ele>
        <time>2017-02-22T14:38:31Z</time>
      </trkpt>
      <trkpt lat="45.92097" lon="3.61532">
        <ele>591.88386</ele>
        <time>2017-02-22T14:38:34Z</time>
      </trkpt>
      <trkpt lat="45.92113" lon="3.61524">
        <ele>592.58453333333</ele>
        <time>2017-02-22T14:38:37Z</time>
      </trkpt>
      <trkpt lat="45.92123" lon="3.61521">
        <ele>592.68492</ele>
        <time>2017-02-22T14:38:41Z</time>
      </trkpt>
      <trkpt lat="45.9213" lon="3.61521">
        <ele>592.58521333333</ele>
        <time>2017-02-22T14:38:44Z</time>
      </trkpt>
      <trkpt lat="45.92146" lon="3.61527">
        <ele>592.08584666667</ele>
        <time>2017-02-22T14:38:51Z</time>
      </trkpt>
      <trkpt lat="45.92165" lon="3.61541">
        <ele>593.28661333333</ele>
        <time>2017-02-22T14:38:56Z</time>
      </trkpt>
      <trkpt lat="45.92175" lon="3.61546">
        <ele>592.88699333333</ele>
        <time>2017-02-22T14:39:00Z</time>
      </trkpt>
      <trkpt lat="45.92184" lon="3.61544">
        <ele>590.18736</ele>
        <time>2017-02-22T14:39:05Z</time>
      </trkpt>
      <trkpt lat="45.9219" lon="3.61543">
        <ele>587.28761333333</ele>
        <time>2017-02-22T14:39:11Z</time>
      </trkpt>
      <trkpt lat="45.92194" lon="3.61543">
        <ele>586.48774666667</ele>
        <time>2017-02-22T14:39:14Z</time>
      </trkpt>
      <trkpt lat="45.92201" lon="3.61545">
        <ele>583.98804</ele>
        <time>2017-02-22T14:39:19Z</time>
      </trkpt>
      <trkpt lat="45.92209" lon="3.61545">
        <ele>581.08834</ele>
        <time>2017-02-22T14:39:23Z</time>
      </trkpt>
      <trkpt lat="45.92215" lon="3.61545">
        <ele>579.88858</ele>
        <time>2017-02-22T14:39:32Z</time>
      </trkpt>
      <trkpt lat="45.92226" lon="3.61545">
        <ele>577.48902</ele>
        <time>2017-02-22T14:39:36Z</time>
      </trkpt>
      <trkpt lat="45.92231" lon="3.61546">
        <ele>576.58924</ele>
        <time>2017-02-22T14:39:39Z</time>
      </trkpt>
      <trkpt lat="45.92239" lon="3.61548">
        <ele>575.58956</ele>
        <time>2017-02-22T14:39:44Z</time>
      </trkpt>
      <trkpt lat="45.92246" lon="3.61549">
        <ele>574.58985333333</ele>
        <time>2017-02-22T14:39:50Z</time>
      </trkpt>
      <trkpt lat="45.92254" lon="3.61548">
        <ele>573.69016666667</ele>
        <time>2017-02-22T14:39:55Z</time>
      </trkpt>
      <trkpt lat="45.92263" lon="3.61547">
        <ele>574.4905</ele>
        <time>2017-02-22T14:40:00Z</time>
      </trkpt>
      <trkpt lat="45.9227" lon="3.61545">
        <ele>574.69078666667</ele>
        <time>2017-02-22T14:40:06Z</time>
      </trkpt>
      <trkpt lat="45.92275" lon="3.61543">
        <ele>574.291</ele>
        <time>2017-02-22T14:40:10Z</time>
      </trkpt>
      <trkpt lat="45.92282" lon="3.61541">
        <ele>573.39129333333</ele>
        <time>2017-02-22T14:40:15Z</time>
      </trkpt>
      <trkpt lat="45.92292" lon="3.61539">
        <ele>573.99167333333</ele>
        <time>2017-02-22T14:40:21Z</time>
      </trkpt>
      <trkpt lat="45.92299" lon="3.61535">
        <ele>572.49197333333</ele>
        <time>2017-02-22T14:40:25Z</time>
      </trkpt>
      <trkpt lat="45.92305" lon="3.61529">
        <ele>571.09220666667</ele>
        <time>2017-02-22T14:40:37Z</time>
      </trkpt>
      <trkpt lat="45.92312" lon="3.61519">
        <ele>569.49248</ele>
        <time>2017-02-22T14:40:42Z</time>
      </trkpt>
      <trkpt lat="45.92318" lon="3.61512">
        <ele>568.39272666667</ele>
        <time>2017-02-22T14:40:54Z</time>
      </trkpt>
      <trkpt lat="45.92336" lon="3.61492">
        <ele>566.59344</ele>
        <time>2017-02-22T14:40:59Z</time>
      </trkpt>
      <trkpt lat="45.92342" lon="3.61488">
        <ele>566.49369333333</ele>
        <time>2017-02-22T14:41:02Z</time>
      </trkpt>
      <trkpt lat="45.92349" lon="3.61482">
        <ele>566.19396</ele>
        <time>2017-02-22T14:41:06Z</time>
      </trkpt>
      <trkpt lat="45.92357" lon="3.61476">
        <ele>565.79428</ele>
        <time>2017-02-22T14:41:07Z</time>
      </trkpt>
      <trkpt lat="45.92368" lon="3.61469">
        <ele>565.29471333333</ele>
        <time>2017-02-22T14:41:12Z</time>
      </trkpt>
      <trkpt lat="45.92381" lon="3.61462">
        <ele>564.89523333333</ele>
        <time>2017-02-22T14:41:17Z</time>
      </trkpt>
      <trkpt lat="45.92388" lon="3.61457">
        <ele>564.59552666667</ele>
        <time>2017-02-22T14:41:19Z</time>
      </trkpt>
      <trkpt lat="45.92398" lon="3.61442">
        <ele>563.79592</ele>
        <time>2017-02-22T14:41:22Z</time>
      </trkpt>
      <trkpt lat="45.92403" lon="3.61431">
        <ele>563.19612</ele>
        <time>2017-02-22T14:41:27Z</time>
      </trkpt>
      <trkpt lat="45.92422" lon="3.61398">
        <ele>561.49686666667</ele>
        <time>2017-02-22T14:41:31Z</time>
      </trkpt>
      <trkpt lat="45.92436" lon="3.61377">
        <ele>560.39742666667</ele>
        <time>2017-02-22T14:41:34Z</time>
      </trkpt>
      <trkpt lat="45.92442" lon="3.61364">
        <ele>559.69769333333</ele>
        <time>2017-02-22T14:41:37Z</time>
      </trkpt>
      <trkpt lat="45.92446" lon="3.61357">
        <ele>559.09782666667</ele>
        <time>2017-02-22T14:41:39Z</time>
      </trkpt>
      <trkpt lat="45.92454" lon="3.61312">
        <ele>555.49814666667</ele>
        <time>2017-02-22T14:41:46Z</time>
      </trkpt>
      <trkpt lat="45.92452" lon="3.61277">
        <ele>552.89808</ele>
        <time>2017-02-22T14:41:50Z</time>
      </trkpt>
      <trkpt lat="45.92447" lon="3.61259">
        <ele>551.39786</ele>
        <time>2017-02-22T14:41:55Z</time>
      </trkpt>
      <trkpt lat="45.92444" lon="3.61248">
        <ele>550.69777333333</ele>
        <time>2017-02-22T14:41:56Z</time>
      </trkpt>
      <trkpt lat="45.92441" lon="3.61219">
        <ele>548.29764666667</ele>
        <time>2017-02-22T14:42:00Z</time>
      </trkpt>
      <trkpt lat="45.92443" lon="3.61199">
        <ele>546.29772</ele>
        <time>2017-02-22T14:42:05Z</time>
      </trkpt>
      <trkpt lat="45.92445" lon="3.61193">
        <ele>545.39780666667</ele>
        <time>2017-02-22T14:42:08Z</time>
      </trkpt>
      <trkpt lat="45.9245" lon="3.61184">
        <ele>544.69798</ele>
        <time>2017-02-22T14:42:12Z</time>
      </trkpt>
      <trkpt lat="45.92456" lon="3.61175">
        <ele>541.89822</ele>
        <time>2017-02-22T14:42:18Z</time>
      </trkpt>
      <trkpt lat="45.92462" lon="3.61168">
        <ele>540.59846</ele>
        <time>2017-02-22T14:42:24Z</time>
      </trkpt>
      <trkpt lat="45.92463" lon="3.61165">
        <ele>539.29852666667</ele>
        <time>2017-02-22T14:42:36Z</time>
      </trkpt>
      <trkpt lat="45.92474" lon="3.61152">
        <ele>534.49896</ele>
        <time>2017-02-22T14:42:40Z</time>
      </trkpt>
      <trkpt lat="45.92478" lon="3.61143">
        <ele>534.39912666667</ele>
        <time>2017-02-22T14:42:46Z</time>
      </trkpt>
      <trkpt lat="45.9248" lon="3.61141">
        <ele>534.2992</ele>
        <time>2017-02-22T14:42:49Z</time>
      </trkpt>
      <trkpt lat="45.92484" lon="3.61133">
        <ele>533.99937333333</ele>
        <time>2017-02-22T14:42:56Z</time>
      </trkpt>
      <trkpt lat="45.9249" lon="3.61128">
        <ele>531.79959333333</ele>
        <time>2017-02-22T14:43:06Z</time>
      </trkpt>
      <trkpt lat="45.92495" lon="3.61125">
        <ele>530.49979333333</ele>
        <time>2017-02-22T14:43:14Z</time>
      </trkpt>
      <trkpt lat="45.92508" lon="3.61112">
        <ele>529.40033333333</ele>
        <time>2017-02-22T14:43:18Z</time>
      </trkpt>
      <trkpt lat="45.92516" lon="3.61108">
        <ele>528.70062</ele>
        <time>2017-02-22T14:43:25Z</time>
      </trkpt>
      <trkpt lat="45.92527" lon="3.61103">
        <ele>527.10106666667</ele>
        <time>2017-02-22T14:43:29Z</time>
      </trkpt>
      <trkpt lat="45.92534" lon="3.61104">
        <ele>524.90136666667</ele>
        <time>2017-02-22T14:43:37Z</time>
      </trkpt>
      <trkpt lat="45.92537" lon="3.61103">
        <ele>524.30148</ele>
        <time>2017-02-22T14:43:39Z</time>
      </trkpt>
      <trkpt lat="45.92551" lon="3.61105">
        <ele>521.20203333333</ele>
        <time>2017-02-22T14:43:49Z</time>
      </trkpt>
      <trkpt lat="45.92559" lon="3.61107">
        <ele>518.00235333333</ele>
        <time>2017-02-22T14:43:59Z</time>
      </trkpt>
      <trkpt lat="45.92562" lon="3.61106">
        <ele>517.30246</ele>
        <time>2017-02-22T14:44:01Z</time>
      </trkpt>
      <trkpt lat="45.92568" lon="3.61107">
        <ele>515.30272666667</ele>
        <time>2017-02-22T14:44:07Z</time>
      </trkpt>
      <trkpt lat="45.92575" lon="3.61106">
        <ele>513.30299333333</ele>
        <time>2017-02-22T14:44:13Z</time>
      </trkpt>
      <trkpt lat="45.9258" lon="3.61107">
        <ele>512.40318</ele>
        <time>2017-02-22T14:44:16Z</time>
      </trkpt>
      <trkpt lat="45.92588" lon="3.6111">
        <ele>510.90352666667</ele>
        <time>2017-02-22T14:44:22Z</time>
      </trkpt>
      <trkpt lat="45.92598" lon="3.61111">
        <ele>509.30390666667</ele>
        <time>2017-02-22T14:44:27Z</time>
      </trkpt>
      <trkpt lat="45.92602" lon="3.61111">
        <ele>508.00408666667</ele>
        <time>2017-02-22T14:44:30Z</time>
      </trkpt>
      <trkpt lat="45.92612" lon="3.6111">
        <ele>506.70446</ele>
        <time>2017-02-22T14:44:35Z</time>
      </trkpt>
      <trkpt lat="45.9262" lon="3.61107">
        <ele>505.40478</ele>
        <time>2017-02-22T14:44:39Z</time>
      </trkpt>
      <trkpt lat="45.92628" lon="3.61107">
        <ele>504.60510666667</ele>
        <time>2017-02-22T14:44:43Z</time>
      </trkpt>
      <trkpt lat="45.92638" lon="3.61102">
        <ele>502.80551333333</ele>
        <time>2017-02-22T14:44:47Z</time>
      </trkpt>
      <trkpt lat="45.92644" lon="3.61099">
        <ele>501.80577333333</ele>
        <time>2017-02-22T14:44:55Z</time>
      </trkpt>
      <trkpt lat="45.92652" lon="3.61097">
        <ele>500.00609333333</ele>
        <time>2017-02-22T14:44:59Z</time>
      </trkpt>
      <trkpt lat="45.9266" lon="3.61094">
        <ele>498.50641333333</ele>
        <time>2017-02-22T14:45:07Z</time>
      </trkpt>
      <trkpt lat="45.92668" lon="3.61092">
        <ele>497.10672666667</ele>
        <time>2017-02-22T14:45:09Z</time>
      </trkpt>
      <trkpt lat="45.92673" lon="3.6109">
        <ele>496.3069</ele>
        <time>2017-02-22T14:45:14Z</time>
      </trkpt>
      <trkpt lat="45.92687" lon="3.61067">
        <ele>493.00747333333</ele>
        <time>2017-02-22T14:45:19Z</time>
      </trkpt>
      <trkpt lat="45.9269" lon="3.61049">
        <ele>491.00761333333</ele>
        <time>2017-02-22T14:45:23Z</time>
      </trkpt>
      <trkpt lat="45.92696" lon="3.61021">
        <ele>488.20785333333</ele>
        <time>2017-02-22T14:45:28Z</time>
      </trkpt>
      <trkpt lat="45.92699" lon="3.61003">
        <ele>485.70794</ele>
        <time>2017-02-22T14:45:33Z</time>
      </trkpt>
      <trkpt lat="45.92703" lon="3.60983">
        <ele>484.2081</ele>
        <time>2017-02-22T14:45:36Z</time>
      </trkpt>
      <trkpt lat="45.92708" lon="3.60955">
        <ele>482.20832</ele>
        <time>2017-02-22T14:45:40Z</time>
      </trkpt>
      <trkpt lat="45.92713" lon="3.60934">
        <ele>481.40851333333</ele>
        <time>2017-02-22T14:45:44Z</time>
      </trkpt>
      <trkpt lat="45.92715" lon="3.60922">
        <ele>480.70861333333</ele>
        <time>2017-02-22T14:45:47Z</time>
      </trkpt>
      <trkpt lat="45.92718" lon="3.60906">
        <ele>479.40873333333</ele>
        <time>2017-02-22T14:45:51Z</time>
      </trkpt>
      <trkpt lat="45.92717" lon="3.60894">
        <ele>477.80868666667</ele>
        <time>2017-02-22T14:45:55Z</time>
      </trkpt>
      <trkpt lat="45.92712" lon="3.60867">
        <ele>475.90847333333</ele>
        <time>2017-02-22T14:46:00Z</time>
      </trkpt>
      <trkpt lat="45.92705" lon="3.60851">
        <ele>474.40818</ele>
        <time>2017-02-22T14:46:04Z</time>
      </trkpt>
      <trkpt lat="45.92697" lon="3.60828">
        <ele>472.20789333333</ele>
        <time>2017-02-22T14:46:08Z</time>
      </trkpt>
      <trkpt lat="45.92693" lon="3.60816">
        <ele>470.80772</ele>
        <time>2017-02-22T14:46:11Z</time>
      </trkpt>
      <trkpt lat="45.92687" lon="3.60809">
        <ele>469.70747333333</ele>
        <time>2017-02-22T14:46:17Z</time>
      </trkpt>
      <trkpt lat="45.92683" lon="3.60804">
        <ele>468.90730666667</ele>
        <time>2017-02-22T14:46:30Z</time>
      </trkpt>
      <trkpt lat="45.92679" lon="3.60779">
        <ele>466.90714666667</ele>
        <time>2017-02-22T14:46:30Z</time>
      </trkpt>
      <trkpt lat="45.92683" lon="3.60762">
        <ele>467.10730666667</ele>
        <time>2017-02-22T14:46:37Z</time>
      </trkpt>
      <trkpt lat="45.92686" lon="3.60756">
        <ele>466.00742666667</ele>
        <time>2017-02-22T14:46:41Z</time>
      </trkpt>
      <trkpt lat="45.92694" lon="3.60745">
        <ele>465.80775333333</ele>
        <time>2017-02-22T14:46:45Z</time>
      </trkpt>
      <trkpt lat="45.92698" lon="3.60734">
        <ele>464.80790666667</ele>
        <time>2017-02-22T14:46:50Z</time>
      </trkpt>
      <trkpt lat="45.92701" lon="3.60724">
        <ele>462.80803333333</ele>
        <time>2017-02-22T14:46:56Z</time>
      </trkpt>
      <trkpt lat="45.927" lon="3.60716">
        <ele>462.00798</ele>
        <time>2017-02-22T14:47:00Z</time>
      </trkpt>
      <trkpt lat="45.92695" lon="3.60706">
        <ele>461.20779333333</ele>
        <time>2017-02-22T14:47:03Z</time>
      </trkpt>
      <trkpt lat="45.9269" lon="3.60695">
        <ele>460.7076</ele>
        <time>2017-02-22T14:47:07Z</time>
      </trkpt>
      <trkpt lat="45.92686" lon="3.60686">
        <ele>458.50744</ele>
        <time>2017-02-22T14:47:14Z</time>
      </trkpt>
      <trkpt lat="45.92677" lon="3.60673">
        <ele>457.80706</ele>
        <time>2017-02-22T14:47:18Z</time>
      </trkpt>
      <trkpt lat="45.92674" lon="3.60663">
        <ele>457.40694</ele>
        <time>2017-02-22T14:47:24Z</time>
      </trkpt>
      <trkpt lat="45.9266" lon="3.60647">
        <ele>454.10638</ele>
        <time>2017-02-22T14:47:37Z</time>
      </trkpt>
      <trkpt lat="45.92656" lon="3.60644">
        <ele>453.60624</ele>
        <time>2017-02-22T14:47:39Z</time>
      </trkpt>
      <trkpt lat="45.92646" lon="3.60632">
        <ele>452.10582666667</ele>
        <time>2017-02-22T14:47:46Z</time>
      </trkpt>
      <trkpt lat="45.92628" lon="3.60615">
        <ele>449.90511333333</ele>
        <time>2017-02-22T14:47:59Z</time>
      </trkpt>
      <trkpt lat="45.92625" lon="3.60587">
        <ele>452.40498666667</ele>
        <time>2017-02-22T14:48:07Z</time>
      </trkpt>
      <trkpt lat="45.92626" lon="3.60584">
        <ele>453.70503333333</ele>
        <time>2017-02-22T14:48:08Z</time>
      </trkpt>
      <trkpt lat="45.92641" lon="3.60564">
        <ele>462.90564666667</ele>
        <time>2017-02-22T14:48:22Z</time>
      </trkpt>
      <trkpt lat="45.92653" lon="3.6055">
        <ele>469.10613333333</ele>
        <time>2017-02-22T14:48:27Z</time>
      </trkpt>
      <trkpt lat="45.92659" lon="3.60545">
        <ele>471.00637333333</ele>
        <time>2017-02-22T14:48:30Z</time>
      </trkpt>
      <trkpt lat="45.92667" lon="3.60537">
        <ele>474.50668</ele>
        <time>2017-02-22T14:48:34Z</time>
      </trkpt>
      <trkpt lat="45.92674" lon="3.60524">
        <ele>477.80697333333</ele>
        <time>2017-02-22T14:48:39Z</time>
      </trkpt>
      <trkpt lat="45.92678" lon="3.60513">
        <ele>480.30712666667</ele>
        <time>2017-02-22T14:48:43Z</time>
      </trkpt>
      <trkpt lat="45.92685" lon="3.60494">
        <ele>485.90739333333</ele>
        <time>2017-02-22T14:48:48Z</time>
      </trkpt>
      <trkpt lat="45.9269" lon="3.6048">
        <ele>489.0076</ele>
        <time>2017-02-22T14:48:53Z</time>
      </trkpt>
      <trkpt lat="45.92693" lon="3.60467">
        <ele>491.30771333333</ele>
        <time>2017-02-22T14:48:57Z</time>
      </trkpt>
      <trkpt lat="45.92696" lon="3.6045">
        <ele>493.00782</ele>
        <time>2017-02-22T14:49:02Z</time>
      </trkpt>
      <trkpt lat="45.92695" lon="3.60433">
        <ele>494.8078</ele>
        <time>2017-02-22T14:49:06Z</time>
      </trkpt>
      <trkpt lat="45.92693" lon="3.60417">
        <ele>495.80772666667</ele>
        <time>2017-02-22T14:49:10Z</time>
      </trkpt>
      <trkpt lat="45.92687" lon="3.60385">
        <ele>499.70748666667</ele>
        <time>2017-02-22T14:49:15Z</time>
      </trkpt>
      <trkpt lat="45.92681" lon="3.60363">
        <ele>502.00723333333</ele>
        <time>2017-02-22T14:49:18Z</time>
      </trkpt>
      <trkpt lat="45.92646" lon="3.60276">
        <ele>502.70584666667</ele>
        <time>2017-02-22T14:49:31Z</time>
      </trkpt>
      <trkpt lat="45.92641" lon="3.60255">
        <ele>502.40562666667</ele>
        <time>2017-02-22T14:49:37Z</time>
      </trkpt>
      <trkpt lat="45.92642" lon="3.60246">
        <ele>502.70568</ele>
        <time>2017-02-22T14:49:40Z</time>
      </trkpt>
      <trkpt lat="45.92652" lon="3.60202">
        <ele>503.50606666667</ele>
        <time>2017-02-22T14:49:53Z</time>
      </trkpt>
      <trkpt lat="45.92654" lon="3.60188">
        <ele>503.40614</ele>
        <time>2017-02-22T14:49:57Z</time>
      </trkpt>
      <trkpt lat="45.92656" lon="3.60171">
        <ele>503.30623333333</ele>
        <time>2017-02-22T14:50:02Z</time>
      </trkpt>
      <trkpt lat="45.92658" lon="3.60163">
        <ele>503.10631333333</ele>
        <time>2017-02-22T14:50:05Z</time>
      </trkpt>
      <trkpt lat="45.9266" lon="3.6015">
        <ele>502.90638666667</ele>
        <time>2017-02-22T14:50:09Z</time>
      </trkpt>
      <trkpt lat="45.9266" lon="3.60137">
        <ele>502.90638666667</ele>
        <time>2017-02-22T14:50:11Z</time>
      </trkpt>
      <trkpt lat="45.92661" lon="3.60127">
        <ele>503.10642666667</ele>
        <time>2017-02-22T14:50:20Z</time>
      </trkpt>
      <trkpt lat="45.92659" lon="3.60046">
        <ele>503.30637333333</ele>
        <time>2017-02-22T14:50:33Z</time>
      </trkpt>
      <trkpt lat="45.92656" lon="3.60028">
        <ele>503.60625333333</ele>
        <time>2017-02-22T14:50:37Z</time>
      </trkpt>
      <trkpt lat="45.92655" lon="3.6">
        <ele>503.8062</ele>
        <time>2017-02-22T14:50:41Z</time>
      </trkpt>
      <trkpt lat="45.92656" lon="3.59977">
        <ele>504.50624666667</ele>
        <time>2017-02-22T14:50:45Z</time>
      </trkpt>
      <trkpt lat="45.92661" lon="3.59963">
        <ele>505.00642</ele>
        <time>2017-02-22T14:50:49Z</time>
      </trkpt>
      <trkpt lat="45.92667" lon="3.59954">
        <ele>505.00668666667</ele>
        <time>2017-02-22T14:50:53Z</time>
      </trkpt>
      <trkpt lat="45.92674" lon="3.59947">
        <ele>504.70694</ele>
        <time>2017-02-22T14:50:57Z</time>
      </trkpt>
      <trkpt lat="45.92676" lon="3.59936">
        <ele>504.80704</ele>
        <time>2017-02-22T14:51:01Z</time>
      </trkpt>
      <trkpt lat="45.92678" lon="3.59923">
        <ele>504.30713333333</ele>
        <time>2017-02-22T14:51:05Z</time>
      </trkpt>
      <trkpt lat="45.92682" lon="3.59912">
        <ele>503.70726666667</ele>
        <time>2017-02-22T14:51:09Z</time>
      </trkpt>
      <trkpt lat="45.92688" lon="3.599">
        <ele>503.4075</ele>
        <time>2017-02-22T14:51:13Z</time>
      </trkpt>
      <trkpt lat="45.92694" lon="3.59889">
        <ele>503.40775333333</ele>
        <time>2017-02-22T14:51:17Z</time>
      </trkpt>
      <trkpt lat="45.92698" lon="3.59868">
        <ele>502.90793333333</ele>
        <time>2017-02-22T14:51:21Z</time>
      </trkpt>
      <trkpt lat="45.92704" lon="3.59843">
        <ele>502.30814666667</ele>
        <time>2017-02-22T14:51:25Z</time>
      </trkpt>
      <trkpt lat="45.92714" lon="3.5981">
        <ele>501.60856</ele>
        <time>2017-02-22T14:51:29Z</time>
      </trkpt>
      <trkpt lat="45.92724" lon="3.59777">
        <ele>500.80896666667</ele>
        <time>2017-02-22T14:51:33Z</time>
      </trkpt>
      <trkpt lat="45.9273" lon="3.59756">
        <ele>499.80918666667</ele>
        <time>2017-02-22T14:51:37Z</time>
      </trkpt>
      <trkpt lat="45.92734" lon="3.59745">
        <ele>499.00934</ele>
        <time>2017-02-22T14:51:38Z</time>
      </trkpt>
      <trkpt lat="45.9274" lon="3.59723">
        <ele>498.10961333333</ele>
        <time>2017-02-22T14:51:42Z</time>
      </trkpt>
      <trkpt lat="45.9276" lon="3.59686">
        <ele>496.91041333333</ele>
        <time>2017-02-22T14:51:47Z</time>
      </trkpt>
      <trkpt lat="45.92775" lon="3.59655">
        <ele>497.31098666667</ele>
        <time>2017-02-22T14:51:51Z</time>
      </trkpt>
      <trkpt lat="45.92805" lon="3.5961">
        <ele>495.11220666667</ele>
        <time>2017-02-22T14:51:58Z</time>
      </trkpt>
      <trkpt lat="45.92823" lon="3.5959">
        <ele>494.01290666667</ele>
        <time>2017-02-22T14:52:02Z</time>
      </trkpt>
      <trkpt lat="45.92849" lon="3.59545">
        <ele>491.81394666667</ele>
        <time>2017-02-22T14:52:06Z</time>
      </trkpt>
      <trkpt lat="45.92859" lon="3.59503">
        <ele>490.11434666667</ele>
        <time>2017-02-22T14:52:10Z</time>
      </trkpt>
      <trkpt lat="45.92863" lon="3.59481">
        <ele>489.41450666667</ele>
        <time>2017-02-22T14:52:13Z</time>
      </trkpt>
      <trkpt lat="45.92875" lon="3.59416">
        <ele>486.71498</ele>
        <time>2017-02-22T14:52:17Z</time>
      </trkpt>
      <trkpt lat="45.92884" lon="3.59365">
        <ele>485.11534666667</ele>
        <time>2017-02-22T14:52:21Z</time>
      </trkpt>
      <trkpt lat="45.9289" lon="3.59341">
        <ele>484.41561333333</ele>
        <time>2017-02-22T14:52:23Z</time>
      </trkpt>
      <trkpt lat="45.92898" lon="3.59325">
        <ele>483.11592666667</ele>
        <time>2017-02-22T14:52:27Z</time>
      </trkpt>
      <trkpt lat="45.92894" lon="3.59291">
        <ele>480.51574</ele>
        <time>2017-02-22T14:52:32Z</time>
      </trkpt>
      <trkpt lat="45.92882" lon="3.59248">
        <ele>478.91528666667</ele>
        <time>2017-02-22T14:52:36Z</time>
      </trkpt>
      <trkpt lat="45.92875" lon="3.59206">
        <ele>476.81499333333</ele>
        <time>2017-02-22T14:52:40Z</time>
      </trkpt>
      <trkpt lat="45.92865" lon="3.5917">
        <ele>474.51458</ele>
        <time>2017-02-22T14:52:44Z</time>
      </trkpt>
      <trkpt lat="45.9286" lon="3.59158">
        <ele>473.51441333333</ele>
        <time>2017-02-22T14:52:46Z</time>
      </trkpt>
      <trkpt lat="45.92856" lon="3.5914">
        <ele>471.61422666667</ele>
        <time>2017-02-22T14:52:50Z</time>
      </trkpt>
      <trkpt lat="45.92863" lon="3.59134">
        <ele>470.41450666667</ele>
        <time>2017-02-22T14:52:53Z</time>
      </trkpt>
      <trkpt lat="45.92877" lon="3.5913">
        <ele>469.31508666667</ele>
        <time>2017-02-22T14:52:58Z</time>
      </trkpt>
      <trkpt lat="45.92888" lon="3.59126">
        <ele>468.0155</ele>
        <time>2017-02-22T14:53:01Z</time>
      </trkpt>
      <trkpt lat="45.92913" lon="3.59092">
        <ele>466.6165</ele>
        <time>2017-02-22T14:53:07Z</time>
      </trkpt>
      <trkpt lat="45.92921" lon="3.59079">
        <ele>466.01684</ele>
        <time>2017-02-22T14:53:09Z</time>
      </trkpt>
      <trkpt lat="45.9299" lon="3.59046">
        <ele>460.51958666667</ele>
        <time>2017-02-22T14:53:21Z</time>
      </trkpt>
      <trkpt lat="45.9303" lon="3.59038">
        <ele>459.02120666667</ele>
        <time>2017-02-22T14:53:26Z</time>
      </trkpt>
      <trkpt lat="45.93062" lon="3.59028">
        <ele>457.12248666667</ele>
        <time>2017-02-22T14:53:30Z</time>
      </trkpt>
      <trkpt lat="45.93103" lon="3.58993">
        <ele>452.92412666667</ele>
        <time>2017-02-22T14:53:33Z</time>
      </trkpt>
      <trkpt lat="45.93146" lon="3.58953">
        <ele>448.52584666667</ele>
        <time>2017-02-22T14:53:37Z</time>
      </trkpt>
      <trkpt lat="45.93187" lon="3.58888">
        <ele>444.32746666667</ele>
        <time>2017-02-22T14:53:42Z</time>
      </trkpt>
      <trkpt lat="45.93215" lon="3.58849">
        <ele>440.52858666667</ele>
        <time>2017-02-22T14:53:46Z</time>
      </trkpt>
      <trkpt lat="45.93253" lon="3.58805">
        <ele>437.73013333333</ele>
        <time>2017-02-22T14:53:54Z</time>
      </trkpt>
      <trkpt lat="45.93271" lon="3.58779">
        <ele>439.43085333333</ele>
        <time>2017-02-22T14:53:59Z</time>
      </trkpt>
      <trkpt lat="45.93288" lon="3.58754">
        <ele>439.83152</ele>
        <time>2017-02-22T14:54:03Z</time>
      </trkpt>
      <trkpt lat="45.93307" lon="3.58727">
        <ele>439.53228666667</ele>
        <time>2017-02-22T14:54:07Z</time>
      </trkpt>
      <trkpt lat="45.93317" lon="3.58713">
        <ele>438.33268666667</ele>
        <time>2017-02-22T14:54:09Z</time>
      </trkpt>
      <trkpt lat="45.93323" lon="3.58704">
        <ele>437.2329</ele>
        <time>2017-02-22T14:54:15Z</time>
      </trkpt>
      <trkpt lat="45.9334" lon="3.58669">
        <ele>435.73361333333</ele>
        <time>2017-02-22T14:54:15Z</time>
      </trkpt>
      <trkpt lat="45.93377" lon="3.58558">
        <ele>429.33506666667</ele>
        <time>2017-02-22T14:54:27Z</time>
      </trkpt>
      <trkpt lat="45.93384" lon="3.58503">
        <ele>427.93537333333</ele>
        <time>2017-02-22T14:54:32Z</time>
      </trkpt>
      <trkpt lat="45.93384" lon="3.58496">
        <ele>427.53535333333</ele>
        <time>2017-02-22T14:54:33Z</time>
      </trkpt>
      <trkpt lat="45.93384" lon="3.58465">
        <ele>425.53536666667</ele>
        <time>2017-02-22T14:54:37Z</time>
      </trkpt>
      <trkpt lat="45.93385" lon="3.58445">
        <ele>424.3354</ele>
        <time>2017-02-22T14:54:40Z</time>
      </trkpt>
      <trkpt lat="45.93419" lon="3.58412">
        <ele>421.23675333333</ele>
        <time>2017-02-22T14:54:53Z</time>
      </trkpt>
      <trkpt lat="45.93445" lon="3.58458">
        <ele>420.93778</ele>
        <time>2017-02-22T14:55:00Z</time>
      </trkpt>
      <trkpt lat="45.93463" lon="3.58503">
        <ele>421.93853333333</ele>
        <time>2017-02-22T14:55:05Z</time>
      </trkpt>
      <trkpt lat="45.93483" lon="3.58541">
        <ele>422.53932</ele>
        <time>2017-02-22T14:55:08Z</time>
      </trkpt>
      <trkpt lat="45.93513" lon="3.58553">
        <ele>422.74050666667</ele>
        <time>2017-02-22T14:55:14Z</time>
      </trkpt>
      <trkpt lat="45.93606" lon="3.58562">
        <ele>425.44423333333</ele>
        <time>2017-02-22T14:55:27Z</time>
      </trkpt>
      <trkpt lat="45.93628" lon="3.58572">
        <ele>425.34510666667</ele>
        <time>2017-02-22T14:55:32Z</time>
      </trkpt>
      <trkpt lat="45.93645" lon="3.58579">
        <ele>425.1458</ele>
        <time>2017-02-22T14:55:36Z</time>
      </trkpt>
      <trkpt lat="45.93666" lon="3.58584">
        <ele>424.94664666667</ele>
        <time>2017-02-22T14:55:40Z</time>
      </trkpt>
      <trkpt lat="45.93686" lon="3.58582">
        <ele>424.14743333333</ele>
        <time>2017-02-22T14:55:44Z</time>
      </trkpt>
      <trkpt lat="45.93703" lon="3.58583">
        <ele>423.44812</ele>
        <time>2017-02-22T14:55:48Z</time>
      </trkpt>
      <trkpt lat="45.93722" lon="3.58569">
        <ele>431.74886</ele>
        <time>2017-02-22T14:55:52Z</time>
      </trkpt>
      <trkpt lat="45.93735" lon="3.58548">
        <ele>441.64939333333</ele>
        <time>2017-02-22T14:55:56Z</time>
      </trkpt>
      <trkpt lat="45.93744" lon="3.58529">
        <ele>444.94977333333</ele>
        <time>2017-02-22T14:56:00Z</time>
      </trkpt>
      <trkpt lat="45.93752" lon="3.58517">
        <ele>447.55009333333</ele>
        <time>2017-02-22T14:56:04Z</time>
      </trkpt>
      <trkpt lat="45.93764" lon="3.58517">
        <ele>447.35054666667</ele>
        <time>2017-02-22T14:56:08Z</time>
      </trkpt>
      <trkpt lat="45.93773" lon="3.5852">
        <ele>446.85090666667</ele>
        <time>2017-02-22T14:56:13Z</time>
      </trkpt>
      <trkpt lat="45.93799" lon="3.58526">
        <ele>451.65196</ele>
        <time>2017-02-22T14:56:26Z</time>
      </trkpt>
      <trkpt lat="45.93809" lon="3.58528">
        <ele>454.15235333333</ele>
        <time>2017-02-22T14:56:39Z</time>
      </trkpt>
      <trkpt lat="45.93826" lon="3.58537">
        <ele>453.25303333333</ele>
        <time>2017-02-22T14:56:43Z</time>
      </trkpt>
      <trkpt lat="45.93835" lon="3.58543">
        <ele>452.6534</ele>
        <time>2017-02-22T14:56:48Z</time>
      </trkpt>
      <trkpt lat="45.93843" lon="3.58544">
        <ele>451.95372</ele>
        <time>2017-02-22T14:56:52Z</time>
      </trkpt>
      <trkpt lat="45.9385" lon="3.58541">
        <ele>451.15401333333</ele>
        <time>2017-02-22T14:56:57Z</time>
      </trkpt>
      <trkpt lat="45.93855" lon="3.5854">
        <ele>451.45421333333</ele>
        <time>2017-02-22T14:56:59Z</time>
      </trkpt>
      <trkpt lat="45.93864" lon="3.58534">
        <ele>450.95457333333</ele>
        <time>2017-02-22T14:57:03Z</time>
      </trkpt>
      <trkpt lat="45.93872" lon="3.58528">
        <ele>450.75486666667</ele>
        <time>2017-02-22T14:57:08Z</time>
      </trkpt>
      <trkpt lat="45.9388" lon="3.58516">
        <ele>450.45519333333</ele>
        <time>2017-02-22T14:57:13Z</time>
      </trkpt>
      <trkpt lat="45.93883" lon="3.58511">
        <ele>450.45531333333</ele>
        <time>2017-02-22T14:57:20Z</time>
      </trkpt>
      <trkpt lat="45.93889" lon="3.58498">
        <ele>450.05557333333</ele>
        <time>2017-02-22T14:57:20Z</time>
      </trkpt>
      <trkpt lat="45.93893" lon="3.58493">
        <ele>449.7557</ele>
        <time>2017-02-22T14:57:26Z</time>
      </trkpt>
      <trkpt lat="45.93908" lon="3.58481">
        <ele>449.35630666667</ele>
        <time>2017-02-22T14:57:30Z</time>
      </trkpt>
      <trkpt lat="45.93915" lon="3.58481">
        <ele>449.05659333333</ele>
        <time>2017-02-22T14:57:35Z</time>
      </trkpt>
      <trkpt lat="45.93923" lon="3.58485">
        <ele>448.25692</ele>
        <time>2017-02-22T14:57:39Z</time>
      </trkpt>
      <trkpt lat="45.93928" lon="3.5849">
        <ele>447.45712</ele>
        <time>2017-02-22T14:57:53Z</time>
      </trkpt>
      <trkpt lat="45.93935" lon="3.58498">
        <ele>448.45741333333</ele>
        <time>2017-02-22T14:58:01Z</time>
      </trkpt>
      <trkpt lat="45.9394" lon="3.58509">
        <ele>449.85758666667</ele>
        <time>2017-02-22T14:58:12Z</time>
      </trkpt>
      <trkpt lat="45.93938" lon="3.58518">
        <ele>450.45753333333</ele>
        <time>2017-02-22T14:58:19Z</time>
      </trkpt>
      <trkpt lat="45.93938" lon="3.58522">
        <ele>450.85752</ele>
        <time>2017-02-22T14:58:21Z</time>
      </trkpt>
      <trkpt lat="45.93939" lon="3.58532">
        <ele>450.35754666667</ele>
        <time>2017-02-22T14:58:26Z</time>
      </trkpt>
      <trkpt lat="45.93943" lon="3.58567">
        <ele>449.25770666667</ele>
        <time>2017-02-22T14:58:38Z</time>
      </trkpt>
      <trkpt lat="45.93943" lon="3.58572">
        <ele>448.65773333333</ele>
        <time>2017-02-22T14:58:40Z</time>
      </trkpt>
      <trkpt lat="45.93949" lon="3.5859">
        <ele>445.95796666667</ele>
        <time>2017-02-22T14:58:50Z</time>
      </trkpt>
      <trkpt lat="45.93957" lon="3.58602">
        <ele>442.45827333333</ele>
        <time>2017-02-22T14:59:00Z</time>
      </trkpt>
      <trkpt lat="45.93959" lon="3.58606">
        <ele>441.95834</ele>
        <time>2017-02-22T14:59:02Z</time>
      </trkpt>
      <trkpt lat="45.93963" lon="3.58618">
        <ele>439.95850666667</ele>
        <time>2017-02-22T14:59:08Z</time>
      </trkpt>
      <trkpt lat="45.93961" lon="3.58628">
        <ele>438.55844</ele>
        <time>2017-02-22T14:59:12Z</time>
      </trkpt>
      <trkpt lat="45.93958" lon="3.58635">
        <ele>437.65833333333</ele>
        <time>2017-02-22T14:59:15Z</time>
      </trkpt>
      <trkpt lat="45.93956" lon="3.5864">
        <ele>437.05822</ele>
        <time>2017-02-22T14:59:23Z</time>
      </trkpt>
      <trkpt lat="45.93947" lon="3.58665">
        <ele>433.85787333333</ele>
        <time>2017-02-22T14:59:27Z</time>
      </trkpt>
      <trkpt lat="45.93943" lon="3.58672">
        <ele>433.2577</ele>
        <time>2017-02-22T14:59:30Z</time>
      </trkpt>
      <trkpt lat="45.93933" lon="3.5869">
        <ele>430.85732666667</ele>
        <time>2017-02-22T14:59:38Z</time>
      </trkpt>
      <trkpt lat="45.93929" lon="3.58696">
        <ele>430.05716</ele>
        <time>2017-02-22T14:59:40Z</time>
      </trkpt>
      <trkpt lat="45.93921" lon="3.58708">
        <ele>427.95685333333</ele>
        <time>2017-02-22T14:59:47Z</time>
      </trkpt>
      <trkpt lat="45.93896" lon="3.58735">
        <ele>423.65582</ele>
        <time>2017-02-22T14:59:59Z</time>
      </trkpt>
      <trkpt lat="45.93894" lon="3.58738">
        <ele>422.95574666667</ele>
        <time>2017-02-22T15:00:01Z</time>
      </trkpt>
      <trkpt lat="45.93888" lon="3.58745">
        <ele>420.95552666667</ele>
        <time>2017-02-22T15:00:08Z</time>
      </trkpt>
      <trkpt lat="45.93879" lon="3.58726">
        <ele>422.55515333333</ele>
        <time>2017-02-22T15:00:10Z</time>
      </trkpt>
      <trkpt lat="45.93879" lon="3.58731">
        <ele>424.15516666667</ele>
        <time>2017-02-22T15:00:33Z</time>
      </trkpt>
      <trkpt lat="45.93863" lon="3.58762">
        <ele>418.9545</ele>
        <time>2017-02-22T15:00:37Z</time>
      </trkpt>
      <trkpt lat="45.93862" lon="3.58772">
        <ele>416.65448666667</ele>
        <time>2017-02-22T15:00:46Z</time>
      </trkpt>
      <trkpt lat="45.93855" lon="3.58796">
        <ele>413.65418666667</ele>
        <time>2017-02-22T15:00:55Z</time>
      </trkpt>
      <trkpt lat="45.93853" lon="3.58807">
        <ele>410.75412666667</ele>
        <time>2017-02-22T15:01:06Z</time>
      </trkpt>
      <trkpt lat="45.93848" lon="3.58816">
        <ele>406.35392666667</ele>
        <time>2017-02-22T15:01:21Z</time>
      </trkpt>
      <trkpt lat="45.93838" lon="3.58818">
        <ele>402.65351333333</ele>
        <time>2017-02-22T15:01:34Z</time>
      </trkpt>
      <trkpt lat="45.93831" lon="3.58823">
        <ele>398.55322</ele>
        <time>2017-02-22T15:01:48Z</time>
      </trkpt>
      <trkpt lat="45.93823" lon="3.58826">
        <ele>395.15293333333</ele>
        <time>2017-02-22T15:02:00Z</time>
      </trkpt>
      <trkpt lat="45.93817" lon="3.5883">
        <ele>392.55267333333</ele>
        <time>2017-02-22T15:02:08Z</time>
      </trkpt>
      <trkpt lat="45.93812" lon="3.58835">
        <ele>390.45248</ele>
        <time>2017-02-22T15:02:16Z</time>
      </trkpt>
      <trkpt lat="45.93802" lon="3.58851">
        <ele>387.55208</ele>
        <time>2017-02-22T15:02:29Z</time>
      </trkpt>
      <trkpt lat="45.93807" lon="3.58861">
        <ele>384.95228</ele>
        <time>2017-02-22T15:02:38Z</time>
      </trkpt>
      <trkpt lat="45.93809" lon="3.58862">
        <ele>384.45234666667</ele>
        <time>2017-02-22T15:02:40Z</time>
      </trkpt>
      <trkpt lat="45.93813" lon="3.58871">
        <ele>382.65252666667</ele>
        <time>2017-02-22T15:02:46Z</time>
      </trkpt>
      <trkpt lat="45.93821" lon="3.58877">
        <ele>380.55283333333</ele>
        <time>2017-02-22T15:02:54Z</time>
      </trkpt>
      <trkpt lat="45.93825" lon="3.58887">
        <ele>378.85301333333</ele>
        <time>2017-02-22T15:02:59Z</time>
      </trkpt>
      <trkpt lat="45.93828" lon="3.58899">
        <ele>376.55311333333</ele>
        <time>2017-02-22T15:03:08Z</time>
      </trkpt>
      <trkpt lat="45.93831" lon="3.5891">
        <ele>374.95324</ele>
        <time>2017-02-22T15:03:15Z</time>
      </trkpt>
      <trkpt lat="45.93834" lon="3.58934">
        <ele>370.95336666667</ele>
        <time>2017-02-22T15:03:28Z</time>
      </trkpt>
      <trkpt lat="45.93828" lon="3.5895">
        <ele>368.4531</ele>
        <time>2017-02-22T15:03:38Z</time>
      </trkpt>
      <trkpt lat="45.93824" lon="3.58958">
        <ele>367.45296666667</ele>
        <time>2017-02-22T15:03:42Z</time>
      </trkpt>
      <trkpt lat="45.93822" lon="3.58964">
        <ele>366.45288</ele>
        <time>2017-02-22T15:03:46Z</time>
      </trkpt>
      <trkpt lat="45.9382" lon="3.5899">
        <ele>367.3528</ele>
        <time>2017-02-22T15:03:59Z</time>
      </trkpt>
      <trkpt lat="45.93819" lon="3.59018">
        <ele>368.05275333333</ele>
        <time>2017-02-22T15:04:08Z</time>
      </trkpt>
      <trkpt lat="45.93819" lon="3.59027">
        <ele>368.15276</ele>
        <time>2017-02-22T15:04:12Z</time>
      </trkpt>
      <trkpt lat="45.93813" lon="3.59044">
        <ele>368.55253333333</ele>
        <time>2017-02-22T15:04:16Z</time>
      </trkpt>
      <trkpt lat="45.93807" lon="3.5906">
        <ele>369.05229333333</ele>
        <time>2017-02-22T15:04:20Z</time>
      </trkpt>
      <trkpt lat="45.93805" lon="3.59071">
        <ele>369.55221333333</ele>
        <time>2017-02-22T15:04:26Z</time>
      </trkpt>
      <trkpt lat="45.93805" lon="3.59084">
        <ele>369.85218</ele>
        <time>2017-02-22T15:04:35Z</time>
      </trkpt>
      <trkpt lat="45.93804" lon="3.59091">
        <ele>370.05216</ele>
        <time>2017-02-22T15:04:40Z</time>
      </trkpt>
      <trkpt lat="45.93804" lon="3.59097">
        <ele>370.25214</ele>
        <time>2017-02-22T15:04:44Z</time>
      </trkpt>
      <trkpt lat="45.93795" lon="3.59124">
        <ele>370.75178666667</ele>
        <time>2017-02-22T15:04:57Z</time>
      </trkpt>
      <trkpt lat="45.93789" lon="3.59138">
        <ele>371.45156</ele>
        <time>2017-02-22T15:05:02Z</time>
      </trkpt>
      <trkpt lat="45.93787" lon="3.59146">
        <ele>372.35148</ele>
        <time>2017-02-22T15:05:08Z</time>
      </trkpt>
      <trkpt lat="45.93782" lon="3.59157">
        <ele>372.45129333333</ele>
        <time>2017-02-22T15:05:09Z</time>
      </trkpt>
      <trkpt lat="45.93779" lon="3.59172">
        <ele>373.55115333333</ele>
        <time>2017-02-22T15:05:20Z</time>
      </trkpt>
      <trkpt lat="45.93778" lon="3.59176">
        <ele>373.65110666667</ele>
        <time>2017-02-22T15:05:33Z</time>
      </trkpt>
      <trkpt lat="45.93776" lon="3.59199">
        <ele>375.25104</ele>
        <time>2017-02-22T15:05:33Z</time>
      </trkpt>
      <trkpt lat="45.93775" lon="3.59211">
        <ele>375.65098666667</ele>
        <time>2017-02-22T15:05:38Z</time>
      </trkpt>
      <trkpt lat="45.9377" lon="3.5922">
        <ele>375.25081333333</ele>
        <time>2017-02-22T15:05:44Z</time>
      </trkpt>
      <trkpt lat="45.93768" lon="3.59226">
        <ele>374.85072</ele>
        <time>2017-02-22T15:05:49Z</time>
      </trkpt>
      <trkpt lat="45.93764" lon="3.59243">
        <ele>374.45057333333</ele>
        <time>2017-02-22T15:05:53Z</time>
      </trkpt>
      <trkpt lat="45.93763" lon="3.59252">
        <ele>373.9505</ele>
        <time>2017-02-22T15:06:00Z</time>
      </trkpt>
      <trkpt lat="45.93775" lon="3.59262">
        <ele>375.15098666667</ele>
        <time>2017-02-22T15:06:04Z</time>
      </trkpt>
      <trkpt lat="45.93775" lon="3.59273">
        <ele>374.95098666667</ele>
        <time>2017-02-22T15:06:09Z</time>
      </trkpt>
      <trkpt lat="45.93783" lon="3.59283">
        <ele>375.1513</ele>
        <time>2017-02-22T15:06:15Z</time>
      </trkpt>
      <trkpt lat="45.93791" lon="3.59306">
        <ele>377.05165333333</ele>
        <time>2017-02-22T15:06:28Z</time>
      </trkpt>
      <trkpt lat="45.93786" lon="3.59342">
        <ele>382.85142666667</ele>
        <time>2017-02-22T15:06:41Z</time>
      </trkpt>
      <trkpt lat="45.93764" lon="3.59406">
        <ele>384.95057333333</ele>
        <time>2017-02-22T15:06:54Z</time>
      </trkpt>
      <trkpt lat="45.93752" lon="3.59454">
        <ele>384.85008</ele>
        <time>2017-02-22T15:07:00Z</time>
      </trkpt>
      <trkpt lat="45.93723" lon="3.59485">
        <ele>386.14893333333</ele>
        <time>2017-02-22T15:07:06Z</time>
      </trkpt>
      <trkpt lat="45.93694" lon="3.59489">
        <ele>386.54775333333</ele>
        <time>2017-02-22T15:07:10Z</time>
      </trkpt>
      <trkpt lat="45.93672" lon="3.59513">
        <ele>386.74689333333</ele>
        <time>2017-02-22T15:07:15Z</time>
      </trkpt>
      <trkpt lat="45.93657" lon="3.59532">
        <ele>387.14629333333</ele>
        <time>2017-02-22T15:07:19Z</time>
      </trkpt>
      <trkpt lat="45.93644" lon="3.59546">
        <ele>387.44574666667</ele>
        <time>2017-02-22T15:07:20Z</time>
      </trkpt>
      <trkpt lat="45.93605" lon="3.59598">
        <ele>388.04418666667</ele>
        <time>2017-02-22T15:07:32Z</time>
      </trkpt>
      <trkpt lat="45.93604" lon="3.59619">
        <ele>387.34417333333</ele>
        <time>2017-02-22T15:07:35Z</time>
      </trkpt>
      <trkpt lat="45.9361" lon="3.59627">
        <ele>386.84440666667</ele>
        <time>2017-02-22T15:07:40Z</time>
      </trkpt>
      <trkpt lat="45.93614" lon="3.59638">
        <ele>386.44454666667</ele>
        <time>2017-02-22T15:07:48Z</time>
      </trkpt>
      <trkpt lat="45.93594" lon="3.59679">
        <ele>386.44376666667</ele>
        <time>2017-02-22T15:07:52Z</time>
      </trkpt>
      <trkpt lat="45.93594" lon="3.59684">
        <ele>386.14374666667</ele>
        <time>2017-02-22T15:07:54Z</time>
      </trkpt>
      <trkpt lat="45.93596" lon="3.59694">
        <ele>385.64382</ele>
        <time>2017-02-22T15:08:00Z</time>
      </trkpt>
      <trkpt lat="45.936" lon="3.59705">
        <ele>384.74400666667</ele>
        <time>2017-02-22T15:08:10Z</time>
      </trkpt>
      <trkpt lat="45.93605" lon="3.59716">
        <ele>383.84420666667</ele>
        <time>2017-02-22T15:08:18Z</time>
      </trkpt>
      <trkpt lat="45.93615" lon="3.59733">
        <ele>382.8446</ele>
        <time>2017-02-22T15:08:31Z</time>
      </trkpt>
      <trkpt lat="45.93621" lon="3.5975">
        <ele>381.74482</ele>
        <time>2017-02-22T15:08:40Z</time>
      </trkpt>
      <trkpt lat="45.93622" lon="3.59755">
        <ele>381.54487333333</ele>
        <time>2017-02-22T15:08:42Z</time>
      </trkpt>
      <trkpt lat="45.93625" lon="3.59773">
        <ele>380.64498666667</ele>
        <time>2017-02-22T15:08:54Z</time>
      </trkpt>
      <trkpt lat="45.93628" lon="3.59784">
        <ele>380.24513333333</ele>
        <time>2017-02-22T15:09:00Z</time>
      </trkpt>
      <trkpt lat="45.93628" lon="3.59786">
        <ele>380.54513333333</ele>
        <time>2017-02-22T15:09:10Z</time>
      </trkpt>
      <trkpt lat="45.93631" lon="3.598">
        <ele>379.64525333333</ele>
        <time>2017-02-22T15:09:12Z</time>
      </trkpt>
      <trkpt lat="45.93636" lon="3.59806">
        <ele>379.24542</ele>
        <time>2017-02-22T15:09:19Z</time>
      </trkpt>
      <trkpt lat="45.93647" lon="3.59817">
        <ele>378.64586</ele>
        <time>2017-02-22T15:09:32Z</time>
      </trkpt>
      <trkpt lat="45.93652" lon="3.59826">
        <ele>378.14608</ele>
        <time>2017-02-22T15:09:38Z</time>
      </trkpt>
      <trkpt lat="45.93655" lon="3.5983">
        <ele>378.34618666667</ele>
        <time>2017-02-22T15:09:43Z</time>
      </trkpt>
      <trkpt lat="45.93673" lon="3.5985">
        <ele>377.54690666667</ele>
        <time>2017-02-22T15:09:56Z</time>
      </trkpt>
      <trkpt lat="45.93678" lon="3.59866">
        <ele>377.1471</ele>
        <time>2017-02-22T15:10:01Z</time>
      </trkpt>
      <trkpt lat="45.93681" lon="3.5989">
        <ele>376.64722</ele>
        <time>2017-02-22T15:10:05Z</time>
      </trkpt>
      <trkpt lat="45.93677" lon="3.59912">
        <ele>376.14706666667</ele>
        <time>2017-02-22T15:10:10Z</time>
      </trkpt>
      <trkpt lat="45.93672" lon="3.59933">
        <ele>376.04686666667</ele>
        <time>2017-02-22T15:10:13Z</time>
      </trkpt>
      <trkpt lat="45.93665" lon="3.59956">
        <ele>376.1466</ele>
        <time>2017-02-22T15:10:18Z</time>
      </trkpt>
      <trkpt lat="45.93658" lon="3.59976">
        <ele>376.14633333333</ele>
        <time>2017-02-22T15:10:21Z</time>
      </trkpt>
      <trkpt lat="45.93651" lon="3.60012">
        <ele>375.74604</ele>
        <time>2017-02-22T15:10:27Z</time>
      </trkpt>
      <trkpt lat="45.93651" lon="3.60152">
        <ele>374.64602</ele>
        <time>2017-02-22T15:10:40Z</time>
      </trkpt>
      <trkpt lat="45.9366" lon="3.60179">
        <ele>374.64641333333</ele>
        <time>2017-02-22T15:10:42Z</time>
      </trkpt>
      <trkpt lat="45.93696" lon="3.60227">
        <ele>374.04782</ele>
        <time>2017-02-22T15:10:49Z</time>
      </trkpt>
      <trkpt lat="45.93713" lon="3.60248">
        <ele>373.74850666667</ele>
        <time>2017-02-22T15:10:52Z</time>
      </trkpt>
      <trkpt lat="45.93733" lon="3.60268">
        <ele>373.24933333333</ele>
        <time>2017-02-22T15:10:55Z</time>
      </trkpt>
      <trkpt lat="45.93747" lon="3.60275">
        <ele>371.94986666667</ele>
        <time>2017-02-22T15:11:00Z</time>
      </trkpt>
      <trkpt lat="45.93749" lon="3.60283">
        <ele>372.24994</ele>
        <time>2017-02-22T15:11:14Z</time>
      </trkpt>
      <trkpt lat="45.93761" lon="3.60289">
        <ele>383.95045333333</ele>
        <time>2017-02-22T15:11:22Z</time>
      </trkpt>
      <trkpt lat="45.93761" lon="3.60289">
        <ele>383.95045333333</ele>
        <time>2017-02-22T15:12:06Z</time>
      </trkpt>
      <trkpt lat="45.93763" lon="3.60302">
        <ele>416.15051333333</ele>
        <time>2017-02-22T15:12:10Z</time>
      </trkpt>
      <trkpt lat="45.93769" lon="3.60312">
        <ele>436.05077333333</ele>
        <time>2017-02-22T15:12:15Z</time>
      </trkpt>
      <trkpt lat="45.93771" lon="3.60316">
        <ele>444.55085333333</ele>
        <time>2017-02-22T15:12:27Z</time>
      </trkpt>
      <trkpt lat="45.9378" lon="3.60326">
        <ele>469.5512</ele>
        <time>2017-02-22T15:12:32Z</time>
      </trkpt>
      <trkpt lat="45.9378" lon="3.60326">
        <ele>469.5512</ele>
        <time>2017-02-22T15:13:22Z</time>
      </trkpt>
      <trkpt lat="45.93774" lon="3.60336">
        <ele>501.35094</ele>
        <time>2017-02-22T15:13:35Z</time>
      </trkpt>
      <trkpt lat="45.93774" lon="3.60336">
        <ele>501.35094</ele>
        <time>2017-02-22T15:14:29Z</time>
      </trkpt>
      <trkpt lat="45.93779" lon="3.60347">
        <ele>526.15117333333</ele>
        <time>2017-02-22T15:14:32Z</time>
      </trkpt>
      <trkpt lat="45.93779" lon="3.60347">
        <ele>526.65116666667</ele>
        <time>2017-02-22T15:16:02Z</time>
      </trkpt>
      <trkpt lat="45.93773" lon="3.60361">
        <ele>551.45092</ele>
        <time>2017-02-22T15:16:07Z</time>
      </trkpt>
      <trkpt lat="45.93773" lon="3.60361">
        <ele>551.45092</ele>
        <time>2017-02-22T15:16:28Z</time>
      </trkpt>
      <trkpt lat="45.93767" lon="3.60372">
        <ele>572.25068666667</ele>
        <time>2017-02-22T15:16:41Z</time>
      </trkpt>
      <trkpt lat="45.93766" lon="3.60373">
        <ele>573.15064666667</ele>
        <time>2017-02-22T15:21:00Z</time>
      </trkpt>
      <trkpt lat="45.93762" lon="3.60406">
        <ele>595.65048666667</ele>
        <time>2017-02-22T15:21:11Z</time>
      </trkpt>
      <trkpt lat="45.93734" lon="3.60431">
        <ele>595.44934</ele>
        <time>2017-02-22T15:21:16Z</time>
      </trkpt>
      <trkpt lat="45.9371" lon="3.60453">
        <ele>595.24841333333</ele>
        <time>2017-02-22T15:21:20Z</time>
      </trkpt>
      <trkpt lat="45.93659" lon="3.60582">
        <ele>594.84636</ele>
        <time>2017-02-22T15:21:33Z</time>
      </trkpt>
      <trkpt lat="45.93553" lon="3.60652">
        <ele>594.54212666667</ele>
        <time>2017-02-22T15:21:44Z</time>
      </trkpt>
      <trkpt lat="45.93542" lon="3.60672">
        <ele>594.44169333333</ele>
        <time>2017-02-22T15:21:46Z</time>
      </trkpt>
      <trkpt lat="45.93433" lon="3.60715">
        <ele>593.93731333333</ele>
        <time>2017-02-22T15:21:56Z</time>
      </trkpt>
      <trkpt lat="45.93404" lon="3.60739">
        <ele>593.83616666667</ele>
        <time>2017-02-22T15:22:00Z</time>
      </trkpt>
      <trkpt lat="45.93356" lon="3.60886">
        <ele>593.43424666667</ele>
        <time>2017-02-22T15:22:09Z</time>
      </trkpt>
      <trkpt lat="45.93324" lon="3.60883">
        <ele>592.03294</ele>
        <time>2017-02-22T15:22:21Z</time>
      </trkpt>
      <trkpt lat="45.93297" lon="3.6084">
        <ele>591.13188666667</ele>
        <time>2017-02-22T15:22:32Z</time>
      </trkpt>
      <trkpt lat="45.93291" lon="3.60824">
        <ele>590.73165333333</ele>
        <time>2017-02-22T15:22:36Z</time>
      </trkpt>
      <trkpt lat="45.93285" lon="3.60812">
        <ele>589.73139333333</ele>
        <time>2017-02-22T15:22:39Z</time>
      </trkpt>
      <trkpt lat="45.93283" lon="3.60794">
        <ele>589.33132</ele>
        <time>2017-02-22T15:22:43Z</time>
      </trkpt>
      <trkpt lat="45.93274" lon="3.60778">
        <ele>588.93097333333</ele>
        <time>2017-02-22T15:22:48Z</time>
      </trkpt>
      <trkpt lat="45.93268" lon="3.60768">
        <ele>589.3307</ele>
        <time>2017-02-22T15:22:52Z</time>
      </trkpt>
      <trkpt lat="45.9326" lon="3.60764">
        <ele>589.23039333333</ele>
        <time>2017-02-22T15:22:55Z</time>
      </trkpt>
      <trkpt lat="45.93255" lon="3.60761">
        <ele>589.83021333333</ele>
        <time>2017-02-22T15:22:59Z</time>
      </trkpt>
      <trkpt lat="45.93244" lon="3.60757">
        <ele>589.62976666667</ele>
        <time>2017-02-22T15:23:03Z</time>
      </trkpt>
      <trkpt lat="45.93237" lon="3.60756">
        <ele>590.02946666667</ele>
        <time>2017-02-22T15:23:07Z</time>
      </trkpt>
      <trkpt lat="45.93235" lon="3.60756">
        <ele>590.12939333333</ele>
        <time>2017-02-22T15:23:13Z</time>
      </trkpt>
      <trkpt lat="45.93219" lon="3.60751">
        <ele>590.12874</ele>
        <time>2017-02-22T15:23:16Z</time>
      </trkpt>
      <trkpt lat="45.93211" lon="3.60757">
        <ele>589.52842666667</ele>
        <time>2017-02-22T15:23:22Z</time>
      </trkpt>
      <trkpt lat="45.93202" lon="3.6076">
        <ele>588.82809333333</ele>
        <time>2017-02-22T15:23:29Z</time>
      </trkpt>
      <trkpt lat="45.93199" lon="3.60762">
        <ele>588.42797333333</ele>
        <time>2017-02-22T15:23:35Z</time>
      </trkpt>
      <trkpt lat="45.93197" lon="3.60787">
        <ele>584.82787333333</ele>
        <time>2017-02-22T15:23:45Z</time>
      </trkpt>
      <trkpt lat="45.93174" lon="3.60871">
        <ele>583.72696</ele>
        <time>2017-02-22T15:23:55Z</time>
      </trkpt>
      <trkpt lat="45.93151" lon="3.60922">
        <ele>583.02605333333</ele>
        <time>2017-02-22T15:24:00Z</time>
      </trkpt>
      <trkpt lat="45.93138" lon="3.60971">
        <ele>582.82553333333</ele>
        <time>2017-02-22T15:24:03Z</time>
      </trkpt>
      <trkpt lat="45.93117" lon="3.61026">
        <ele>582.22466</ele>
        <time>2017-02-22T15:24:15Z</time>
      </trkpt>
      <trkpt lat="45.93074" lon="3.61063">
        <ele>580.62296</ele>
        <time>2017-02-22T15:24:28Z</time>
      </trkpt>
      <trkpt lat="45.93065" lon="3.61072">
        <ele>579.72258666667</ele>
        <time>2017-02-22T15:24:32Z</time>
      </trkpt>
      <trkpt lat="45.93059" lon="3.61083">
        <ele>579.32237333333</ele>
        <time>2017-02-22T15:24:36Z</time>
      </trkpt>
      <trkpt lat="45.93056" lon="3.61089">
        <ele>579.32224</ele>
        <time>2017-02-22T15:24:43Z</time>
      </trkpt>
      <trkpt lat="45.93051" lon="3.61104">
        <ele>578.12203333333</ele>
        <time>2017-02-22T15:24:47Z</time>
      </trkpt>
      <trkpt lat="45.93047" lon="3.61122">
        <ele>577.52189333333</ele>
        <time>2017-02-22T15:24:54Z</time>
      </trkpt>
      <trkpt lat="45.93042" lon="3.61144">
        <ele>576.42166</ele>
        <time>2017-02-22T15:25:00Z</time>
      </trkpt>
      <trkpt lat="45.93042" lon="3.61156">
        <ele>575.92168</ele>
        <time>2017-02-22T15:25:06Z</time>
      </trkpt>
      <trkpt lat="45.93043" lon="3.61166">
        <ele>575.32172</ele>
        <time>2017-02-22T15:25:09Z</time>
      </trkpt>
      <trkpt lat="45.93043" lon="3.61173">
        <ele>574.92171333333</ele>
        <time>2017-02-22T15:25:14Z</time>
      </trkpt>
      <trkpt lat="45.93041" lon="3.61192">
        <ele>573.82162</ele>
        <time>2017-02-22T15:25:17Z</time>
      </trkpt>
      <trkpt lat="45.93042" lon="3.612">
        <ele>573.42166</ele>
        <time>2017-02-22T15:25:19Z</time>
      </trkpt>
      <trkpt lat="45.93042" lon="3.61226">
        <ele>572.92169333333</ele>
        <time>2017-02-22T15:25:25Z</time>
      </trkpt>
      <trkpt lat="45.93044" lon="3.61252">
        <ele>572.42174</ele>
        <time>2017-02-22T15:25:30Z</time>
      </trkpt>
      <trkpt lat="45.93033" lon="3.61266">
        <ele>571.42132666667</ele>
        <time>2017-02-22T15:25:35Z</time>
      </trkpt>
      <trkpt lat="45.93023" lon="3.61283">
        <ele>570.32092666667</ele>
        <time>2017-02-22T15:25:39Z</time>
      </trkpt>
      <trkpt lat="45.93013" lon="3.61297">
        <ele>569.3205</ele>
        <time>2017-02-22T15:25:44Z</time>
      </trkpt>
      <trkpt lat="45.93003" lon="3.61311">
        <ele>568.52012</ele>
        <time>2017-02-22T15:25:49Z</time>
      </trkpt>
      <trkpt lat="45.92996" lon="3.61318">
        <ele>567.91983333333</ele>
        <time>2017-02-22T15:25:56Z</time>
      </trkpt>
      <trkpt lat="45.92979" lon="3.61335">
        <ele>567.01916666667</ele>
        <time>2017-02-22T15:26:00Z</time>
      </trkpt>
      <trkpt lat="45.92965" lon="3.6134">
        <ele>566.41860666667</ele>
        <time>2017-02-22T15:26:04Z</time>
      </trkpt>
      <trkpt lat="45.92951" lon="3.61346">
        <ele>566.31805333333</ele>
        <time>2017-02-22T15:26:08Z</time>
      </trkpt>
      <trkpt lat="45.92946" lon="3.61349">
        <ele>566.11782</ele>
        <time>2017-02-22T15:26:11Z</time>
      </trkpt>
      <trkpt lat="45.9293" lon="3.61354">
        <ele>565.11718</ele>
        <time>2017-02-22T15:26:13Z</time>
      </trkpt>
      <trkpt lat="45.92918" lon="3.61361">
        <ele>565.01671333333</ele>
        <time>2017-02-22T15:26:17Z</time>
      </trkpt>
      <trkpt lat="45.92909" lon="3.61363">
        <ele>565.01635333333</ele>
        <time>2017-02-22T15:26:18Z</time>
      </trkpt>
      <trkpt lat="45.92898" lon="3.61367">
        <ele>564.81592666667</ele>
        <time>2017-02-22T15:26:23Z</time>
      </trkpt>
      <trkpt lat="45.92875" lon="3.61375">
        <ele>565.21498</ele>
        <time>2017-02-22T15:26:30Z</time>
      </trkpt>
      <trkpt lat="45.92858" lon="3.61378">
        <ele>565.21433333333</ele>
        <time>2017-02-22T15:26:35Z</time>
      </trkpt>
      <trkpt lat="45.92849" lon="3.61379">
        <ele>565.31394</ele>
        <time>2017-02-22T15:26:38Z</time>
      </trkpt>
      <trkpt lat="45.92828" lon="3.61385">
        <ele>565.81311333333</ele>
        <time>2017-02-22T15:26:45Z</time>
      </trkpt>
      <trkpt lat="45.92819" lon="3.61383">
        <ele>565.81274</ele>
        <time>2017-02-22T15:26:49Z</time>
      </trkpt>
      <trkpt lat="45.92808" lon="3.61391">
        <ele>565.6123</ele>
        <time>2017-02-22T15:26:53Z</time>
      </trkpt>
      <trkpt lat="45.92803" lon="3.61394">
        <ele>565.7121</ele>
        <time>2017-02-22T15:26:55Z</time>
      </trkpt>
      <trkpt lat="45.92797" lon="3.61401">
        <ele>565.71188</ele>
        <time>2017-02-22T15:27:00Z</time>
      </trkpt>
      <trkpt lat="45.92772" lon="3.6142">
        <ele>564.91088666667</ele>
        <time>2017-02-22T15:27:05Z</time>
      </trkpt>
      <trkpt lat="45.92763" lon="3.6143">
        <ele>564.6105</ele>
        <time>2017-02-22T15:27:09Z</time>
      </trkpt>
      <trkpt lat="45.92756" lon="3.61436">
        <ele>564.31023333333</ele>
        <time>2017-02-22T15:27:12Z</time>
      </trkpt>
      <trkpt lat="45.92752" lon="3.61441">
        <ele>564.01006</ele>
        <time>2017-02-22T15:27:14Z</time>
      </trkpt>
      <trkpt lat="45.92743" lon="3.61451">
        <ele>563.4097</ele>
        <time>2017-02-22T15:27:17Z</time>
      </trkpt>
      <trkpt lat="45.92737" lon="3.61459">
        <ele>562.90948666667</ele>
        <time>2017-02-22T15:27:24Z</time>
      </trkpt>
      <trkpt lat="45.92729" lon="3.61467">
        <ele>561.90916666667</ele>
        <time>2017-02-22T15:27:24Z</time>
      </trkpt>
      <trkpt lat="45.92692" lon="3.61514">
        <ele>558.60768666667</ele>
        <time>2017-02-22T15:27:37Z</time>
      </trkpt>
      <trkpt lat="45.9268" lon="3.61527">
        <ele>558.30721333333</ele>
        <time>2017-02-22T15:27:42Z</time>
      </trkpt>
      <trkpt lat="45.92671" lon="3.61542">
        <ele>558.10684666667</ele>
        <time>2017-02-22T15:27:46Z</time>
      </trkpt>
      <trkpt lat="45.92661" lon="3.61549">
        <ele>558.50642</ele>
        <time>2017-02-22T15:27:50Z</time>
      </trkpt>
      <trkpt lat="45.92651" lon="3.61554">
        <ele>559.30602</ele>
        <time>2017-02-22T15:27:54Z</time>
      </trkpt>
      <trkpt lat="45.92639" lon="3.61557">
        <ele>559.30556</ele>
        <time>2017-02-22T15:27:58Z</time>
      </trkpt>
      <trkpt lat="45.92628" lon="3.61558">
        <ele>559.50510666667</ele>
        <time>2017-02-22T15:28:02Z</time>
      </trkpt>
      <trkpt lat="45.92611" lon="3.61566">
        <ele>559.80444666667</ele>
        <time>2017-02-22T15:28:09Z</time>
      </trkpt>
      <trkpt lat="45.92596" lon="3.61585">
        <ele>558.40384</ele>
        <time>2017-02-22T15:28:17Z</time>
      </trkpt>
      <trkpt lat="45.92593" lon="3.61613">
        <ele>557.0037</ele>
        <time>2017-02-22T15:28:22Z</time>
      </trkpt>
      <trkpt lat="45.92591" lon="3.61636">
        <ele>556.70365333333</ele>
        <time>2017-02-22T15:28:27Z</time>
      </trkpt>
      <trkpt lat="45.92584" lon="3.61652">
        <ele>556.30336666667</ele>
        <time>2017-02-22T15:28:31Z</time>
      </trkpt>
      <trkpt lat="45.92582" lon="3.61656">
        <ele>556.20328666667</ele>
        <time>2017-02-22T15:28:32Z</time>
      </trkpt>
      <trkpt lat="45.92577" lon="3.61672">
        <ele>556.30306</ele>
        <time>2017-02-22T15:28:36Z</time>
      </trkpt>
      <trkpt lat="45.92572" lon="3.61679">
        <ele>556.20289333333</ele>
        <time>2017-02-22T15:28:39Z</time>
      </trkpt>
      <trkpt lat="45.9257" lon="3.61685">
        <ele>555.90279333333</ele>
        <time>2017-02-22T15:28:47Z</time>
      </trkpt>
      <trkpt lat="45.92559" lon="3.61718">
        <ele>555.10237333333</ele>
        <time>2017-02-22T15:28:49Z</time>
      </trkpt>
      <trkpt lat="45.92549" lon="3.61745">
        <ele>554.40195333333</ele>
        <time>2017-02-22T15:28:57Z</time>
      </trkpt>
      <trkpt lat="45.92543" lon="3.61761">
        <ele>553.6017</ele>
        <time>2017-02-22T15:29:02Z</time>
      </trkpt>
      <trkpt lat="45.92538" lon="3.61776">
        <ele>552.9015</ele>
        <time>2017-02-22T15:29:07Z</time>
      </trkpt>
      <trkpt lat="45.92535" lon="3.61792">
        <ele>553.40138</ele>
        <time>2017-02-22T15:29:12Z</time>
      </trkpt>
      <trkpt lat="45.9253" lon="3.61801">
        <ele>553.5012</ele>
        <time>2017-02-22T15:29:14Z</time>
      </trkpt>
      <trkpt lat="45.92524" lon="3.61819">
        <ele>554.10094</ele>
        <time>2017-02-22T15:29:19Z</time>
      </trkpt>
      <trkpt lat="45.92498" lon="3.61874">
        <ele>557.09992</ele>
        <time>2017-02-22T15:29:33Z</time>
      </trkpt>
      <trkpt lat="45.92488" lon="3.6189">
        <ele>558.09953333333</ele>
        <time>2017-02-22T15:29:38Z</time>
      </trkpt>
      <trkpt lat="45.92482" lon="3.619">
        <ele>558.59926</ele>
        <time>2017-02-22T15:29:42Z</time>
      </trkpt>
      <trkpt lat="45.92475" lon="3.61909">
        <ele>559.099</ele>
        <time>2017-02-22T15:29:47Z</time>
      </trkpt>
      <trkpt lat="45.9247" lon="3.61911">
        <ele>560.3988</ele>
        <time>2017-02-22T15:29:55Z</time>
      </trkpt>
      <trkpt lat="45.92461" lon="3.61918">
        <ele>561.69843333333</ele>
        <time>2017-02-22T15:29:59Z</time>
      </trkpt>
      <trkpt lat="45.92454" lon="3.61924">
        <ele>562.99816666667</ele>
        <time>2017-02-22T15:30:03Z</time>
      </trkpt>
      <trkpt lat="45.92447" lon="3.61932">
        <ele>564.19788</ele>
        <time>2017-02-22T15:30:10Z</time>
      </trkpt>
      <trkpt lat="45.92442" lon="3.61936">
        <ele>564.59766</ele>
        <time>2017-02-22T15:30:15Z</time>
      </trkpt>
      <trkpt lat="45.9244" lon="3.61956">
        <ele>574.0976</ele>
        <time>2017-02-22T15:30:20Z</time>
      </trkpt>
      <trkpt lat="45.92446" lon="3.61964">
        <ele>576.99782</ele>
        <time>2017-02-22T15:30:25Z</time>
      </trkpt>
      <trkpt lat="45.92452" lon="3.61963">
        <ele>578.79806666667</ele>
        <time>2017-02-22T15:30:30Z</time>
      </trkpt>
      <trkpt lat="45.92455" lon="3.6196">
        <ele>579.79821333333</ele>
        <time>2017-02-22T15:30:36Z</time>
      </trkpt>
      <trkpt lat="45.92464" lon="3.61951">
        <ele>582.49854666667</ele>
        <time>2017-02-22T15:30:39Z</time>
      </trkpt>
      <trkpt lat="45.92471" lon="3.61943">
        <ele>584.59885333333</ele>
        <time>2017-02-22T15:30:44Z</time>
      </trkpt>
      <trkpt lat="45.92478" lon="3.61935">
        <ele>586.59912</ele>
        <time>2017-02-22T15:30:49Z</time>
      </trkpt>
      <trkpt lat="45.92485" lon="3.61927">
        <ele>587.99938</ele>
        <time>2017-02-22T15:30:54Z</time>
      </trkpt>
      <trkpt lat="45.92492" lon="3.61921">
        <ele>588.79969333333</ele>
        <time>2017-02-22T15:30:58Z</time>
      </trkpt>
      <trkpt lat="45.92496" lon="3.61916">
        <ele>589.19985333333</ele>
        <time>2017-02-22T15:31:04Z</time>
      </trkpt>
      <trkpt lat="45.92502" lon="3.61912">
        <ele>589.10006</ele>
        <time>2017-02-22T15:31:05Z</time>
      </trkpt>
      <trkpt lat="45.92508" lon="3.61905">
        <ele>589.20030666667</ele>
        <time>2017-02-22T15:31:11Z</time>
      </trkpt>
      <trkpt lat="45.92511" lon="3.61903">
        <ele>589.70042666667</ele>
        <time>2017-02-22T15:31:12Z</time>
      </trkpt>
      <trkpt lat="45.92518" lon="3.619">
        <ele>590.50073333333</ele>
        <time>2017-02-22T15:31:16Z</time>
      </trkpt>
      <trkpt lat="45.92526" lon="3.61899">
        <ele>590.90105333333</ele>
        <time>2017-02-22T15:31:23Z</time>
      </trkpt>
      <trkpt lat="45.92547" lon="3.61887">
        <ele>590.60188</ele>
        <time>2017-02-22T15:31:28Z</time>
      </trkpt>
      <trkpt lat="45.92551" lon="3.61881">
        <ele>590.40203333333</ele>
        <time>2017-02-22T15:31:31Z</time>
      </trkpt>
      <trkpt lat="45.92551" lon="3.61856">
        <ele>591.30202</ele>
        <time>2017-02-22T15:31:41Z</time>
      </trkpt>
      <trkpt lat="45.92551" lon="3.61842">
        <ele>590.80204</ele>
        <time>2017-02-22T15:31:47Z</time>
      </trkpt>
      <trkpt lat="45.92555" lon="3.61832">
        <ele>590.10218</ele>
        <time>2017-02-22T15:31:52Z</time>
      </trkpt>
      <trkpt lat="45.92558" lon="3.61823">
        <ele>589.80230666667</ele>
        <time>2017-02-22T15:31:56Z</time>
      </trkpt>
      <trkpt lat="45.9256" lon="3.61815">
        <ele>589.30240666667</ele>
        <time>2017-02-22T15:32:00Z</time>
      </trkpt>
      <trkpt lat="45.92561" lon="3.61803">
        <ele>588.10242</ele>
        <time>2017-02-22T15:32:04Z</time>
      </trkpt>
      <trkpt lat="45.92566" lon="3.61791">
        <ele>588.00264666667</ele>
        <time>2017-02-22T15:32:09Z</time>
      </trkpt>
      <trkpt lat="45.92575" lon="3.61776">
        <ele>588.603</ele>
        <time>2017-02-22T15:32:17Z</time>
      </trkpt>
      <trkpt lat="45.9258" lon="3.61767">
        <ele>588.9032</ele>
        <time>2017-02-22T15:32:22Z</time>
      </trkpt>
      <trkpt lat="45.92585" lon="3.61761">
        <ele>588.3034</ele>
        <time>2017-02-22T15:32:28Z</time>
      </trkpt>
      <trkpt lat="45.92589" lon="3.61755">
        <ele>587.60357333333</ele>
        <time>2017-02-22T15:32:34Z</time>
      </trkpt>
      <trkpt lat="45.92594" lon="3.61745">
        <ele>588.20374666667</ele>
        <time>2017-02-22T15:32:40Z</time>
      </trkpt>
      <trkpt lat="45.92601" lon="3.61733">
        <ele>588.00404</ele>
        <time>2017-02-22T15:32:47Z</time>
      </trkpt>
      <trkpt lat="45.92604" lon="3.61728">
        <ele>587.60416</ele>
        <time>2017-02-22T15:33:00Z</time>
      </trkpt>
      <trkpt lat="45.92616" lon="3.61707">
        <ele>587.30465333333</ele>
        <time>2017-02-22T15:33:04Z</time>
      </trkpt>
      <trkpt lat="45.92624" lon="3.617">
        <ele>587.60494</ele>
        <time>2017-02-22T15:33:18Z</time>
      </trkpt>
      <trkpt lat="45.92629" lon="3.61695">
        <ele>588.10516</ele>
        <time>2017-02-22T15:33:22Z</time>
      </trkpt>
      <trkpt lat="45.92637" lon="3.61687">
        <ele>588.20548666667</ele>
        <time>2017-02-22T15:33:26Z</time>
      </trkpt>
      <trkpt lat="45.92641" lon="3.61684">
        <ele>588.10563333333</ele>
        <time>2017-02-22T15:33:29Z</time>
      </trkpt>
      <trkpt lat="45.92648" lon="3.61679">
        <ele>588.40590666667</ele>
        <time>2017-02-22T15:33:42Z</time>
      </trkpt>
      <trkpt lat="45.92669" lon="3.61672">
        <ele>590.60676666667</ele>
        <time>2017-02-22T15:33:47Z</time>
      </trkpt>
      <trkpt lat="45.92676" lon="3.61671">
        <ele>591.50704666667</ele>
        <time>2017-02-22T15:33:53Z</time>
      </trkpt>
      <trkpt lat="45.92681" lon="3.61671">
        <ele>591.50722</ele>
        <time>2017-02-22T15:33:56Z</time>
      </trkpt>
      <trkpt lat="45.92692" lon="3.61668">
        <ele>591.80766</ele>
        <time>2017-02-22T15:34:00Z</time>
      </trkpt>
      <trkpt lat="45.92702" lon="3.61678">
        <ele>592.70806</ele>
        <time>2017-02-22T15:34:08Z</time>
      </trkpt>
      <trkpt lat="45.92698" lon="3.61687">
        <ele>593.10793333333</ele>
        <time>2017-02-22T15:34:17Z</time>
      </trkpt>
      <trkpt lat="45.92694" lon="3.61704">
        <ele>593.50776666667</ele>
        <time>2017-02-22T15:34:19Z</time>
      </trkpt>
      <trkpt lat="45.92691" lon="3.61723">
        <ele>594.90764666667</ele>
        <time>2017-02-22T15:34:27Z</time>
      </trkpt>
      <trkpt lat="45.92688" lon="3.61742">
        <ele>595.90750666667</ele>
        <time>2017-02-22T15:34:32Z</time>
      </trkpt>
      <trkpt lat="45.92687" lon="3.61747">
        <ele>596.10748</ele>
        <time>2017-02-22T15:34:33Z</time>
      </trkpt>
      <trkpt lat="45.92683" lon="3.61765">
        <ele>596.60731333333</ele>
        <time>2017-02-22T15:34:37Z</time>
      </trkpt>
      <trkpt lat="45.92681" lon="3.61773">
        <ele>597.00723333333</ele>
        <time>2017-02-22T15:34:39Z</time>
      </trkpt>
      <trkpt lat="45.92679" lon="3.61781">
        <ele>597.40717333333</ele>
        <time>2017-02-22T15:34:47Z</time>
      </trkpt>
      <trkpt lat="45.92676" lon="3.61808">
        <ele>598.80704</ele>
        <time>2017-02-22T15:34:48Z</time>
      </trkpt>
      <trkpt lat="45.92676" lon="3.61821">
        <ele>600.00704666667</ele>
        <time>2017-02-22T15:34:52Z</time>
      </trkpt>
      <trkpt lat="45.92677" lon="3.61828">
        <ele>600.40706666667</ele>
        <time>2017-02-22T15:34:55Z</time>
      </trkpt>
      <trkpt lat="45.92679" lon="3.61842">
        <ele>600.90714666667</ele>
        <time>2017-02-22T15:35:00Z</time>
      </trkpt>
      <trkpt lat="45.92679" lon="3.61852">
        <ele>601.40716666667</ele>
        <time>2017-02-22T15:35:07Z</time>
      </trkpt>
      <trkpt lat="45.92683" lon="3.61889">
        <ele>603.40731333333</ele>
        <time>2017-02-22T15:35:17Z</time>
      </trkpt>
      <trkpt lat="45.92684" lon="3.61899">
        <ele>603.40734666667</ele>
        <time>2017-02-22T15:35:19Z</time>
      </trkpt>
      <trkpt lat="45.92687" lon="3.6194">
        <ele>603.70749333333</ele>
        <time>2017-02-22T15:35:30Z</time>
      </trkpt>
      <trkpt lat="45.92694" lon="3.61977">
        <ele>603.30774</ele>
        <time>2017-02-22T15:35:43Z</time>
      </trkpt>
      <trkpt lat="45.92696" lon="3.61987">
        <ele>603.20782666667</ele>
        <time>2017-02-22T15:35:47Z</time>
      </trkpt>
      <trkpt lat="45.92697" lon="3.62">
        <ele>603.20788666667</ele>
        <time>2017-02-22T15:35:51Z</time>
      </trkpt>
      <trkpt lat="45.92699" lon="3.62008">
        <ele>603.00794666667</ele>
        <time>2017-02-22T15:35:54Z</time>
      </trkpt>
      <trkpt lat="45.927" lon="3.62016">
        <ele>602.90798666667</ele>
        <time>2017-02-22T15:35:58Z</time>
      </trkpt>
      <trkpt lat="45.92701" lon="3.62029">
        <ele>602.80803333333</ele>
        <time>2017-02-22T15:36:04Z</time>
      </trkpt>
      <trkpt lat="45.92705" lon="3.62039">
        <ele>603.00821333333</ele>
        <time>2017-02-22T15:36:08Z</time>
      </trkpt>
      <trkpt lat="45.92706" lon="3.62044">
        <ele>603.10822</ele>
        <time>2017-02-22T15:36:10Z</time>
      </trkpt>
      <trkpt lat="45.92708" lon="3.62056">
        <ele>603.20832</ele>
        <time>2017-02-22T15:36:16Z</time>
      </trkpt>
      <trkpt lat="45.9271" lon="3.62068">
        <ele>603.70840666667</ele>
        <time>2017-02-22T15:36:23Z</time>
      </trkpt>
      <trkpt lat="45.92711" lon="3.62079">
        <ele>603.40845333333</ele>
        <time>2017-02-22T15:36:28Z</time>
      </trkpt>
      <trkpt lat="45.92713" lon="3.62086">
        <ele>603.7085</ele>
        <time>2017-02-22T15:36:32Z</time>
      </trkpt>
      <trkpt lat="45.92714" lon="3.62098">
        <ele>604.00854</ele>
        <time>2017-02-22T15:36:39Z</time>
      </trkpt>
      <trkpt lat="45.92715" lon="3.62108">
        <ele>603.70858666667</ele>
        <time>2017-02-22T15:36:43Z</time>
      </trkpt>
      <trkpt lat="45.92716" lon="3.62118">
        <ele>603.20865333333</ele>
        <time>2017-02-22T15:36:47Z</time>
      </trkpt>
      <trkpt lat="45.92721" lon="3.62129">
        <ele>603.00882</ele>
        <time>2017-02-22T15:36:54Z</time>
      </trkpt>
      <trkpt lat="45.92724" lon="3.62142">
        <ele>603.20894666667</ele>
        <time>2017-02-22T15:36:57Z</time>
      </trkpt>
      <trkpt lat="45.92724" lon="3.62153">
        <ele>603.30896666667</ele>
        <time>2017-02-22T15:37:02Z</time>
      </trkpt>
      <trkpt lat="45.92726" lon="3.62162">
        <ele>603.90904666667</ele>
        <time>2017-02-22T15:37:08Z</time>
      </trkpt>
      <trkpt lat="45.92725" lon="3.62173">
        <ele>604.509</ele>
        <time>2017-02-22T15:37:13Z</time>
      </trkpt>
      <trkpt lat="45.9272" lon="3.62181">
        <ele>605.20878</ele>
        <time>2017-02-22T15:37:19Z</time>
      </trkpt>
      <trkpt lat="45.92715" lon="3.62187">
        <ele>605.90860666667</ele>
        <time>2017-02-22T15:37:23Z</time>
      </trkpt>
      <trkpt lat="45.92709" lon="3.62194">
        <ele>606.90836</ele>
        <time>2017-02-22T15:37:29Z</time>
      </trkpt>
      <trkpt lat="45.927" lon="3.62203">
        <ele>608.00800666667</ele>
        <time>2017-02-22T15:37:36Z</time>
      </trkpt>
      <trkpt lat="45.92694" lon="3.62212">
        <ele>609.00775333333</ele>
        <time>2017-02-22T15:37:40Z</time>
      </trkpt>
      <trkpt lat="45.92688" lon="3.62221">
        <ele>609.30752</ele>
        <time>2017-02-22T15:37:45Z</time>
      </trkpt>
      <trkpt lat="45.92684" lon="3.62227">
        <ele>609.50736666667</ele>
        <time>2017-02-22T15:37:49Z</time>
      </trkpt>
      <trkpt lat="45.92675" lon="3.62239">
        <ele>610.60700666667</ele>
        <time>2017-02-22T15:38:00Z</time>
      </trkpt>
      <trkpt lat="45.92659" lon="3.62251">
        <ele>611.60634</ele>
        <time>2017-02-22T15:38:13Z</time>
      </trkpt>
      <trkpt lat="45.92651" lon="3.62256">
        <ele>612.80603333333</ele>
        <time>2017-02-22T15:38:18Z</time>
      </trkpt>
      <trkpt lat="45.92647" lon="3.62258">
        <ele>613.20586666667</ele>
        <time>2017-02-22T15:38:22Z</time>
      </trkpt>
      <trkpt lat="45.92631" lon="3.62272">
        <ele>615.90525333333</ele>
        <time>2017-02-22T15:38:35Z</time>
      </trkpt>
      <trkpt lat="45.92629" lon="3.62274">
        <ele>616.10516</ele>
        <time>2017-02-22T15:38:48Z</time>
      </trkpt>
      <trkpt lat="45.92617" lon="3.62293">
        <ele>620.00468666667</ele>
        <time>2017-02-22T15:38:51Z</time>
      </trkpt>
      <trkpt lat="45.92617" lon="3.62293">
        <ele>620.80466</ele>
        <time>2017-02-22T15:39:12Z</time>
      </trkpt>
      <trkpt lat="45.92611" lon="3.62305">
        <ele>631.40445333333</ele>
        <time>2017-02-22T15:39:16Z</time>
      </trkpt>
      <trkpt lat="45.92608" lon="3.62312">
        <ele>633.00430666667</ele>
        <time>2017-02-22T15:39:23Z</time>
      </trkpt>
      <trkpt lat="45.926" lon="3.62328">
        <ele>634.50399333333</ele>
        <time>2017-02-22T15:39:34Z</time>
      </trkpt>
      <trkpt lat="45.92598" lon="3.6234">
        <ele>635.30390666667</ele>
        <time>2017-02-22T15:39:41Z</time>
      </trkpt>
      <trkpt lat="45.92597" lon="3.6235">
        <ele>636.10389333333</ele>
        <time>2017-02-22T15:39:47Z</time>
      </trkpt>
      <trkpt lat="45.92598" lon="3.62353">
        <ele>636.40392666667</ele>
        <time>2017-02-22T15:39:48Z</time>
      </trkpt>
      <trkpt lat="45.92599" lon="3.62366">
        <ele>638.70396666667</ele>
        <time>2017-02-22T15:39:57Z</time>
      </trkpt>
      <trkpt lat="45.92601" lon="3.62376">
        <ele>640.70404</ele>
        <time>2017-02-22T15:40:03Z</time>
      </trkpt>
      <trkpt lat="45.92605" lon="3.62395">
        <ele>646.90419333333</ele>
        <time>2017-02-22T15:40:07Z</time>
      </trkpt>
      <trkpt lat="45.92612" lon="3.62402">
        <ele>649.40447333333</ele>
        <time>2017-02-22T15:40:13Z</time>
      </trkpt>
      <trkpt lat="45.92617" lon="3.62407">
        <ele>650.90467333333</ele>
        <time>2017-02-22T15:40:18Z</time>
      </trkpt>
      <trkpt lat="45.92621" lon="3.6241">
        <ele>652.60482</ele>
        <time>2017-02-22T15:40:20Z</time>
      </trkpt>
      <trkpt lat="45.92625" lon="3.62414">
        <ele>654.40498</ele>
        <time>2017-02-22T15:40:25Z</time>
      </trkpt>
      <trkpt lat="45.92638" lon="3.62424">
        <ele>658.70552666667</ele>
        <time>2017-02-22T15:40:38Z</time>
      </trkpt>
      <trkpt lat="45.92652" lon="3.62431">
        <ele>662.20606666667</ele>
        <time>2017-02-22T15:40:48Z</time>
      </trkpt>
      <trkpt lat="45.92655" lon="3.62433">
        <ele>663.00618666667</ele>
        <time>2017-02-22T15:40:50Z</time>
      </trkpt>
      <trkpt lat="45.92664" lon="3.62438">
        <ele>665.70654666667</ele>
        <time>2017-02-22T15:40:57Z</time>
      </trkpt>
      <trkpt lat="45.92671" lon="3.6244">
        <ele>667.90685333333</ele>
        <time>2017-02-22T15:41:02Z</time>
      </trkpt>
      <trkpt lat="45.92679" lon="3.62441">
        <ele>669.00714</ele>
        <time>2017-02-22T15:41:07Z</time>
      </trkpt>
      <trkpt lat="45.92688" lon="3.62442">
        <ele>669.40752</ele>
        <time>2017-02-22T15:41:12Z</time>
      </trkpt>
      <trkpt lat="45.92697" lon="3.62445">
        <ele>670.00788666667</ele>
        <time>2017-02-22T15:41:16Z</time>
      </trkpt>
      <trkpt lat="45.92707" lon="3.62447">
        <ele>670.10829333333</ele>
        <time>2017-02-22T15:41:19Z</time>
      </trkpt>
      <trkpt lat="45.92713" lon="3.62447">
        <ele>670.20850666667</ele>
        <time>2017-02-22T15:41:22Z</time>
      </trkpt>
      <trkpt lat="45.92725" lon="3.6245">
        <ele>668.70900666667</ele>
        <time>2017-02-22T15:41:27Z</time>
      </trkpt>
      <trkpt lat="45.92736" lon="3.62455">
        <ele>669.50942666667</ele>
        <time>2017-02-22T15:41:31Z</time>
      </trkpt>
      <trkpt lat="45.92747" lon="3.62457">
        <ele>669.50986</ele>
        <time>2017-02-22T15:41:35Z</time>
      </trkpt>
      <trkpt lat="45.92752" lon="3.62456">
        <ele>670.21008666667</ele>
        <time>2017-02-22T15:41:37Z</time>
      </trkpt>
      <trkpt lat="45.92758" lon="3.62456">
        <ele>670.1103</ele>
        <time>2017-02-22T15:41:46Z</time>
      </trkpt>
      <trkpt lat="45.92789" lon="3.62442">
        <ele>683.51156666667</ele>
        <time>2017-02-22T15:41:50Z</time>
      </trkpt>
      <trkpt lat="45.92798" lon="3.62443">
        <ele>683.91193333333</ele>
        <time>2017-02-22T15:41:53Z</time>
      </trkpt>
      <trkpt lat="45.92819" lon="3.62445">
        <ele>683.01276666667</ele>
        <time>2017-02-22T15:42:00Z</time>
      </trkpt>
      <trkpt lat="45.92825" lon="3.62446">
        <ele>683.71301333333</ele>
        <time>2017-02-22T15:42:03Z</time>
      </trkpt>
      <trkpt lat="45.92855" lon="3.6247">
        <ele>684.11418</ele>
        <time>2017-02-22T15:42:16Z</time>
      </trkpt>
      <trkpt lat="45.92862" lon="3.62478">
        <ele>684.61448</ele>
        <time>2017-02-22T15:42:20Z</time>
      </trkpt>
      <trkpt lat="45.92867" lon="3.62482">
        <ele>685.01466666667</ele>
        <time>2017-02-22T15:42:23Z</time>
      </trkpt>
      <trkpt lat="45.92875" lon="3.62486">
        <ele>685.11498</ele>
        <time>2017-02-22T15:42:27Z</time>
      </trkpt>
      <trkpt lat="45.9288" lon="3.62488">
        <ele>684.81521333333</ele>
        <time>2017-02-22T15:42:29Z</time>
      </trkpt>
      <trkpt lat="45.92911" lon="3.62489">
        <ele>684.21644666667</ele>
        <time>2017-02-22T15:42:39Z</time>
      </trkpt>
      <trkpt lat="45.92922" lon="3.62489">
        <ele>684.31688</ele>
        <time>2017-02-22T15:42:42Z</time>
      </trkpt>
      <trkpt lat="45.92932" lon="3.62487">
        <ele>683.51727333333</ele>
        <time>2017-02-22T15:42:46Z</time>
      </trkpt>
      <trkpt lat="45.92938" lon="3.6248">
        <ele>683.1175</ele>
        <time>2017-02-22T15:42:49Z</time>
      </trkpt>
      <trkpt lat="45.92944" lon="3.62471">
        <ele>683.71775333333</ele>
        <time>2017-02-22T15:42:53Z</time>
      </trkpt>
      <trkpt lat="45.9295" lon="3.62463">
        <ele>684.51801333333</ele>
        <time>2017-02-22T15:42:55Z</time>
      </trkpt>
      <trkpt lat="45.9296" lon="3.62443">
        <ele>687.11841333333</ele>
        <time>2017-02-22T15:43:07Z</time>
      </trkpt>
      <trkpt lat="45.92976" lon="3.62422">
        <ele>686.11902</ele>
        <time>2017-02-22T15:43:07Z</time>
      </trkpt>
      <trkpt lat="45.93002" lon="3.62395">
        <ele>683.12009333333</ele>
        <time>2017-02-22T15:43:18Z</time>
      </trkpt>
      <trkpt lat="45.93007" lon="3.62391">
        <ele>683.22029333333</ele>
        <time>2017-02-22T15:43:20Z</time>
      </trkpt>
      <trkpt lat="45.93025" lon="3.62374">
        <ele>681.621</ele>
        <time>2017-02-22T15:43:30Z</time>
      </trkpt>
      <trkpt lat="45.93041" lon="3.62362">
        <ele>679.62164666667</ele>
        <time>2017-02-22T15:43:34Z</time>
      </trkpt>
      <trkpt lat="45.93048" lon="3.62357">
        <ele>679.22190666667</ele>
        <time>2017-02-22T15:43:36Z</time>
      </trkpt>
      <trkpt lat="45.93073" lon="3.62337">
        <ele>676.8229</ele>
        <time>2017-02-22T15:43:46Z</time>
      </trkpt>
      <trkpt lat="45.93087" lon="3.62328">
        <ele>676.62346666667</ele>
        <time>2017-02-22T15:43:50Z</time>
      </trkpt>
      <trkpt lat="45.93101" lon="3.6232">
        <ele>675.32402</ele>
        <time>2017-02-22T15:43:55Z</time>
      </trkpt>
      <trkpt lat="45.93116" lon="3.62312">
        <ele>674.82462</ele>
        <time>2017-02-22T15:44:00Z</time>
      </trkpt>
      <trkpt lat="45.93125" lon="3.62305">
        <ele>673.92498666667</ele>
        <time>2017-02-22T15:44:04Z</time>
      </trkpt>
      <trkpt lat="45.93133" lon="3.62301">
        <ele>673.2253</ele>
        <time>2017-02-22T15:44:07Z</time>
      </trkpt>
      <trkpt lat="45.93151" lon="3.62296">
        <ele>672.82604</ele>
        <time>2017-02-22T15:44:14Z</time>
      </trkpt>
      <trkpt lat="45.93167" lon="3.62293">
        <ele>671.92669333333</ele>
        <time>2017-02-22T15:44:18Z</time>
      </trkpt>
      <trkpt lat="45.9317" lon="3.62293">
        <ele>672.12681333333</ele>
        <time>2017-02-22T15:44:20Z</time>
      </trkpt>
      <trkpt lat="45.93176" lon="3.62283">
        <ele>680.92704</ele>
        <time>2017-02-22T15:44:26Z</time>
      </trkpt>
      <trkpt lat="45.93183" lon="3.62287">
        <ele>693.72732</ele>
        <time>2017-02-22T15:44:33Z</time>
      </trkpt>
      <trkpt lat="45.93185" lon="3.62302">
        <ele>696.12740666667</ele>
        <time>2017-02-22T15:44:37Z</time>
      </trkpt>
      <trkpt lat="45.93184" lon="3.62306">
        <ele>696.02734666667</ele>
        <time>2017-02-22T15:44:39Z</time>
      </trkpt>
      <trkpt lat="45.93184" lon="3.62318">
        <ele>696.52736666667</ele>
        <time>2017-02-22T15:44:48Z</time>
      </trkpt>
      <trkpt lat="45.93181" lon="3.62327">
        <ele>696.42724</ele>
        <time>2017-02-22T15:44:54Z</time>
      </trkpt>
      <trkpt lat="45.9318" lon="3.62334">
        <ele>696.42718</ele>
        <time>2017-02-22T15:44:59Z</time>
      </trkpt>
      <trkpt lat="45.93177" lon="3.62344">
        <ele>697.02707333333</ele>
        <time>2017-02-22T15:45:11Z</time>
      </trkpt>
      <trkpt lat="45.93176" lon="3.62346">
        <ele>697.02704</ele>
        <time>2017-02-22T15:45:11Z</time>
      </trkpt>
      <trkpt lat="45.93168" lon="3.62376">
        <ele>697.12673333333</ele>
        <time>2017-02-22T15:45:18Z</time>
      </trkpt>
      <trkpt lat="45.93167" lon="3.62379">
        <ele>697.22669333333</ele>
        <time>2017-02-22T15:45:20Z</time>
      </trkpt>
      <trkpt lat="45.93162" lon="3.62396">
        <ele>698.52647333333</ele>
        <time>2017-02-22T15:45:33Z</time>
      </trkpt>
      <trkpt lat="45.93159" lon="3.62406">
        <ele>698.82634666667</ele>
        <time>2017-02-22T15:45:39Z</time>
      </trkpt>
      <trkpt lat="45.93156" lon="3.62411">
        <ele>698.82625333333</ele>
        <time>2017-02-22T15:45:42Z</time>
      </trkpt>
      <trkpt lat="45.93151" lon="3.62425">
        <ele>698.82605333333</ele>
        <time>2017-02-22T15:45:48Z</time>
      </trkpt>
      <trkpt lat="45.93148" lon="3.62434">
        <ele>699.0259</ele>
        <time>2017-02-22T15:45:52Z</time>
      </trkpt>
      <trkpt lat="45.93144" lon="3.62441">
        <ele>699.32576666667</ele>
        <time>2017-02-22T15:45:57Z</time>
      </trkpt>
      <trkpt lat="45.9314" lon="3.62451">
        <ele>699.82558666667</ele>
        <time>2017-02-22T15:46:02Z</time>
      </trkpt>
      <trkpt lat="45.93137" lon="3.62457">
        <ele>699.92548666667</ele>
        <time>2017-02-22T15:46:06Z</time>
      </trkpt>
      <trkpt lat="45.93127" lon="3.62477">
        <ele>701.52506666667</ele>
        <time>2017-02-22T15:46:18Z</time>
      </trkpt>
      <trkpt lat="45.93124" lon="3.62486">
        <ele>702.42494666667</ele>
        <time>2017-02-22T15:46:27Z</time>
      </trkpt>
      <trkpt lat="45.93118" lon="3.62496">
        <ele>703.12472666667</ele>
        <time>2017-02-22T15:46:34Z</time>
      </trkpt>
      <trkpt lat="45.93116" lon="3.625">
        <ele>703.22465333333</ele>
        <time>2017-02-22T15:46:39Z</time>
      </trkpt>
      <trkpt lat="45.93111" lon="3.62513">
        <ele>703.42443333333</ele>
        <time>2017-02-22T15:46:43Z</time>
      </trkpt>
      <trkpt lat="45.93103" lon="3.6253">
        <ele>703.72412</ele>
        <time>2017-02-22T15:46:48Z</time>
      </trkpt>
      <trkpt lat="45.93098" lon="3.62539">
        <ele>704.22391333333</ele>
        <time>2017-02-22T15:46:52Z</time>
      </trkpt>
      <trkpt lat="45.93094" lon="3.62544">
        <ele>704.22376666667</ele>
        <time>2017-02-22T15:46:56Z</time>
      </trkpt>
      <trkpt lat="45.93085" lon="3.62559">
        <ele>704.12338666667</ele>
        <time>2017-02-22T15:47:00Z</time>
      </trkpt>
      <trkpt lat="45.93079" lon="3.62572">
        <ele>704.42314</ele>
        <time>2017-02-22T15:47:04Z</time>
      </trkpt>
      <trkpt lat="45.93068" lon="3.62597">
        <ele>704.12272</ele>
        <time>2017-02-22T15:47:09Z</time>
      </trkpt>
      <trkpt lat="45.93061" lon="3.62602">
        <ele>703.82244</ele>
        <time>2017-02-22T15:47:14Z</time>
      </trkpt>
      <trkpt lat="45.93049" lon="3.62623">
        <ele>703.52194</ele>
        <time>2017-02-22T15:47:18Z</time>
      </trkpt>
      <trkpt lat="45.93044" lon="3.62627">
        <ele>703.52174666667</ele>
        <time>2017-02-22T15:47:19Z</time>
      </trkpt>
      <trkpt lat="45.93039" lon="3.62631">
        <ele>703.32157333333</ele>
        <time>2017-02-22T15:47:29Z</time>
      </trkpt>
      <trkpt lat="45.93026" lon="3.62645">
        <ele>701.62104</ele>
        <time>2017-02-22T15:47:29Z</time>
      </trkpt>
      <trkpt lat="45.93021" lon="3.62652">
        <ele>700.32083333333</ele>
        <time>2017-02-22T15:47:36Z</time>
      </trkpt>
      <trkpt lat="45.93005" lon="3.62662">
        <ele>698.52021333333</ele>
        <time>2017-02-22T15:47:40Z</time>
      </trkpt>
      <trkpt lat="45.92993" lon="3.62669">
        <ele>697.51972</ele>
        <time>2017-02-22T15:47:44Z</time>
      </trkpt>
      <trkpt lat="45.92986" lon="3.62675">
        <ele>696.51944666667</ele>
        <time>2017-02-22T15:47:49Z</time>
      </trkpt>
      <trkpt lat="45.92978" lon="3.6268">
        <ele>696.01910666667</ele>
        <time>2017-02-22T15:47:52Z</time>
      </trkpt>
      <trkpt lat="45.92968" lon="3.6269">
        <ele>696.51873333333</ele>
        <time>2017-02-22T15:47:56Z</time>
      </trkpt>
      <trkpt lat="45.92958" lon="3.6271">
        <ele>697.41831333333</ele>
        <time>2017-02-22T15:48:01Z</time>
      </trkpt>
      <trkpt lat="45.92955" lon="3.62733">
        <ele>697.91820666667</ele>
        <time>2017-02-22T15:48:05Z</time>
      </trkpt>
      <trkpt lat="45.92957" lon="3.62749">
        <ele>697.11828666667</ele>
        <time>2017-02-22T15:48:08Z</time>
      </trkpt>
      <trkpt lat="45.92957" lon="3.62796">
        <ele>697.61826666667</ele>
        <time>2017-02-22T15:48:15Z</time>
      </trkpt>
      <trkpt lat="45.92946" lon="3.62832">
        <ele>698.11785333333</ele>
        <time>2017-02-22T15:48:20Z</time>
      </trkpt>
      <trkpt lat="45.9294" lon="3.62848">
        <ele>698.01758666667</ele>
        <time>2017-02-22T15:48:23Z</time>
      </trkpt>
      <trkpt lat="45.92932" lon="3.62863">
        <ele>696.21726</ele>
        <time>2017-02-22T15:48:27Z</time>
      </trkpt>
      <trkpt lat="45.9293" lon="3.62866">
        <ele>696.01718</ele>
        <time>2017-02-22T15:48:29Z</time>
      </trkpt>
      <trkpt lat="45.9291" lon="3.629">
        <ele>691.91638</ele>
        <time>2017-02-22T15:48:40Z</time>
      </trkpt>
      <trkpt lat="45.92904" lon="3.62919">
        <ele>690.41614</ele>
        <time>2017-02-22T15:48:44Z</time>
      </trkpt>
      <trkpt lat="45.92898" lon="3.62928">
        <ele>689.0159</ele>
        <time>2017-02-22T15:48:48Z</time>
      </trkpt>
      <trkpt lat="45.9289" lon="3.62936">
        <ele>687.6156</ele>
        <time>2017-02-22T15:48:52Z</time>
      </trkpt>
      <trkpt lat="45.92887" lon="3.62939">
        <ele>687.11548666667</ele>
        <time>2017-02-22T15:49:00Z</time>
      </trkpt>
      <trkpt lat="45.92872" lon="3.62959">
        <ele>683.31489333333</ele>
        <time>2017-02-22T15:49:04Z</time>
      </trkpt>
      <trkpt lat="45.92866" lon="3.62966">
        <ele>682.11462</ele>
        <time>2017-02-22T15:49:08Z</time>
      </trkpt>
      <trkpt lat="45.92859" lon="3.62976">
        <ele>680.71434</ele>
        <time>2017-02-22T15:49:15Z</time>
      </trkpt>
      <trkpt lat="45.92842" lon="3.63006">
        <ele>677.81367333333</ele>
        <time>2017-02-22T15:49:20Z</time>
      </trkpt>
      <trkpt lat="45.92841" lon="3.63009">
        <ele>677.41362</ele>
        <time>2017-02-22T15:49:21Z</time>
      </trkpt>
      <trkpt lat="45.92805" lon="3.63062">
        <ele>674.01218</ele>
        <time>2017-02-22T15:49:35Z</time>
      </trkpt>
      <trkpt lat="45.92789" lon="3.63072">
        <ele>672.71156</ele>
        <time>2017-02-22T15:49:40Z</time>
      </trkpt>
      <trkpt lat="45.92779" lon="3.63078">
        <ele>671.11115333333</ele>
        <time>2017-02-22T15:49:43Z</time>
      </trkpt>
      <trkpt lat="45.92769" lon="3.63085">
        <ele>668.91076666667</ele>
        <time>2017-02-22T15:49:47Z</time>
      </trkpt>
      <trkpt lat="45.92763" lon="3.6309">
        <ele>666.81051333333</ele>
        <time>2017-02-22T15:49:50Z</time>
      </trkpt>
      <trkpt lat="45.92757" lon="3.63093">
        <ele>665.01026</ele>
        <time>2017-02-22T15:49:55Z</time>
      </trkpt>
      <trkpt lat="45.92745" lon="3.63103">
        <ele>661.70979333333</ele>
        <time>2017-02-22T15:50:00Z</time>
      </trkpt>
      <trkpt lat="45.92732" lon="3.63106">
        <ele>660.30927333333</ele>
        <time>2017-02-22T15:50:01Z</time>
      </trkpt>
      <trkpt lat="45.92717" lon="3.63114">
        <ele>658.60866</ele>
        <time>2017-02-22T15:50:07Z</time>
      </trkpt>
      <trkpt lat="45.92703" lon="3.63124">
        <ele>656.60812666667</ele>
        <time>2017-02-22T15:50:18Z</time>
      </trkpt>
      <trkpt lat="45.92681" lon="3.63132">
        <ele>652.30722666667</ele>
        <time>2017-02-22T15:50:22Z</time>
      </trkpt>
      <trkpt lat="45.92672" lon="3.63134">
        <ele>651.00687333333</ele>
        <time>2017-02-22T15:50:26Z</time>
      </trkpt>
      <trkpt lat="45.9266" lon="3.63134">
        <ele>650.50638666667</ele>
        <time>2017-02-22T15:50:30Z</time>
      </trkpt>
      <trkpt lat="45.92657" lon="3.63133">
        <ele>650.10626</ele>
        <time>2017-02-22T15:50:31Z</time>
      </trkpt>
      <trkpt lat="45.92642" lon="3.63137">
        <ele>648.20569333333</ele>
        <time>2017-02-22T15:50:35Z</time>
      </trkpt>
      <trkpt lat="45.92588" lon="3.63163">
        <ele>655.10352666667</ele>
        <time>2017-02-22T15:50:48Z</time>
      </trkpt>
      <trkpt lat="45.92584" lon="3.63173">
        <ele>655.50335333333</ele>
        <time>2017-02-22T15:50:50Z</time>
      </trkpt>
      <trkpt lat="45.92573" lon="3.63201">
        <ele>657.30291333333</ele>
        <time>2017-02-22T15:50:57Z</time>
      </trkpt>
      <trkpt lat="45.92557" lon="3.63236">
        <ele>659.40226666667</ele>
        <time>2017-02-22T15:51:02Z</time>
      </trkpt>
      <trkpt lat="45.92553" lon="3.6325">
        <ele>660.60212</ele>
        <time>2017-02-22T15:51:05Z</time>
      </trkpt>
      <trkpt lat="45.92548" lon="3.63263">
        <ele>661.20192</ele>
        <time>2017-02-22T15:51:09Z</time>
      </trkpt>
      <trkpt lat="45.92534" lon="3.63304">
        <ele>664.10134</ele>
        <time>2017-02-22T15:51:18Z</time>
      </trkpt>
      <trkpt lat="45.92531" lon="3.63314">
        <ele>666.60122</ele>
        <time>2017-02-22T15:51:22Z</time>
      </trkpt>
      <trkpt lat="45.92529" lon="3.63322">
        <ele>669.70117333333</ele>
        <time>2017-02-22T15:51:30Z</time>
      </trkpt>
      <trkpt lat="45.92528" lon="3.63338">
        <ele>670.40110666667</ele>
        <time>2017-02-22T15:51:32Z</time>
      </trkpt>
      <trkpt lat="45.92533" lon="3.63349">
        <ele>669.70132</ele>
        <time>2017-02-22T15:51:37Z</time>
      </trkpt>
      <trkpt lat="45.92542" lon="3.63363">
        <ele>669.20166</ele>
        <time>2017-02-22T15:51:48Z</time>
      </trkpt>
      <trkpt lat="45.92544" lon="3.6337">
        <ele>669.70176666667</ele>
        <time>2017-02-22T15:51:50Z</time>
      </trkpt>
      <trkpt lat="45.92552" lon="3.63385">
        <ele>669.70206666667</ele>
        <time>2017-02-22T15:52:00Z</time>
      </trkpt>
      <trkpt lat="45.9256" lon="3.63396">
        <ele>670.00238666667</ele>
        <time>2017-02-22T15:52:04Z</time>
      </trkpt>
      <trkpt lat="45.92564" lon="3.63404">
        <ele>670.10254</ele>
        <time>2017-02-22T15:52:08Z</time>
      </trkpt>
      <trkpt lat="45.92568" lon="3.63414">
        <ele>670.80271333333</ele>
        <time>2017-02-22T15:52:13Z</time>
      </trkpt>
      <trkpt lat="45.92573" lon="3.63423">
        <ele>671.50290666667</ele>
        <time>2017-02-22T15:52:17Z</time>
      </trkpt>
      <trkpt lat="45.92579" lon="3.63429">
        <ele>673.10317333333</ele>
        <time>2017-02-22T15:52:19Z</time>
      </trkpt>
      <trkpt lat="45.92602" lon="3.63449">
        <ele>679.40407333333</ele>
        <time>2017-02-22T15:52:33Z</time>
      </trkpt>
      <trkpt lat="45.92605" lon="3.63452">
        <ele>680.1042</ele>
        <time>2017-02-22T15:52:35Z</time>
      </trkpt>
      <trkpt lat="45.92613" lon="3.63455">
        <ele>681.50452</ele>
        <time>2017-02-22T15:52:39Z</time>
      </trkpt>
      <trkpt lat="45.9262" lon="3.63459">
        <ele>683.20478666667</ele>
        <time>2017-02-22T15:52:42Z</time>
      </trkpt>
      <trkpt lat="45.92624" lon="3.63461">
        <ele>684.40496</ele>
        <time>2017-02-22T15:52:44Z</time>
      </trkpt>
      <trkpt lat="45.92631" lon="3.63462">
        <ele>685.70525333333</ele>
        <time>2017-02-22T15:52:48Z</time>
      </trkpt>
      <trkpt lat="45.92636" lon="3.63464">
        <ele>687.30545333333</ele>
        <time>2017-02-22T15:52:54Z</time>
      </trkpt>
      <trkpt lat="45.92658" lon="3.63467">
        <ele>691.00630666667</ele>
        <time>2017-02-22T15:53:00Z</time>
      </trkpt>
      <trkpt lat="45.92668" lon="3.63469">
        <ele>694.70672</ele>
        <time>2017-02-22T15:53:04Z</time>
      </trkpt>
      <trkpt lat="45.92679" lon="3.6347">
        <ele>697.40716666667</ele>
        <time>2017-02-22T15:53:09Z</time>
      </trkpt>
      <trkpt lat="45.92689" lon="3.63473">
        <ele>699.80755333333</ele>
        <time>2017-02-22T15:53:13Z</time>
      </trkpt>
      <trkpt lat="45.92696" lon="3.63474">
        <ele>702.70782666667</ele>
        <time>2017-02-22T15:53:18Z</time>
      </trkpt>
      <trkpt lat="45.92703" lon="3.63477">
        <ele>703.20812</ele>
        <time>2017-02-22T15:53:22Z</time>
      </trkpt>
      <trkpt lat="45.92711" lon="3.6348">
        <ele>706.10842666667</ele>
        <time>2017-02-22T15:53:26Z</time>
      </trkpt>
      <trkpt lat="45.92715" lon="3.63486">
        <ele>706.9086</ele>
        <time>2017-02-22T15:53:28Z</time>
      </trkpt>
      <trkpt lat="45.9272" lon="3.6349">
        <ele>707.60878</ele>
        <time>2017-02-22T15:53:33Z</time>
      </trkpt>
      <trkpt lat="45.92734" lon="3.63505">
        <ele>711.40936666667</ele>
        <time>2017-02-22T15:53:38Z</time>
      </trkpt>
      <trkpt lat="45.92741" lon="3.6351">
        <ele>712.80964</ele>
        <time>2017-02-22T15:53:42Z</time>
      </trkpt>
      <trkpt lat="45.92756" lon="3.63513">
        <ele>716.41024</ele>
        <time>2017-02-22T15:53:47Z</time>
      </trkpt>
      <trkpt lat="45.9278" lon="3.63519">
        <ele>721.11121333333</ele>
        <time>2017-02-22T15:53:51Z</time>
      </trkpt>
      <trkpt lat="45.92795" lon="3.63522">
        <ele>723.81180666667</ele>
        <time>2017-02-22T15:53:56Z</time>
      </trkpt>
      <trkpt lat="45.92807" lon="3.63532">
        <ele>728.11226666667</ele>
        <time>2017-02-22T15:54:00Z</time>
      </trkpt>
      <trkpt lat="45.92817" lon="3.6354">
        <ele>734.01266666667</ele>
        <time>2017-02-22T15:54:03Z</time>
      </trkpt>
      <trkpt lat="45.92821" lon="3.63541">
        <ele>735.11284</ele>
        <time>2017-02-22T15:54:08Z</time>
      </trkpt>
      <trkpt lat="45.92849" lon="3.63552">
        <ele>747.81394</ele>
        <time>2017-02-22T15:54:13Z</time>
      </trkpt>
      <trkpt lat="45.92861" lon="3.63554">
        <ele>750.01444666667</ele>
        <time>2017-02-22T15:54:16Z</time>
      </trkpt>
      <trkpt lat="45.92881" lon="3.63559">
        <ele>753.31522666667</ele>
        <time>2017-02-22T15:54:21Z</time>
      </trkpt>
      <trkpt lat="45.9289" lon="3.63561">
        <ele>755.11559333333</ele>
        <time>2017-02-22T15:54:23Z</time>
      </trkpt>
      <trkpt lat="45.92907" lon="3.63572">
        <ele>755.31628666667</ele>
        <time>2017-02-22T15:54:28Z</time>
      </trkpt>
      <trkpt lat="45.92922" lon="3.63584">
        <ele>754.91686</ele>
        <time>2017-02-22T15:54:33Z</time>
      </trkpt>
      <trkpt lat="45.92942" lon="3.63601">
        <ele>754.01767333333</ele>
        <time>2017-02-22T15:54:40Z</time>
      </trkpt>
      <trkpt lat="45.92962" lon="3.63606">
        <ele>752.41847333333</ele>
        <time>2017-02-22T15:54:48Z</time>
      </trkpt>
      <trkpt lat="45.92981" lon="3.63604">
        <ele>753.51922666667</ele>
        <time>2017-02-22T15:54:50Z</time>
      </trkpt>
      <trkpt lat="45.92985" lon="3.63604">
        <ele>753.21941333333</ele>
        <time>2017-02-22T15:55:00Z</time>
      </trkpt>
      <trkpt lat="45.93063" lon="3.63574">
        <ele>756.32252666667</ele>
        <time>2017-02-22T15:55:05Z</time>
      </trkpt>
      <trkpt lat="45.93093" lon="3.63561">
        <ele>755.52373333333</ele>
        <time>2017-02-22T15:55:10Z</time>
      </trkpt>
      <trkpt lat="45.93114" lon="3.63559">
        <ele>755.32456</ele>
        <time>2017-02-22T15:55:14Z</time>
      </trkpt>
      <trkpt lat="45.93129" lon="3.6356">
        <ele>754.32514</ele>
        <time>2017-02-22T15:55:17Z</time>
      </trkpt>
      <trkpt lat="45.93147" lon="3.63556">
        <ele>753.22587333333</ele>
        <time>2017-02-22T15:55:20Z</time>
      </trkpt>
      <trkpt lat="45.93152" lon="3.63554">
        <ele>752.72608</ele>
        <time>2017-02-22T15:55:34Z</time>
      </trkpt>
      <trkpt lat="45.93243" lon="3.63504">
        <ele>743.92970666667</ele>
        <time>2017-02-22T15:55:34Z</time>
      </trkpt>
      <trkpt lat="45.93283" lon="3.63481">
        <ele>741.83132666667</ele>
        <time>2017-02-22T15:55:39Z</time>
      </trkpt>
      <trkpt lat="45.93327" lon="3.63451">
        <ele>739.93308666667</ele>
        <time>2017-02-22T15:55:46Z</time>
      </trkpt>
      <trkpt lat="45.9337" lon="3.63418">
        <ele>738.73478666667</ele>
        <time>2017-02-22T15:55:51Z</time>
      </trkpt>
      <trkpt lat="45.93398" lon="3.63398">
        <ele>737.33590666667</ele>
        <time>2017-02-22T15:55:55Z</time>
      </trkpt>
      <trkpt lat="45.93406" lon="3.63393">
        <ele>736.93622</ele>
        <time>2017-02-22T15:55:56Z</time>
      </trkpt>
      <trkpt lat="45.93438" lon="3.63376">
        <ele>734.13752</ele>
        <time>2017-02-22T15:56:00Z</time>
      </trkpt>
      <trkpt lat="45.93462" lon="3.63372">
        <ele>732.83847333333</ele>
        <time>2017-02-22T15:56:03Z</time>
      </trkpt>
      <trkpt lat="45.93491" lon="3.63376">
        <ele>730.93962</ele>
        <time>2017-02-22T15:56:07Z</time>
      </trkpt>
      <trkpt lat="45.9352" lon="3.63392">
        <ele>727.34081333333</ele>
        <time>2017-02-22T15:56:10Z</time>
      </trkpt>
      <trkpt lat="45.93527" lon="3.63399">
        <ele>726.74107333333</ele>
        <time>2017-02-22T15:56:12Z</time>
      </trkpt>
      <trkpt lat="45.9354" lon="3.6341">
        <ele>725.84159333333</ele>
        <time>2017-02-22T15:56:19Z</time>
      </trkpt>
      <trkpt lat="45.9358" lon="3.63413">
        <ele>722.24319333333</ele>
        <time>2017-02-22T15:56:24Z</time>
      </trkpt>
      <trkpt lat="45.9359" lon="3.634">
        <ele>720.54358</ele>
        <time>2017-02-22T15:56:28Z</time>
      </trkpt>
      <trkpt lat="45.93596" lon="3.63386">
        <ele>719.74385333333</ele>
        <time>2017-02-22T15:56:32Z</time>
      </trkpt>
      <trkpt lat="45.93599" lon="3.63371">
        <ele>720.34397333333</ele>
        <time>2017-02-22T15:56:36Z</time>
      </trkpt>
      <trkpt lat="45.93604" lon="3.63362">
        <ele>720.74414666667</ele>
        <time>2017-02-22T15:56:39Z</time>
      </trkpt>
      <trkpt lat="45.93605" lon="3.63355">
        <ele>721.2442</ele>
        <time>2017-02-22T15:56:41Z</time>
      </trkpt>
      <trkpt lat="45.93617" lon="3.63335">
        <ele>722.54468666667</ele>
        <time>2017-02-22T15:56:49Z</time>
      </trkpt>
      <trkpt lat="45.93625" lon="3.63332">
        <ele>724.14499333333</ele>
        <time>2017-02-22T15:56:55Z</time>
      </trkpt>
      <trkpt lat="45.93647" lon="3.63326">
        <ele>726.04589333333</ele>
        <time>2017-02-22T15:57:00Z</time>
      </trkpt>
      <trkpt lat="45.93662" lon="3.63322">
        <ele>727.34649333333</ele>
        <time>2017-02-22T15:57:05Z</time>
      </trkpt>
      <trkpt lat="45.93674" lon="3.6332">
        <ele>726.74696666667</ele>
        <time>2017-02-22T15:57:09Z</time>
      </trkpt>
      <trkpt lat="45.93684" lon="3.63318">
        <ele>726.84735333333</ele>
        <time>2017-02-22T15:57:12Z</time>
      </trkpt>
      <trkpt lat="45.9369" lon="3.63315">
        <ele>727.64758</ele>
        <time>2017-02-22T15:57:14Z</time>
      </trkpt>
      <trkpt lat="45.93696" lon="3.63312">
        <ele>728.04782</ele>
        <time>2017-02-22T15:57:19Z</time>
      </trkpt>
      <trkpt lat="45.9371" lon="3.63302">
        <ele>728.94838</ele>
        <time>2017-02-22T15:57:20Z</time>
      </trkpt>
      <trkpt lat="45.93738" lon="3.63277">
        <ele>733.04951333333</ele>
        <time>2017-02-22T15:57:31Z</time>
      </trkpt>
      <trkpt lat="45.93748" lon="3.63268">
        <ele>733.54992666667</ele>
        <time>2017-02-22T15:57:34Z</time>
      </trkpt>
      <trkpt lat="45.93777" lon="3.63248">
        <ele>734.75108</ele>
        <time>2017-02-22T15:57:41Z</time>
      </trkpt>
      <trkpt lat="45.93806" lon="3.63229">
        <ele>735.35224666667</ele>
        <time>2017-02-22T15:57:49Z</time>
      </trkpt>
      <trkpt lat="45.93842" lon="3.63201">
        <ele>734.55367333333</ele>
        <time>2017-02-22T15:57:54Z</time>
      </trkpt>
      <trkpt lat="45.93852" lon="3.63191">
        <ele>734.35406666667</ele>
        <time>2017-02-22T15:57:56Z</time>
      </trkpt>
      <trkpt lat="45.93878" lon="3.63162">
        <ele>732.45510666667</ele>
        <time>2017-02-22T15:58:01Z</time>
      </trkpt>
      <trkpt lat="45.93886" lon="3.63148">
        <ele>731.25542</ele>
        <time>2017-02-22T15:58:04Z</time>
      </trkpt>
      <trkpt lat="45.93893" lon="3.6314">
        <ele>729.05572</ele>
        <time>2017-02-22T15:58:09Z</time>
      </trkpt>
      <trkpt lat="45.93893" lon="3.63139">
        <ele>729.15570666667</ele>
        <time>2017-02-22T15:59:41Z</time>
      </trkpt>
      <trkpt lat="45.93893" lon="3.63139">
        <ele>729.15570666667</ele>
        <time>2017-02-22T15:59:41Z</time>
      </trkpt>
    </trkseg>
  </trk>
</gpx>